[[{"header":{"parameterUnit":"m.s-1","parameterCategory":1,"la1":31.0,"la2":29.5877,"lo1":-88.7671,"lo2":-86.6584,"dy":0.0162,"dx":0.0185,"nx":115,"ny":88,"refTime":"2026-05-16T00:00:00:Z","depth":0,"parameterNumber":2,"parameterNumberName":"U-component_of_WINDS"},"data":[0.0,0.0,0.0,0.0,0.0,0.0,0.0,0.0,0.0,0.0,0.0,0.0,0.0,0.0,0.0,0.0,0.0,0.0,0.0,0.0,0.0,0.0,0.0,0.0,0.0,0.0,0.0,0.0,0.0,0.0,0.0,0.0,0.0,0.0,0.0,0.0,0.0,0.0,0.0,0.0,0.0,0.0,0.0,0.0,0.0,0.0,0.0,0.0,0.0,0.0,0.0,0.0,0.0,0.0,0.0,0.0,0.0,0.0,0.0,0.0,0.0,0.0,0.0,0.0,0.0,0.0,0.0,0.0,0.0,0.0,0.0,0.0,0.0,0.0,0.0,0.0,0.0,0.0,0.0,0.0,0.0,0.0,0.0,0.0,0.0,0.0,0.0,0.0,0.0,0.0,0.0,0.0,0.0,0.0,0.0,0.0,0.0,0.0,0.0,0.0,0.0,0.0,0.0,0.0,0.0,0.0,0.0,0.0,0.0,0.0,0.0,0.0,0.0,0.0,0.0,0.0,0.0,0.0,0.0,0.0,0.0,0.0,0.0,0.0,0.0,0.0,0.0,0.0,0.0,0.0,0.0,0.0,0.0,0.0,0.0,0.0,0.0,0.0,0.0,0.0,0.0,0.0,0.0,0.0,0.0,0.0,0.0,0.0,0.0,0.0,0.0,0.0,0.0,0.0,0.0,0.0,0.0,0.0,0.0,0.0,0.0,0.0,0.0,0.0,0.0,0.0,0.0,0.0,0.0,0.0,0.0,0.0,0.0,0.0,0.0,0.0,0.0,0.0,0.0,0.0,0.0,0.0,0.0,0.0,0.0,0.0,0.0,0.0,0.0,0.0,0.0,0.0,0.0,0.0,0.0,0.0,0.0,0.0,0.0,0.0,0.0,0.0,0.0,0.0,0.0,0.0,0.0,0.0,0.0,0.0,0.0,0.0,0.0,0.0,0.0,0.0,0.0,0.0,0.0,0.0,0.0,0.0,0.0,0.0,0.0,0.0,0.0,0.0,0.0,0.0,0.0,0.0,0.0,0.0,0.0,0.0,0.0,0.0,0.0,0.0,0.0,0.0,0.0,0.0,0.0,0.0,0.0,0.0,0.0,0.0,0.0,0.0,0.0,0.0,0.0,0.0,0.0,0.0,0.0,0.0,0.0,0.0,0.0,0.0,0.0,0.0,0.0,0.0,0.0,0.0,0.0,0.0,0.0,0.0,0.0,0.0,0.0,0.0,0.0,0.0,0.0,0.0,0.0,0.0,0.0,0.0,0.0,0.0,0.0,0.0,0.0,0.0,0.0,0.0,0.0,0.0,0.0,0.0,0.0,0.0,0.0,0.0,0.0,0.0,0.0,0.0,0.0,0.0,0.0,0.0,0.0,0.0,0.0,0.0,0.0,0.0,0.0,0.0,0.0,0.0,0.0,0.0,0.0,0.0,0.0,0.0,0.0,0.0,0.0,0.0,0.0,0.0,0.0,0.0,0.0,0.0,0.0,0.0,0.0,0.0,0.0,0.0,0.0,0.0,0.0,0.0,0.0,0.0,0.0,0.0,0.0,0.0,0.0,0.0,0.0,0.0,0.0,0.0,0.0,0.0,0.0,0.0,0.0,0.0,0.0,0.0,0.0,0.0,0.0,0.0,0.0,0.0,0.0,0.0,0.0,0.0,0.0,0.0,0.0,0.0,0.0,0.0,0.0,0.0,0.0,0.0,0.0,0.0,0.0,0.0,0.0,0.0,0.0,0.0,0.0,0.0,0.0,0.0,0.0,0.0,0.0,0.0,0.0,0.0,0.0,0.0,0.0,0.0,0.0,0.0,0.0,0.0,0.0,0.0,0.0,0.0,0.0,0.0,0.0,0.0,0.0,0.0,0.0,0.0,0.0,0.0,0.0,0.0,0.0,0.0,0.0,0.0,0.0,0.0,0.0,0.0,0.0,0.0,0.0,0.0,0.0,0.0,0.0,0.0,0.0,0.0,0.0,0.0,0.0,0.0,0.0,0.0,0.0,0.0,0.0,0.0,0.0,0.0,0.0,0.0,0.0,0.0,0.0,0.0,0.0,0.0,0.0,0.0,0.0,0.0,0.0,0.0,0.0,0.0,0.0,0.0,0.0,0.0,0.0,0.0,0.0,0.0,0.0,0.0,0.0,0.0,0.0,0.0,0.0,0.0,0.0,0.0,0.0,0.0,0.0,0.0,0.0,0.0,0.0,0.0,0.0,0.0,0.0,0.0,0.0,0.0,0.0,0.0,0.0,0.0,0.0,0.0,0.0,0.0,0.0,0.0,0.0,0.0,0.0,0.0,0.0,0.0,0.0,0.0,0.0,0.0,0.0,0.0,0.0,0.0,0.0,0.0,0.0,0.0,0.0,0.0,0.0,0.0,0.0,0.0,0.0,0.0,0.0,0.0,0.0,0.0,0.0,0.0,0.0,0.0,0.0,0.0,0.0,0.0,0.0,0.0,0.0,0.0,0.0,0.0,0.0,0.0,0.0,0.0,0.0,0.0,0.0,0.0,0.0,0.0,0.0,0.0,0.0,0.0,0.0,0.0,0.0,0.0,0.0,0.0,0.0,0.0,0.0,0.0,0.0,0.0,0.0,0.0,0.0,0.0,0.0,0.0,0.0,0.0,0.0,0.0,0.0,0.0,0.0,0.0,0.0,0.0,0.0,0.0,0.0,0.0,0.0,0.0,0.0,0.0,0.0,0.0,0.0,0.0,0.0,0.0,0.0,0.0,0.0,0.0,0.0,0.0,0.0,0.0,0.0,0.0,0.0,0.0,0.0,0.0,0.0,0.0,0.0,0.0,0.0,0.0,0.0,0.0,0.0,0.0,0.0,0.0,0.0,0.0,0.0,0.0,0.0,0.0,0.0,0.0,0.0,0.0,0.0,0.0,0.0,0.0,0.0,0.0,0.0,0.0,0.0,0.0,0.0,0.0,0.0,0.0,0.0,0.0,0.0,0.0,0.0,0.0,0.0,0.0,0.0,0.0,0.0,0.0,0.0,0.0,0.0,0.0,0.0,0.0,0.0,0.0,0.0,0.0,0.0,0.0,0.0,0.0,0.0,0.0,0.0,0.0,0.0,0.0,0.0,0.0,0.0,0.0,0.0,0.0,0.0,0.0,0.0,0.0,0.0,0.0,0.0,0.0,0.0,0.0,0.0,0.0,0.0,0.0,0.0,0.0,0.0,0.0,0.0,0.0,0.0,0.0,0.0,0.0,0.0,0.0,0.0,0.0,0.0,0.0,0.0,0.0,0.0,0.0,0.0,0.0,0.0,0.0,0.0,0.0,0.0,0.0,0.0,0.0,0.0,0.0,0.0,0.0,0.0,0.0,0.0,0.0,0.0,0.0,0.0,0.0,0.0,0.0,0.0,0.0,0.0,0.0,0.0,0.0,0.0,0.0,0.0,0.0,0.0,0.0,0.0,0.0,0.0,0.0,0.0,0.0,0.0,0.0,0.0,0.0,0.0,0.0,0.0,0.0,0.0,0.0,0.0,0.0,0.0,0.0,0.0,0.0,0.0,0.0,0.0,0.0,0.0,0.0,0.0,0.0,0.0,0.0,0.0,0.0,0.0,0.0,0.0,0.0,0.0,0.0,0.0,0.0,0.0,0.0,0.0,0.0,0.0,0.0,0.0,0.0,0.0,0.0,0.0,0.0,0.0,0.0,0.0,0.0,0.0,0.0,0.0,0.0,0.0,0.0,0.0,0.0,0.0,0.0,0.0,0.0,0.0,0.0,0.0,0.0,0.0,0.0,0.0,0.0,0.0,0.0,0.0,0.0,0.0,0.0,0.0,0.0,0.0,0.0,0.0,0.0,0.0,0.0,0.0,0.0,0.0,0.0,0.0,0.0,0.0,0.0,0.0,0.0,0.0,0.0,0.0,0.0,0.0,0.0,0.0,0.0,0.0,0.0,0.0,0.0,0.0,0.0,0.0,0.0,0.0,0.0,0.0,0.0,0.0,0.0,0.0,0.0,0.0,0.0,0.0,0.0,0.0,0.0,0.0,0.0,0.0,0.0,0.0,0.0,0.0,0.0,0.0,0.0,0.0,0.0,0.0,0.0,0.0,0.0,0.0,0.0,0.0,0.0,0.0,0.0,0.0,0.0,0.0,0.0,0.0,0.0,0.0,0.0,0.0,0.0,0.0,0.0,0.0,0.0,0.0,0.0,0.0,0.0,0.0,0.0,0.0,0.0,0.0,0.0,0.0,0.0,0.0,0.0,0.0,0.0,0.0,0.0,0.0,0.0,0.0,0.0,0.0,0.0,-0.3181,0.0,0.0,0.0,0.0,0.0,0.0,0.0,0.0,0.0,0.0,0.0,0.0,0.0,0.0,0.0,0.0,0.0,0.0,0.0,0.0,0.0,0.0,0.0,0.0,0.0,0.0,0.0,0.0,0.0,0.0,0.0,0.0,0.0,0.0,0.0,0.0,0.0,0.0,0.0,0.0,0.0,0.0,0.0,0.0,0.0,0.0,0.0,0.0,0.0,0.0,0.0,0.0,0.0,0.0,0.0,0.0,0.0,0.0,0.0,0.0,0.0,0.0,0.0,0.0,0.0,0.0,0.0,0.0,0.0,0.0,0.0,0.0,0.0,0.0,0.0,0.0,0.0,0.0,0.0,0.0,0.0,0.0,0.0,0.0,0.0,0.0,0.0,0.0,0.0,0.0,0.0,0.0,0.0,0.0,0.0,0.0,0.0,0.0,0.0,0.0,0.0,0.0,0.0,0.0,0.0,0.0,0.0,0.0,0.0,0.0,-0.1032,-0.1688,-0.203,-0.2685,-0.3647,0.0,0.0,0.0,0.0,0.0,0.0,0.0,0.0,0.0,0.0,0.0,0.0,0.0,0.0,0.0,0.0,0.0,0.0,0.0,0.0,0.0,0.0,0.0,0.0,0.0,0.0,0.0,0.0,0.0,0.0,0.0,0.0,0.0,0.0,0.0,0.0,0.0,0.0,0.0,0.0,0.0,0.0,0.0,0.0,0.0,0.0,0.0,0.0,0.0,0.0,0.0,0.0,0.0,0.0,0.0,0.0,0.0,0.0,0.0,0.0,0.0,0.0,0.0,0.0,0.0,0.0,0.0,0.0,0.0,0.0,0.0,0.0,0.0,0.0,0.0,0.0,0.0,0.0,0.0,0.0,0.0,0.0,0.0,0.0,0.0,0.0,0.0,0.0,0.0,0.0,0.0,0.0,0.0,0.0,0.0,0.0,0.0,0.0,0.0,0.0,0.0,0.0,0.0,0.0,0.0,0.0,0.0,0.0,0.0,0.0,0.0,0.0,-0.2447,-0.3255,-0.4242,0.0,0.0,0.0,0.0,0.0,0.0,0.0,0.0,0.0,0.0,0.0,0.0,0.0,0.0,0.0,0.0,0.0,0.0,0.0,0.0,0.0,0.0,0.0,0.0,0.0,0.0,0.0,0.0,0.0,0.0,0.0,0.0,0.0,0.0,0.0,0.0,0.0,0.0,0.0,0.0,0.0,0.0,0.0,0.0,0.0,0.0,0.0,0.0,0.0,0.0,0.0,0.0,0.0,0.0,0.0,0.0,0.0,0.0,0.0,0.0,0.0,0.0,0.0,0.0,0.0,0.0,0.0,0.0,0.0,0.0,0.0,0.0,0.0,0.0,0.0,0.0,0.0,0.0,0.0,0.0,0.0,0.0,0.0,0.0,0.0,0.0,0.0,0.0,0.0,0.0,0.0,0.0,0.0,0.0,0.0,0.0,0.0,0.0,0.0,0.0,0.0,0.0,0.0,0.0,0.0,0.0,0.0,0.0,0.0,0.0,-0.1477,-0.1986,-0.3191,0.0,-0.5123,0.0,0.0,0.0,0.0,0.0,0.0,0.0,0.0,0.0,0.0,0.0,0.0,0.0,0.0,0.0,0.0,0.0,0.0,0.0,0.0,0.0,0.0,0.0,0.0,0.0,0.0,0.0,0.0,0.0,0.0,0.0,0.0,0.0,0.0,0.0,0.0,0.0,0.0,0.0,0.0,0.0,0.0,0.0,0.0,0.0,0.0,0.0,0.0,0.0,0.0,0.0,0.0,0.0,0.0,0.0,0.0,0.0,0.0,0.0,0.0,0.0,0.0,0.0,0.0,0.0,0.0,0.0,0.0,0.0,0.0,0.0,0.0,0.0,0.0,0.0,0.0,0.0,0.0,0.0,0.0,0.0,0.0,0.0,0.0,0.0,0.0,0.0,0.0,0.0,0.0,0.0,0.0,0.0,0.0,0.0,0.0,0.0,0.0,0.0,0.0,0.0,0.0,0.0,0.0,0.0,0.0,0.0,0.0,0.0,0.0,-0.1927,-0.2858,-0.4258,-0.5106,0.0,0.0,0.0,0.0,0.0,0.0,0.0,0.0,0.0,0.0,0.0,0.0,0.0,0.0,0.0,0.0,0.0,0.0,0.0,0.0,0.0,0.0,0.0,0.0,0.0,0.0,0.0,0.0,0.0,0.0,0.0,0.0,0.0,0.0,0.0,0.0,0.0,0.0,0.0,0.0,0.0,0.0,0.0,0.0,0.0,0.0,0.0,0.0,0.0,0.0,0.0,0.0,0.0,0.0,0.0,0.0,0.0,0.0,0.0,0.0,0.0,0.0,0.0,0.0,0.0,0.0,0.0,0.0,0.0,0.0,0.0,0.0,0.0,0.0,0.0,0.0,0.0,0.0,0.0,0.0,0.0,0.0,0.0,0.0,0.0,0.0,0.0,0.0,0.0,0.0,0.0,0.0,0.0,0.0,0.0,0.0,0.0,0.0,0.0,0.0,0.0,0.0,0.0,0.0,0.0,0.0,0.0,0.0,0.0,0.0,-0.1382,-0.2524,-0.4008,-0.5119,-0.5578,-0.5322,0.0,0.0,0.0,0.0,0.0,0.0,0.0,0.0,0.0,0.0,0.0,0.0,0.0,0.0,0.0,0.0,0.0,0.0,0.0,0.0,0.0,0.0,0.0,0.0,0.0,0.0,0.0,0.0,0.0,0.0,0.0,0.0,0.0,0.0,0.0,0.0,0.0,0.0,0.0,0.0,0.0,0.0,0.0,0.0,0.0,0.0,0.0,0.0,0.0,0.0,0.0,0.0,0.0,0.0,0.0,0.0,0.0,0.0,0.0,0.0,0.0,0.0,0.0,0.0,0.0,0.0,0.0,0.0,0.0,0.0,0.0,0.0,0.0,0.0,0.0,0.0,0.0,0.0,0.0,0.0,0.0,0.0,0.0,0.0,0.0,0.0,0.0,0.0,0.0,0.0,0.0,0.0,0.0,0.0,0.0,0.0,0.0,0.0,0.0,0.0,0.0,0.0,0.0,0.0,0.0,0.0,0.0,0.0,0.0,-0.1858,-0.3349,-0.5292,-0.5593,-0.5554,0.0,0.0,0.0,0.0,0.0,0.0,0.0,0.0,0.0,0.0,0.0,0.0,0.0,0.0,0.0,0.0,0.0,0.0,0.0,0.0,0.0,0.0,0.0,0.0,0.0,0.0,0.0,0.0,0.0,0.0,0.0,0.0,0.0,0.0,0.0,0.0,0.0,0.0,0.0,0.0,0.0,0.0,0.0,0.0,0.0,0.0,0.0,0.0,0.0,0.0,0.0,0.0,0.0,0.0,0.0,0.0,0.0,0.0,0.0,0.0,0.0,0.0,0.0,0.0,0.0,0.0,0.0,0.0,0.0,0.0,0.0,0.0,0.0,0.0,0.0,0.0,0.0,0.0,0.0,0.0,0.0,0.0,0.0,0.0,0.0,0.0,0.0,0.0,0.0,0.0,0.0,0.0,0.0,0.0,0.0,0.0,0.0,0.0,0.0,0.0,0.0,0.0,0.0,0.0,0.0,0.0,0.0,0.0,0.0,-0.119,-0.2642,-0.4054,-0.5302,-0.5206,-0.5261,0.0,0.0,0.0,0.0,0.0,0.0,0.0,0.0,0.0,0.0,0.0,0.0,0.0,0.0,0.0,0.0,0.0,0.0,0.0,0.0,0.0,0.0,0.0,0.0,0.0,0.0,0.0,0.0,0.0,0.0,0.0,0.0,0.0,0.0,0.0,0.0,0.0,0.0,0.0,0.0,0.0,0.0,0.0,0.0,0.0,0.0,0.0,0.0,0.0,0.0,0.0,0.0,0.0,0.0,0.0,0.0,0.0,0.0,0.0,0.0,0.0,0.0,0.0,0.0,0.0,0.0,0.0,0.0,0.0,0.0,0.0,0.0,0.0,0.0,0.0,0.0,0.0,0.0,0.0,0.0,0.0,0.0,0.0,0.0,0.0,0.0,0.0,0.0,0.0,0.0,0.0,0.0,0.0,0.0,0.0,0.0,0.0,0.0,0.0,0.0,0.0,0.0,0.0,0.0,0.0,0.0,0.0,0.0,0.0,-0.2179,0.0,-0.4738,0.0,-0.5135,-0.5022,0.0,0.0,0.0,0.0,0.0,0.0,0.0,0.0,0.0,0.0,0.0,0.0,0.0,0.0,0.0,0.0,0.0,0.0,0.0,0.0,0.0,0.0,0.0,0.0,0.0,0.0,0.0,0.0,0.0,0.0,0.0,0.0,0.0,0.0,0.0,0.0,0.0,0.0,0.0,0.0,0.0,0.0,0.0,0.0,0.0,0.0,0.0,0.0,0.0,0.0,0.0,0.0,0.0,0.0,0.0,0.0,0.0,0.0,0.0,0.0,0.0,0.0,0.0,0.0,0.0,0.0,0.0,0.0,0.0,0.0,0.0,0.0,0.0,0.0,0.0,0.0,0.0,0.0,0.0,0.0,0.0,0.0,0.0,0.0,0.0,0.0,0.0,0.0,0.0,0.0,0.0,0.0,0.0,0.0,0.0,0.0,0.0,0.0,0.0,0.0,0.0,0.0,0.0,0.0,0.0,0.0,0.0,0.0,-0.1973,-0.3908,-0.4828,-0.5444,-0.569,-0.544,-0.4891,0.0,0.0,0.0,0.0,0.0,0.0,0.0,0.0,0.0,0.0,0.0,0.0,0.0,0.0,0.0,0.0,0.0,0.0,0.0,0.0,0.0,0.0,0.0,0.0,0.0,0.0,0.0,0.0,0.0,0.0,0.0,0.0,0.0,0.0,0.0,0.0,0.0,0.0,0.0,0.0,0.0,0.0,0.0,0.0,0.0,0.0,0.0,0.0,0.0,0.0,0.0,0.0,0.0,0.0,0.0,0.0,0.0,0.0,0.0,0.0,0.0,0.0,0.0,0.0,0.0,0.0,0.0,0.0,0.0,0.0,0.0,0.0,0.0,0.0,0.0,0.0,0.0,0.0,0.0,0.0,0.0,0.0,0.0,0.0,0.0,0.0,0.0,0.0,0.0,0.0,0.0,0.0,0.0,0.0,0.0,0.0,0.0,0.0,0.0,0.0,0.0,0.0,0.0,0.0,0.0,0.0,0.0,0.0,0.0,-0.456,-0.5404,-0.6101,-0.6526,-0.5529,-0.5037,0.0,0.0,0.0,0.0,0.0,0.0,0.0,0.0,0.0,0.0,0.0,0.0,0.0,0.0,0.0,0.0,0.0,0.0,0.0,0.0,0.0,0.0,0.0,0.0,0.0,0.0,0.0,0.0,0.0,0.0,0.0,0.0,0.0,0.0,0.0,0.0,0.0,0.0,0.0,0.0,0.0,0.0,0.0,0.0,0.0,0.0,0.0,0.0,0.0,0.0,0.0,0.0,0.0,0.0,0.0,0.0,0.0,0.0,0.0,0.0,0.0,0.0,0.0,0.0,0.0,0.0,0.0,0.0,0.0,0.0,0.0,0.0,0.0,0.0,0.0,0.0,0.0,0.0,0.0,0.0,0.0,0.0,0.0,0.0,0.0,0.0,0.0,0.0,0.0,0.0,0.0,0.0,0.0,0.0,0.0,0.0,0.0,0.0,0.0,0.0,0.0,0.0,0.0,0.0,0.0,0.0,0.0,0.0,0.0,-0.6271,-0.6779,-0.7121,-0.7226,-0.6047,-0.5411,-0.5348,0.0,0.0,0.0,0.0,0.0,0.0,0.0,0.0,0.0,0.0,0.0,0.0,0.0,0.0,0.0,0.0,0.0,0.0,0.0,0.0,0.0,0.0,0.0,0.0,0.0,0.0,0.0,0.0,0.0,0.0,0.0,0.0,0.0,0.0,0.0,0.0,0.0,0.0,0.0,0.0,0.0,0.0,0.0,0.0,0.0,0.0,0.0,0.0,0.0,0.0,0.0,0.0,0.0,0.0,0.0,0.0,0.0,0.0,0.0,0.0,0.0,0.0,0.0,0.0,0.0,0.0,0.0,0.0,0.0,0.0,0.0,0.0,0.0,0.0,0.0,0.0,0.0,0.0,0.0,0.0,0.0,0.0,0.0,0.0,0.0,0.0,0.0,0.0,0.0,0.0,0.0,0.0,0.0,0.0,0.0,0.0,0.0,0.0,0.0,0.0,0.0,0.0,0.0,0.0,0.0,0.0,0.0,0.0,-0.8738,-0.8826,-0.85,-0.771,-0.6914,-0.5992,0.0,0.0,0.0,0.0,0.0,0.0,0.0,0.0,0.0,0.0,0.0,0.0,0.0,0.0,0.0,0.0,0.0,0.0,0.0,0.0,0.0,0.0,0.0,0.0,0.0,0.0,0.0,0.0,0.0,0.0,0.0,0.0,0.0,0.0,0.0,0.0,0.0,0.0,0.0,0.0,0.0,0.0,0.0,0.0,0.0,0.0,0.0,0.0,0.0,0.0,0.0,0.0,0.0,0.0,0.0,0.0,0.0,0.0,0.0,0.0,0.0,0.0,0.0,0.0,0.0,0.0,0.0,0.0,0.0,0.0,0.0,0.0,0.0,0.0,0.0,0.0,0.0,0.0,0.0,0.0,0.0,0.0,0.0,0.0,0.0,0.0,0.0,0.0,0.0,0.0,0.0,0.0,0.0,0.0,0.0,0.0,0.0,0.0,0.0,0.0,0.0,0.0,0.0,0.0,0.0,0.0,0.0,0.0,0.0,-1.0263,-1.0647,-1.0197,-0.8881,-0.7386,-0.6334,0.0,0.0,0.0,0.0,0.0,0.0,0.0,0.0,0.0,0.0,0.0,0.0,0.0,0.0,0.0,0.0,0.0,0.0,0.0,0.0,0.0,0.0,0.0,0.0,0.0,0.0,0.0,0.0,0.0,0.0,0.0,0.0,0.0,0.0,0.0,0.0,0.0,0.0,0.0,0.0,0.0,0.0,0.0,0.0,0.0,0.0,0.0,0.0,0.0,0.0,0.0,0.0,0.0,0.0,0.0,0.0,0.0,0.0,0.0,0.0,0.0,0.0,0.0,0.0,0.0,0.0,0.0,0.0,0.0,0.0,0.0,0.0,0.0,0.0,0.0,0.0,0.0,0.0,0.0,0.0,0.0,0.0,0.0,0.0,0.0,0.0,0.0,0.0,0.0,0.0,0.0,0.0,0.0,0.0,0.0,0.0,0.0,0.0,0.0,0.0,0.0,0.0,0.0,0.0,0.0,0.0,0.0,0.0,-0.998,-1.0878,-1.1137,-1.0788,-0.9779,-0.845,-0.729,0.0,0.0,0.0,0.0,0.0,0.0,0.0,0.0,0.0,0.0,0.0,0.0,0.0,0.0,0.0,0.0,0.0,0.0,0.0,0.0,0.0,0.0,0.0,0.0,0.0,0.0,0.0,0.0,0.0,0.0,0.0,0.0,0.0,0.0,0.0,0.0,0.0,0.0,0.0,0.0,0.0,0.0,0.0,0.0,0.0,0.0,0.0,0.0,0.0,0.0,0.0,0.0,0.0,0.0,0.0,0.0,0.0,0.0,0.0,0.0,0.0,0.0,0.0,0.0,0.0,0.0,0.0,0.0,0.0,0.0,0.0,0.0,0.0,0.0,0.0,0.0,0.0,0.0,0.0,0.0,0.0,0.0,0.0,0.0,0.0,0.0,0.0,0.0,0.0,0.0,0.0,0.0,0.0,0.0,0.0,0.0,0.0,0.0,0.0,0.0,0.0,0.0,0.0,0.0,0.0,0.0,0.0,0.0,-1.0566,-1.1024,-1.0962,-1.0756,-1.0439,-0.9577,-0.8338,0.0,0.0,0.0,0.0,0.0,0.0,0.0,0.0,0.0,0.0,0.0,0.0,0.0,0.0,0.0,0.0,0.0,0.0,0.0,0.0,0.0,0.0,0.0,0.0,0.0,0.0,0.0,0.0,0.0,0.0,0.0,0.0,0.0,0.0,0.0,0.0,0.0,0.0,0.0,0.0,0.0,0.0,0.0,0.0,0.0,0.0,0.0,0.0,0.0,0.0,0.0,0.0,0.0,0.0,0.0,0.0,0.0,0.0,0.0,0.0,0.0,0.0,0.0,0.0,0.0,0.0,0.0,0.0,0.0,0.0,0.0,0.0,0.0,0.0,0.0,0.0,0.0,0.0,0.0,0.0,0.0,0.0,0.0,0.0,0.0,0.0,0.0,0.0,0.0,0.0,0.0,0.0,0.0,0.0,0.0,0.0,0.0,0.0,0.0,0.0,0.0,0.0,0.0,0.0,0.0,0.0,0.0,0.0,-1.1162,-1.1888,-1.1713,-1.1307,-1.0723,-0.8882,-0.7571,0.0,0.0,0.0,0.0,0.0,0.0,0.0,0.0,0.0,0.0,0.0,0.0,0.0,0.0,0.0,0.0,0.0,0.0,0.0,0.0,0.0,0.0,0.0,0.0,0.0,0.0,0.0,0.0,0.0,0.0,0.0,0.0,0.0,0.0,0.0,0.0,0.0,0.0,0.0,0.0,0.0,0.0,0.0,0.0,0.0,0.0,0.0,0.0,0.1352,0.0,0.0,0.0,0.0,0.0,0.0,0.0,0.0,0.0,0.0,0.0,0.0,0.0,0.0,0.0,0.0,0.0,0.0,0.0,0.0,0.0,0.0,0.0,0.0,0.0,0.0,0.0,0.0,0.0,0.0,0.0,0.0,0.0,0.0,0.0,0.0,0.0,0.0,0.0,0.0,0.0,0.0,0.0,0.0,0.0,0.0,0.0,0.0,0.0,0.0,0.0,0.0,0.0,0.0,0.0,0.0,0.0,0.0,0.0,-1.1316,-1.2151,-1.1625,-1.1166,-1.0763,-0.8946,-0.7705,0.0,0.0,0.0,0.0,0.0,0.0,0.0,0.0,0.0,0.0,0.0,0.0,0.0,0.0,0.0,0.0,0.0,0.0,0.0,0.0,0.0,0.0,0.0,0.0,0.0,0.0,0.0,0.0,0.0,0.0,0.0,0.0,0.0,0.0,0.0,0.0,0.0,0.0,0.0,0.0,0.0,0.0,0.0,0.0,0.0,0.0,0.0,0.0,0.0,0.0,0.0,0.0,0.0,0.0,0.0,0.0,0.0,0.0,0.0,0.0,0.0,0.0,0.0,0.0,0.0,0.0,0.0,0.0,0.0,0.0,0.0,0.0,0.0,0.0,0.0,0.0,0.0,0.0,0.0,0.0,0.0,0.0,0.0,0.0,0.0,0.0,0.0,0.0,0.0,0.0,0.0,0.0,0.0,0.0,0.0,0.0,0.0,0.0,0.0,0.0,0.0,0.0,0.0,0.0,0.0,0.0,0.0,-1.044,-1.1432,-1.2225,-1.1317,-1.0813,-1.078,-0.9238,-0.8134,-0.7578,0.0,0.0,0.0,0.0,0.0,0.0,0.0,0.0,0.0,0.0,0.0,0.0,0.0,0.0,0.0,0.0,0.0,0.0,0.0,0.0,0.0,0.0,0.0,0.0,0.0,0.0,0.0,0.0,0.0,0.0,0.0,0.0,0.0,0.0,0.0,0.0,0.0,0.0,0.1156,0.1395,0.0,0.0,0.0,0.0,0.0,0.0,0.0,0.0,0.1582,0.0,0.0,0.0,0.0,0.0,0.0,0.0,0.0,0.0,0.0,0.0,0.0,0.0,0.0,0.0,0.0,0.0,0.0,0.0,0.0,0.0,0.0,0.0,0.0,0.0,0.0,0.0,0.0,0.0,0.0,0.0,0.0,0.0,0.0,0.0,0.0,0.0,0.0,0.0,0.0,0.0,0.0,0.0,0.0,0.0,0.0,0.0,0.0,0.0,0.0,0.0,0.0,0.0,0.0,0.0,0.0,-1.1061,-1.1286,-1.185,-1.2734,-1.1474,-1.0813,-1.0754,-0.9231,-0.821,-0.7795,0.0,0.0,0.0,0.0,0.0,0.0,0.0,0.0,0.0,0.0,0.0,0.0,0.0,0.0,0.0,0.0,0.0,0.0,0.0,0.0,0.0,0.0,0.0,0.0,0.0,0.0,0.0,0.0,0.0,0.0,0.0,0.0,0.0,0.0,0.0,0.0,0.0,0.0,0.0,0.1745,0.1934,0.0,0.0,0.0,0.0,0.0,0.0,0.0,0.0,0.0692,0.0,0.0,0.0,0.0,0.0,0.0,0.0,0.0,0.0,0.0,0.0,0.0,0.0,0.0,0.0,0.0,0.0,0.0,0.0,0.0,0.0,0.0,0.0,0.0,0.0,0.0,0.0,0.0,0.0,0.0,0.0,0.0,0.0,0.0,0.0,0.0,0.0,0.0,0.0,0.0,0.0,0.0,0.0,0.0,0.0,0.0,0.0,0.0,0.0,0.0,0.0,0.0,0.0,0.0,0.0,-1.1526,-1.1816,-1.2386,-1.3273,-1.169,-1.0813,-1.0746,-0.9072,-0.7996,0.0,0.0,0.0,0.0,0.0,0.0,0.0,0.0,0.0,0.0,0.0,0.0,0.0,0.0,0.0,0.0,0.0,0.0,0.0,0.0,0.0,0.0,0.0,0.0,0.0,0.0,0.0,0.0,0.0,0.0,0.0,0.0,0.0,0.0,0.0,0.0,0.0,0.0,0.0,0.0,0.1118,0.111,0.1272,0.0,0.0,0.0,0.0,0.0,0.0,0.081,0.058,0.0,0.0,0.0,0.0,0.0,0.0,0.0,0.0,0.0,0.0,0.0,0.0,0.0,0.0,0.0,0.0,0.0,0.0,0.0,0.0,0.0,0.0,0.0,0.0,0.0,0.0,0.0,0.0,0.0,0.0,0.0,0.0,0.0,0.0,0.0,0.0,0.0,0.0,0.0,0.0,0.0,0.0,0.0,0.0,0.0,0.0,0.0,0.0,0.0,0.0,0.0,0.0,0.0,0.0,0.0,-1.1827,-1.2266,-1.2878,-1.3669,-1.1846,-1.0813,-1.078,-0.8984,-0.7795,0.0,0.0,0.0,0.0,0.0,0.0,0.0,0.0,0.0,0.0,0.0,0.0,0.0,0.0,0.0,0.0,0.0,0.0,0.0,0.0,0.0,0.0,0.0,0.0,0.0,0.0,0.0,0.0,0.0,0.0,0.0,0.0,0.0,0.0,0.0,0.0,0.0,0.0,0.0,0.0,0.0,0.0251,0.0929,0.109,0.0,0.0,0.0,0.0,0.0363,0.0437,0.0,0.0,0.0,0.0,0.0,0.0,0.0,0.0,0.0,0.0,0.0,0.0,0.0,0.0,0.0,0.0,0.0,0.0,0.0,0.0,0.0,0.0,0.0,0.0,0.0,0.0,0.0,0.0,0.0,0.0,0.0,0.0,0.0,0.0,0.0,0.0,0.0,0.0,0.0,0.0,0.0,0.0,0.0,0.0,0.0,0.0,0.0,0.0,0.0,0.0,0.0,0.0,0.0,0.0,0.0,0.0,-1.2176,-1.2695,-1.3217,-1.3658,-1.1821,-1.0813,-1.0788,-0.9195,-0.7905,0.0,0.0,0.0,0.0,0.0,0.0,0.0,0.0,0.0,0.0,0.0,0.0,0.0,0.0,0.0,0.0,0.0,0.0,0.0,0.0,0.0,0.0,0.0,0.0,0.0,0.0,0.0,0.0,0.0,0.0,0.0,0.0,0.0,0.0,0.0,0.0,0.0,0.0,0.0,0.0,0.0,0.0033,0.0134,0.0589,0.0917,0.0,0.0,-0.0118,-0.0122,-0.0348,0.0,0.0,0.0,0.0,0.0,0.0,0.0,0.0,0.0,0.0,0.0,0.0,0.0,0.0,0.0,0.0,0.0,0.0,0.0,0.0,0.0,0.0,0.0,0.0,0.0,0.0,0.0,0.0,0.0,0.0,0.0,0.0,0.0,0.0,0.0,0.0,0.0,0.0,0.0,0.0,0.0,0.0,0.0,0.0,0.0,0.0,0.0,0.0,0.0,0.0,0.0,0.0,0.0,0.0,0.0,-1.1075,-1.2766,-1.3277,-1.3773,-1.4204,-1.2009,-1.0813,-1.0788,-0.89,-0.7472,0.0,0.0,0.0,0.0,0.0,0.0,0.0,0.0,0.0,0.0,0.0,0.0,0.0,0.0,0.0,0.0,0.0,0.0,0.0,0.0,0.0,0.0,0.0,0.0,0.0,0.0,0.0,0.0,0.0,0.0,0.0,0.0,0.0,0.0,0.0,0.0,0.0,0.0,0.0,0.0,0.0,0.0,0.0,0.0403,0.0,0.0,0.0,-0.0423,-0.0767,0.0,0.0,0.0,0.0,0.0,0.0,0.0,0.0,0.0,0.0,0.0,0.0,0.0,0.0,0.0,0.0,0.0,0.0,0.0,0.0,0.0,0.0,0.0,0.0,0.0,0.0,0.0,0.0,0.0,0.0,0.0,0.0,0.0,0.0,0.0,0.0,0.0,0.0,0.0,0.0,0.0,0.0,0.0,0.0,0.0,0.0,0.0,0.0,0.0,0.0,0.0,0.0,0.0,0.0,0.0,0.0,0.0,-1.3181,-1.3938,-1.4428,-1.4641,-1.2497,-1.1157,-1.0771,-0.8885,0.0,0.0,0.0,0.0,0.0,0.0,0.0,0.0,0.0,0.0,0.0,0.0,0.0,0.0,0.0,0.0,0.0,0.0,0.0,0.0,0.0,0.0,0.0,0.0,0.0,0.0,0.0,0.0812,0.0,0.0,0.0,0.0,0.0,0.0,0.0,0.0,0.0,0.0,0.0,0.0,0.0,0.0,-0.0163,-0.0017,0.0256,0.0016,0.0,0.0,-0.1031,-0.1411,-0.1469,-0.1361,0.0,0.0,0.0,0.0,0.0,0.0,0.0,0.0,0.0,0.0,0.0,0.0,0.0,0.0,0.0,0.0,0.0,0.0,0.0,0.0,0.0,0.0,0.0,0.0,0.0,0.0,0.0,0.0,0.0,0.0,0.0,0.0,0.0,0.0,0.0,0.0,0.0,0.0,0.0,0.0,0.0,0.0,0.0,0.0,0.0,0.0,0.0,0.0,0.0,0.0,0.0,0.0,0.0,0.0,0.0,-1.3206,-1.4711,-1.5207,-1.4698,-1.3372,-1.2058,-1.083,-0.9501,-0.7831,0.0,0.0,0.0,0.0,0.0,0.0,0.0,0.0,0.0,0.0,0.0,0.0,0.0,0.0,0.0,0.0,0.0,0.0,0.0,0.0,0.0,0.0,0.0,0.0,0.0,0.0,0.0,0.0,0.0,0.0,0.0,0.0,0.0,0.0,0.0,0.0,0.0,0.0,0.0,0.0,0.0,-0.0636,-0.0085,0.0017,-0.0284,0.0,-0.2001,-0.2415,-0.2028,-0.1956,-0.1911,-0.1739,0.0,0.0,0.0,0.0,0.0,0.0,0.0,0.0,0.0,0.0,0.0,0.0,0.0,0.0,0.0,0.0,0.0,0.0,0.0,0.0,0.0,0.0,0.0,0.0,0.0,0.0,0.0,0.0,0.0,0.0,0.0,0.0,0.0,0.0,0.0,0.0,0.0,0.0,0.0,0.0,0.0,0.0,0.0,0.0,0.0,0.0,0.0,0.0,0.0,0.0,0.0,0.0,0.0,-1.2128,-1.321,-1.4788,-1.5298,-1.4664,-1.3453,-1.2361,-1.1433,-0.9795,-0.8221,0.0,0.0,0.0,0.0,0.0,0.0,0.0,0.0,0.0,0.0,0.0,0.0,0.0,0.0,0.0,0.0,0.0,0.0,0.0,0.0,0.0,0.0,0.0,0.0,0.0,0.0,0.0,0.0,0.0233,0.0123,0.0145,0.0,0.0,0.0,0.0,0.0,0.0,0.0,0.0,0.0,0.0,-0.1274,-0.1142,-0.1106,0.0,0.0,-0.334,-0.3796,-0.3104,-0.3068,-0.2941,-0.2434,-0.1772,0.0,0.0,0.0,0.0,0.0,0.0,0.0,0.0,0.0,0.0,0.0,0.0,0.0,0.0,0.0,0.0,0.0,0.0,0.0,0.0,0.0,0.0,0.0,0.0,0.0,0.0,0.0,0.0,0.0,0.0,0.0,0.0,0.0,0.0,0.0,0.0,0.0,0.0,0.0,0.0,0.0,0.0,0.0,0.0,0.0,0.0,0.0,0.0,0.0,0.0,0.0,0.0,-1.2454,-1.3692,-1.5135,-1.5649,-1.5211,-1.4012,-1.2966,-1.2107,-1.0306,-0.8761,0.0,0.0,0.0,0.0,0.0,0.0,0.0,0.0,0.0,0.0,0.0,0.0,0.0,0.0,0.0,0.0,0.0,0.0,0.0,0.0,0.0,0.0,0.0,0.0,0.0,0.0,0.0,0.0,-0.0092,-0.0257,-0.0217,0.0,0.0,0.0,0.0,0.0,0.0,0.0,0.0,0.0,0.0,-0.2282,-0.1866,-0.2116,-0.2564,-0.3155,-0.3863,-0.4145,-0.35,-0.3628,-0.3582,-0.2908,0.0,0.0,0.0,0.0,0.0,0.0,0.0,0.0,0.0,0.0,0.0,0.0,0.0,0.0,0.0,0.0,0.0,0.0,0.0,0.0,0.0,0.0,0.0,0.0,0.0,0.0,0.0,-1.371,0.0,0.0,-1.2691,0.0,0.0,0.0,0.0,0.0,0.0,0.0,0.0,0.0,0.0,0.0,0.0,0.0,0.0,0.0,0.0,0.0,0.0,0.0,0.0,0.0,0.0,-1.3199,-1.4833,-1.5923,-1.6431,-1.6313,-1.5269,-1.4063,-1.2788,-1.1217,-0.958,-0.7836,0.0,0.0,0.0,0.0,0.0,0.0,0.0,0.0,0.0,0.0,0.0,0.0,0.0,0.0,0.0,0.0,0.0,0.0,0.0,0.0,0.0,0.0,0.0,0.0,0.0,0.0,-0.0381,-0.0686,-0.0838,0.0,0.0,0.0,0.0,0.0,0.0,0.0,0.0,0.0,-0.2418,-0.3518,-0.3714,-0.2099,-0.2828,-0.3558,-0.3605,-0.3375,-0.313,-0.3013,-0.3458,-0.365,0.0,0.0,0.0,0.0,0.0,0.0,0.0,0.0,0.0,0.0,0.0,0.0,0.0,0.0,0.0,0.0,0.0,0.0,0.0,0.0,0.0,0.0,0.0,0.0,0.0,0.0,0.0,-1.8042,-1.6428,0.0,0.0,0.0,0.0,0.0,0.0,0.0,0.0,0.0,0.0,0.0,-1.8903,-1.9574,0.0,0.0,0.0,0.0,0.0,0.0,0.0,0.0,0.0,0.0,0.0,0.0,-1.3446,-1.489,-1.6346,-1.688,-1.6407,-1.6032,-1.507,-1.3487,-1.2317,-1.0401,-0.7767,0.0,0.0,0.0,0.0,0.0,0.0,0.0,0.0,0.0,0.0,0.0,0.0,0.0,0.0,0.0,0.0,0.0,0.0,0.0,0.0,0.0,0.0,0.0,0.0,0.0,-0.0798,0.0,0.0,0.0,0.0,0.0,0.0,0.0,0.0,0.0,0.0,0.0,-0.3742,-0.4155,-0.4313,-0.4333,-0.4157,-0.3824,-0.3862,0.0,0.0,0.0,0.0,0.0,0.0,0.0,0.0,0.0,0.0,0.0,0.0,0.0,0.0,-0.5689,-0.3855,-0.3324,-0.3194,-0.3288,0.0,0.0,0.0,0.0,0.0,0.0,0.0,0.0,0.0,0.0,0.0,0.0,0.0,0.0,-2.0991,-1.9746,-1.9283,0.0,0.0,0.0,0.0,0.0,0.0,0.0,0.0,-2.1036,-2.1739,-2.1754,-2.2413,-2.2347,0.0,-2.0393,-1.8303,0.0,0.0,0.0,0.0,0.0,0.0,0.0,0.0,-1.4535,-1.6017,-1.7122,-1.7467,-1.7034,-1.6596,-1.5765,-1.4468,-1.3047,-1.1007,-0.8282,-0.6948,-0.6056,0.0,0.0,0.0,0.0,0.0,0.0,0.0,0.0,0.0,0.0,0.0,0.0,0.0,0.0,0.0,0.0,0.0,0.0,0.0,0.0,0.0,0.0,0.0,-0.1567,0.0,0.0,0.0,0.0,0.0,0.0,0.0,0.0,0.0,-0.3654,-0.422,-0.4832,-0.5321,-0.5339,-0.5457,-0.5834,0.0,0.0,0.0,0.0,0.0,0.0,0.0,-0.5875,-0.5817,-0.5553,-0.5471,-0.5821,-0.4707,-0.5031,-0.8974,0.0,0.0,-0.6244,-0.5428,-0.5261,-0.5309,-0.5881,-0.65,-0.699,-0.7659,-0.788,0.0,0.0,0.0,0.0,0.0,0.0,0.0,0.0,-2.4193,-2.3879,0.0,-2.2488,0.0,0.0,0.0,0.0,-1.9046,-2.149,0.0,0.0,-2.4717,-2.4971,-2.3834,-2.4395,-2.4335,-2.3714,-2.3595,-2.2572,-2.0654,-1.7258,0.0,0.0,0.0,0.0,0.0,0.0,-1.6461,-1.8156,-1.8262,-1.8253,-1.8228,-1.7106,-1.618,-1.5555,-1.3446,-1.1404,-0.9507,-0.8569,-0.7531,-0.6248,-0.5327,0.0,0.0,0.0,0.0,0.0,0.0,0.0,0.0,0.0,0.0,0.0,0.0,0.0,0.0,0.0,0.0,0.0,0.0,0.0,0.0,-0.2481,0.0,0.0,0.0,0.0,0.0,0.0,0.0,0.0,0.0,0.0,-0.4585,-0.511,-0.5661,-0.5947,0.0,0.0,0.0,0.0,-0.7006,-0.7096,-0.8688,-0.888,-0.6113,-0.6896,-0.7527,-0.6676,0.0,0.0,-0.7113,-0.6386,-0.6972,-1.0261,-1.1888,-1.1898,-0.8799,-0.7541,-0.7034,-0.7151,-0.831,-0.9501,-1.0164,-1.0864,-1.1416,-3.1505,0.0,0.0,0.0,0.0,-2.7949,-2.8786,-3.018,-2.9507,-2.8457,-2.7141,-2.6782,0.0,0.0,0.0,0.0,0.0,0.0,-2.4582,-2.5533,-2.6542,-2.6836,-2.6462,-2.6656,-2.6393,-2.5704,-2.4769,-2.4022,-2.3424,-2.1511,-1.8822,-1.5431,0.0,0.0,0.0,0.0,-1.7979,-1.9447,-1.9512,-1.9488,-1.9488,-1.8298,-1.7016,-1.5634,-1.3435,-1.2034,-1.1455,-0.9848,-0.8688,-0.8109,-0.6585,0.0,0.0,0.0,0.0,0.0,0.0,0.0,0.0,0.0,0.0,0.0,0.0,0.0,0.0,0.0,0.0,0.0,0.0,0.0,-0.3094,-0.3022,-0.3131,0.0,0.0,0.0,0.0,0.0,0.0,0.0,0.0,0.0,-0.7945,-0.7311,-0.6983,0.0,0.0,-0.6993,-0.6993,-0.6993,-0.7482,-0.8868,-0.9532,0.0,-0.8768,-0.8606,-0.8663,-0.8855,-0.9274,-0.9288,-0.8418,-0.8872,-0.9979,-1.196,-1.2618,-1.2425,-1.1089,-1.0157,-0.9674,-0.9759,-1.0425,-1.1226,-1.1912,-1.2649,-1.3246,-3.598,-3.3014,-3.1717,-3.1314,-3.1538,-3.1553,-3.2213,-3.326,-3.2587,-3.1644,-3.0537,-3.0253,-2.8517,-2.5758,-2.4979,0.0,0.0,0.0,-2.6767,-2.7784,-2.8214,-2.8393,-2.8393,-2.8393,-2.8049,-2.735,-2.6303,-2.5636,-2.539,-2.4343,-2.2194,-1.8959,0.0,0.0,-1.7954,-1.8636,-1.9578,-2.0668,-2.0699,-2.0563,-2.0348,-1.8963,-1.7488,-1.5954,-1.4418,-1.3426,-1.2999,-1.1226,-1.0092,-0.9736,-0.7949,-0.6601,0.0,0.0,0.0,0.0,0.0,0.0,0.0,0.0,0.0,0.0,0.0,-0.1875,-0.1567,0.0,0.0,0.0,-0.3761,-0.4284,-0.4434,-0.4386,0.0,0.0,0.0,0.0,0.0,0.0,0.0,-1.1031,-1.008,-0.9263,-0.9478,-0.9065,-0.8745,-0.8738,-0.8125,-0.7777,-0.8105,0.0,-0.9764,-1.0941,-1.1106,-1.0856,-1.0212,-1.0088,-1.0105,-1.0238,-1.0415,-1.0359,-0.9795,-1.0295,-1.1275,-1.2495,-1.2915,-1.2774,-1.232,-1.1891,-1.1625,-1.1607,-1.2098,-1.2816,-1.3729,-1.4368,-1.4903,-3.986,-3.9686,-3.5645,-3.431,-3.4823,-3.4775,-3.4728,-3.4698,-3.4008,-3.3709,-3.3604,-3.2961,-3.1928,-3.0552,-2.8813,0.0,-2.8004,-2.8667,-2.9295,-2.9831,-2.9846,-2.9744,-2.9654,-2.9654,-2.9352,-2.8652,-2.8004,-2.736,-2.6737,-2.6033,-2.5061,-2.3804,-2.1989,-2.1002,-2.0863,-2.0843,-2.1189,-2.1838,-2.1805,-2.149,-2.09,-1.9292,-1.7832,-1.658,-1.5964,-1.5178,-1.4177,-1.2647,-1.1596,-1.1095,-0.9377,-0.7782,-0.6469,0.0,0.0,0.0,0.0,0.0,0.0,0.0,0.0,0.0,0.0,0.0,0.0,0.0,0.0,0.0,-0.5782,0.0,-0.6222,-0.6323,0.0,0.0,0.0,-0.6661,-0.5012,-0.75,-1.0255,-1.2646,0.0,0.0,-0.9813,-1.0458,-1.0773,-1.0297,-0.9486,-0.9232,-0.9933,-1.1583,-1.2915,-1.2774,-1.2871,-1.231,-1.1005,-1.1332,-1.1567,-1.0998,-1.0914,-1.0981,-1.0788,-1.0973,-1.1534,-1.2676,-1.2915,-1.2929,-1.2978,-1.292,-1.2973,-1.3014,-1.3464,-1.4202,-1.5297,-1.599,-1.6412,-4.0268,-4.0188,-3.8642,-3.7888,-3.7643,-3.6987,-3.6716,-3.6656,-3.6043,-3.5489,-3.4981,-3.4322,-3.3275,-3.1974,-3.1539,-3.133,-3.1375,-3.2033,-3.2138,-3.1824,-3.1824,-3.127,-3.0313,-3.0283,-2.9953,-2.9325,-2.8667,-2.8278,-2.8068,-2.6916,-2.6198,-2.5839,-2.4926,-2.3699,-2.2263,-2.2235,-2.2539,-2.314,-2.2698,-2.1948,-2.0913,-2.0042,-1.9048,-1.7878,-1.679,-1.5709,-1.4674,-1.3488,-1.2597,-1.2068,-1.0714,-0.9641,-0.8951,-0.7429,0.0,0.0,0.0,0.0,0.0,0.0,0.0,0.0,0.0,-0.4571,-0.4064,0.0,-0.6343,0.0,-0.7901,-0.8538,-0.8967,-0.8236,0.0,0.0,-0.8445,-0.836,-0.8569,-0.9771,-1.118,-1.271,-1.2502,-1.22,-1.212,-1.2277,-1.2344,-1.2206,-1.1628,-1.123,-1.1271,-1.2142,-1.2915,-1.2915,-1.2915,-1.2769,-1.2362,-1.2468,-1.2369,-1.169,-1.199,-1.2024,-1.099,-1.1717,-1.2544,-1.2832,-1.2915,-1.3089,-1.3505,-1.3566,-1.3946,-1.4653,-1.4721,-1.4824,-1.5981,-1.668,-1.7196,-4.1469,-4.1452,-4.0341,-3.9733,-3.9541,-3.8689,-3.8138,-3.7823,-3.7479,-3.6956,-3.6327,-3.5654,-3.4801,-3.3813,-3.3529,-3.323,-3.2991,-3.332,-3.329,-3.2946,-3.2662,-3.2123,-3.139,-3.1106,-3.0627,-2.9983,-2.9609,-2.9146,-2.8577,-2.7844,-2.7335,-2.7046,-2.6363,-2.551,-2.4433,-2.3834,-2.3714,-2.4022,-2.3415,-2.2642,-2.1713,-2.0843,-1.9843,-1.8676,-1.745,-1.6284,-1.5222,-1.4173,-1.3357,-1.2793,-1.1697,-1.0784,-1.0125,-0.9018,-0.8077,0.0,0.0,0.0,0.0,0.0,0.0,0.0,0.0,0.0,0.0,0.0,-0.898,-0.947,-1.0035,-1.0462,-1.0653,-1.0017,-0.9712,-1.0046,-1.0048,-1.0092,-1.0303,-1.1206,-1.2124,-1.2822,-1.2915,-1.2915,-1.2915,-1.2915,-1.2915,-1.2905,-1.2621,-1.2367,-1.224,-1.2635,-1.2915,-1.2915,-1.2915,-1.2915,-1.2915,-1.2915,-1.2749,-1.2427,-1.2632,-1.2618,-1.19,-1.2363,-1.3075,-1.3563,-1.3705,-1.3789,-1.412,-1.419,-1.4526,-1.5241,-1.5343,-1.5477,-1.6265,-1.7079,-1.7767,-4.272,-4.2647,-4.1075,-4.0434,-4.0466,-3.9702,-3.908,-3.8512,-3.8422,-3.8018,-3.7375,-3.6836,-3.6252,-3.5609,-3.5043,-3.4414,-3.3769,-3.3739,-3.3709,-3.3574,-3.3036,-3.2677,-3.2452,-3.1899,-3.1271,-3.0657,-3.0552,-2.9939,-2.8861,-2.8682,-2.8319,-2.772,-2.7036,-2.6731,-2.6647,-2.5472,-2.4769,-2.4605,-2.3954,-2.3355,-2.2815,-2.1715,-2.0549,-1.936,-1.8222,-1.7049,-1.5848,-1.49,-1.4111,-1.3526,-1.267,-1.1825,-1.1016,-1.0692,-1.036,0.0,-0.9661,0.0,0.0,0.0,0.0,0.0,0.0,0.0,0.0,-1.129,-1.1929,-1.1957,-1.2257,-1.2356,-1.2047,-1.185,-1.159,-1.1265,-1.1706,-1.1814,-1.1216,-1.2157,-1.2915,-1.2915,-1.2915,-1.2915,-1.2915,-1.2915,-1.2905,-1.3031,-1.3035,-1.302,-1.3035,-1.2983,-1.2915,-1.2915,-1.2915,-1.2915,-1.2915,-1.2915,-1.2881,-1.2881,-1.2992,-1.2978,-1.2847,-1.3041,-1.3515,-1.4617,-1.4926,-1.4903,-1.4835,-1.4869,-1.5096,-1.5654,-1.5884,-1.6167,-1.6697,-1.7435,-1.8092,-4.2176,-4.1622,-4.0755,-4.0117,-3.9646,-3.9481,-3.9313,-3.9185,-3.8631,-3.8018,-3.7404,-3.7285,-3.6896,-3.6312,-3.6178,-3.5759,-3.513,-3.5115,-3.4816,-3.4324,-3.4189,-3.3544,-3.2527,-3.2363,-3.1959,-3.1301,-3.0776,-3.0387,-3.0118,-2.9101,-2.8532,-2.8382,-2.775,-2.742,-2.7375,0.0,0.0,0.0,-2.3954,-2.353,-2.3406,-2.2724,-2.1779,-2.0599,-1.9801,0.0,-1.6487,-1.6147,-1.5595,-1.4662,-1.4429,0.0,0.0,0.0,0.0,0.0,0.0,0.0,0.0,0.0,0.0,0.0,-1.3631,-1.3185,-1.1818,-1.3236,-1.4268,-1.4274,-1.4653,-1.49,-1.4817,-1.435,-1.3839,-1.3335,-1.3474,-1.3365,-1.2632,-1.2749,-1.2915,-1.2915,-1.2915,-1.2905,-1.2954,-1.2915,-1.3113,-1.3552,-1.3637,-1.3708,-1.3849,-1.3358,-1.2954,-1.2915,-1.3002,-1.2929,-1.2915,-1.2954,-1.3027,-1.2954,-1.3334,-1.342,-1.3128,-1.3742,-1.4744,-1.5888,-1.6163,-1.5976,-1.5533,-1.5762,-1.6102,-1.6303,-1.7008,-1.7659,-1.7773,-1.7947,-1.8361,-4.2462,-4.1841,-4.116,-4.0502,0.0,-3.9559,-3.9388,-3.9343,-3.905,-3.8706,-3.8342,-3.8048,-3.7704,-3.7389,-3.6761,-3.6312,-3.5983,-3.5654,-3.531,-3.4981,-3.4668,-3.3963,-3.2991,-3.2662,-3.2138,-3.1511,-3.1152,-3.0808,-3.0462,-2.9549,-2.8921,-2.8592,-2.7919,-2.7585,-2.757,-2.6916,-2.5944,-2.4619,-2.3939,-2.3595,-2.3558,-2.3016,-2.214,-2.0949,-2.0244,0.0,0.0,0.0,0.0,0.0,0.0,0.0,0.0,0.0,0.0,-1.3888,-1.3684,-1.3685,-1.3941,-1.413,-1.444,-1.4945,-1.5416,-1.5289,-1.4293,-1.5132,-1.568,-1.5693,-1.5908,-1.592,-1.5632,-1.532,-1.4903,-1.4329,-1.4167,-1.3779,-1.3079,-1.3238,-1.3563,-1.3776,-1.38,-1.38,-1.38,-1.38,-1.3884,-1.4177,-1.4236,-1.4352,-1.456,-1.4177,-1.38,-1.3776,-1.38,-1.38,-1.38,-1.3789,-1.3776,-1.3836,-1.4037,-1.4107,-1.3836,-1.4294,-1.5085,-1.6207,-1.6513,-1.638,-1.6182,-1.648,-1.6862,-1.6959,-1.7544,-1.8185,-1.8419,-1.8511,-1.8593,-4.294,-4.2351,-4.1811,-4.11,-4.0367,-3.9828,-3.9493,-3.9388,-3.9388,0.0,0.0,-3.8826,-3.8497,-3.8317,-3.7285,-3.6735,-3.6447,-3.5923,-3.5624,-3.5474,-3.4921,-3.4264,-3.3484,-3.2946,-3.2243,-3.1511,-3.1496,-3.1212,-3.0672,-3.0043,-2.9442,-2.8771,-2.8124,-2.7705,-2.757,-2.6941,-2.6063,-2.4978,-2.4171,-2.3789,-2.3759,-2.3176,-2.2337,-2.1254,-2.0695,-1.9617,-1.8002,-1.7503,-1.6953,-1.6186,-1.5731,-1.5392,-1.5185,-1.5185,-1.5424,-1.5944,-1.5982,-1.6212,-1.6751,-1.6789,-1.6801,-1.6801,-1.6713,-1.66,-1.6513,-1.6513,-1.6513,-1.6513,-1.6513,-1.6281,-1.582,-1.5872,-1.5663,-1.5062,-1.482,-1.4354,-1.3471,-1.4129,-1.4949,-1.521,-1.5061,-1.4832,-1.4797,-1.4685,-1.4755,-1.4846,-1.4846,-1.5017,-1.5344,-1.5073,-1.4686,-1.4606,-1.4548,-1.464,-1.4686,-1.464,-1.4709,-1.4617,-1.4744,-1.4835,-1.4744,-1.488,-1.5399,-1.6293,-1.65,-1.65,-1.6509,-1.6888,-1.7291,-1.7312,-1.7807,-1.838,-1.8784,-1.8987,-1.9006,-4.294,-4.2396,-4.2306,-4.1519,-4.0412,-4.0307,-3.9948,-3.9403,-3.9388,-3.9388,-3.9373,-3.932,-3.8945,-3.8377,-3.8197,-3.7524,-3.654,-3.6387,-3.6043,-3.5504,-3.54,-3.4696,-3.3514,-3.3395,-3.2721,-3.157,-3.1496,-3.1451,-3.1301,-3.0702,-3.0058,-2.943,-2.8771,-2.8169,-2.7585,-2.6956,-2.6522,-2.6288,-2.5083,-2.4455,-2.444,-2.3819,-2.3155,-2.248,-2.2345,-2.1718,-2.0462,-2.0274,-1.9551,-1.8017,-1.7843,-1.7357,-1.6342,-1.6296,-1.6547,-1.7109,-1.7159,-1.7388,-1.7915,-1.7978,-1.7978,-1.794,-1.7526,-1.7061,-1.655,-1.6513,-1.6513,-1.6513,-1.6563,-1.6479,-1.6405,-1.6841,-1.6864,-1.63,-1.671,-1.6416,-1.4773,-1.5951,-1.7082,-1.7469,-1.6326,-1.5433,-1.5424,-1.5049,-1.4994,-1.5343,-1.5477,-1.5666,-1.5998,-1.569,-1.5119,-1.4801,-1.4709,-1.4709,-1.4835,-1.4721,-1.4823,-1.4709,-1.5163,-1.532,-1.4926,-1.5511,-1.6151,-1.6457,-1.6513,-1.6513,-1.6522,-1.6942,-1.725,-1.7353,-1.8027,-1.8708,-1.8874,-1.924,-1.9515,-4.311,-4.2836,-4.2545,-4.2066,-4.1452,-4.0711,-4.0038,-3.9403,-3.9388,-3.9388,-3.9388,-3.9388,-3.9245,-3.8931,-3.8556,-3.8078,-3.7494,-3.6806,-3.636,-3.6028,-3.5669,-3.4981,-3.4084,-3.3664,-3.2991,-3.2049,-3.1675,-3.1496,-3.1436,-3.0836,-3.0193,-2.9577,-2.8588,-2.7914,-2.7585,-2.73,-2.7126,-2.7121,-2.5824,-2.4963,-2.4619,-2.4291,-2.3684,-2.2748,-2.2703,-2.2271,-2.1374,-2.1064,-2.0533,-1.974,-1.9092,-1.8469,-1.7959,-1.7603,-1.7528,-1.7815,-1.7827,-1.794,-1.8191,-1.8204,-1.8204,-1.8191,-1.7978,-1.7727,-1.7451,-1.7162,-1.7099,-1.7388,-1.7415,-1.7415,-1.7415,-1.7677,-1.7722,-1.7405,-1.7864,-1.7817,-1.7146,-1.7545,-1.8228,-1.831,-1.7323,-1.6536,-1.6524,-1.6035,-1.5756,-1.6051,-1.6107,-1.6216,-1.6457,-1.6185,-1.5888,-1.5734,-1.5656,-1.5678,-1.5656,-1.5678,-1.5678,-1.5656,-1.591,-1.5964,-1.5722,-1.6228,-1.6436,-1.6513,-1.6513,-1.6513,-1.6513,-1.693,-1.7229,-1.7374,-1.7887,-1.8477,-1.8836,-1.9317,-1.9672,-4.3305,-4.3245,-4.2791,-4.253,-4.2276,-4.095,-4.0113,-3.9649,-3.9463,-3.9388,-3.9388,-3.9388,-3.9388,-3.9328,-3.8856,-3.8527,-3.8242,-3.721,-3.6611,-3.6432,-3.5804,-3.513,-3.4518,-3.3964,-3.3305,-3.2542,-3.1959,-3.166,-3.1451,-3.0957,-3.0417,-2.9741,-2.8483,-2.7809,-2.7824,-2.7675,-2.7585,-2.7525,-2.6587,-2.5734,-2.5068,-2.4769,-2.4111,-2.3221,-2.2987,-2.2673,-2.2123,-2.1715,-2.1393,-2.1116,-2.0245,-1.9557,-1.9108,-1.8668,-1.8407,-1.8391,-1.8392,-1.8442,-1.8543,-1.8555,-1.8555,-1.8555,-1.8431,-1.8418,-1.8505,-1.8066,-1.7865,-1.8154,-1.8154,-1.8166,-1.8179,-1.8317,-1.8392,-1.8381,-1.8731,-1.8907,-1.892,-1.8957,-1.8957,-1.8845,-1.8154,-1.7576,-1.7498,-1.7074,-1.6704,-1.6704,-1.671,-1.6685,-1.655,-1.6575,-1.6663,-1.6525,-1.6513,-1.6436,-1.6513,-1.6457,-1.6436,-1.6513,-1.6479,-1.6436,-1.6414,-1.6457,-1.6513,-1.6513,-1.6513,-1.6513,-1.6543,-1.6795,-1.7105,-1.7271,-1.7646,-1.8066,-1.8574,-1.9225,-1.9672,-4.3305,-4.329,-4.32,-4.2895,-4.2276,-4.0965,-4.0367,-4.0202,-3.9679,-3.9388,-3.9388,-3.9388,-3.9388,-3.9388,-3.9313,-3.8975,-3.8377,-3.7644,-3.7015,-3.6462,-3.5818,-3.5145,-3.4578,-3.4429,-3.3724,-3.2662,-3.2437,-3.2063,-3.1511,-3.1391,-3.1032,-3.0342,-2.9146,-2.8502,-2.8442,-2.7914,-2.76,-2.7585,-2.748,-2.7091,-2.6378,-2.5217,-2.456,-2.4425,-2.3834,-2.349,-2.334,-2.3372,-2.2875,-2.1917,-2.1672,-2.0828,-1.9382,-1.9041,-1.898,-1.8919,-1.8933,-1.9133,-1.9585,-1.9648,-1.961,-1.961,-1.9171,-1.9108,-1.9522,-1.9158,-1.8632,-1.8392,-1.8242,-1.8279,-1.8242,-1.8632,-1.892,-1.8945,-1.9346,-1.971,-1.9648,-1.9698,-1.971,-1.9698,-1.8731,-1.8105,-1.8066,-1.7639,-1.73,-1.7234,-1.7275,-1.7112,-1.6722,-1.6873,-1.6961,-1.6635,-1.6513,-1.6513,-1.6513,-1.6513,-1.6513,-1.6513,-1.6513,-1.6513,-1.6513,-1.6513,-1.6513,-1.6513,-1.6513,-1.6513,-1.6513,-1.6586,-1.6752,-1.7084,-1.7333,-1.7578,-1.8145,-1.8912,-1.9493,-4.3305,-4.3305,-4.3305,-4.2955,-4.2291,-4.1407,-4.0756,-4.0337,-3.9657,-3.9388,-3.9388,-3.9388,-3.9388,-3.9388,-3.9388,-3.926,-3.8931,-3.7883,-3.7285,-3.6941,-3.5983,-3.534,-3.5085,-3.4683,-3.4009,-3.311,-3.2676,-3.2153,-3.154,-3.1092,-3.0776,-3.0447,-2.9609,-2.8996,-2.8622,-2.8323,-2.7993,-2.76,-2.7585,-2.7465,-2.7136,-2.6273,-2.5382,-2.4642,-2.4335,-2.3999,-2.3655,-2.3595,-2.3352,-2.2884,-2.2187,-2.1434,-2.0679,-1.9937,-1.9506,-1.9472,-1.9484,-1.9572,-1.9786,-1.9798,-1.9798,-1.9798,-1.9623,-1.9585,-1.9761,-1.9597,-1.9371,-1.9208,-1.9158,-1.9145,-1.9158,-1.9359,-1.9484,-1.9484,-1.9685,-1.9798,-1.9798,-1.9798,-1.9798,-1.9748,-1.9133,-1.8669,-1.8594,-1.8216,-1.7765,-1.7561,-1.7662,-1.7626,-1.7137,-1.6961,-1.676,-1.6575,-1.6513,-1.6513,-1.6513,-1.6513,-1.6513,-1.6513,-1.6513,-1.6513,-1.6513,-1.6513,-1.6513,-1.6513,-1.6513,-1.6513,-1.6513,-1.65,-1.6616,-1.6866,-1.7167,-1.7394,-1.7605,-1.823,-1.8669,-4.3305,-4.3305,-4.3305,-4.306,-4.2581,-4.1961,-4.128,-4.0621,-3.9978,-3.9589,-3.9388,-3.9388,-3.9388,-3.9388,-3.9388,-3.9388,-3.9239,-3.8212,-3.7569,-3.7315,-3.6267,-3.5669,-3.5474,-3.5043,-3.4397,-3.3754,-3.311,-3.2333,-3.154,-3.1032,-3.0791,-3.0702,-3.0148,-2.9505,-2.8906,-2.8727,-2.8263,-2.766,-2.7585,-2.7585,-2.7525,-2.7136,-2.6318,-2.5247,-2.4948,-2.4634,-2.4178,-2.3984,-2.3879,-2.3857,-2.2661,-2.1875,-2.1649,-2.0657,-2.0003,-1.9824,-1.9798,-1.9798,-1.9798,-1.9798,-1.9798,-1.9798,-1.9798,-1.9798,-1.9798,-1.9798,-1.9798,-1.9773,-1.9798,-1.9761,-1.9798,-1.9798,-1.9798,-1.9798,-1.9798,-1.9798,-1.9798,-1.9798,-1.9798,-1.9761,-1.9296,-1.9008,-1.8933,-1.8543,-1.8066,-1.7978,-1.8191,-1.8154,-1.7652,-1.7277,-1.7127,-1.6626,-1.6647,-1.6676,-1.655,-1.6513,-1.6513,-1.6513,-1.6513,-1.6513,-1.6513,-1.6513,-1.6513,-1.6513,-1.6513,-1.6513,-1.6513,-1.65,-1.6531,-1.6573,-1.6858,-1.7146,-1.7084,-1.7463,-1.7787,-4.3305,-4.3305,-4.3305,-4.3275,-4.3185,-4.2605,-4.1976,-4.1294,-4.0606,-4.0008,-3.9514,-3.9388,-3.9388,-3.9388,-3.9388,-3.9388,-3.9284,-3.8631,-3.7958,-3.7389,-3.6716,-3.6103,-3.5519,-3.5459,-3.507,-3.4369,-3.3739,-3.2811,-3.1615,-3.1466,-3.1451,-3.1391,-3.0763,-3.0163,-2.9549,-2.8951,-2.8278,-2.775,-2.7615,-2.7585,-2.7585,-2.7555,-2.718,-2.6467,-2.5884,-2.5501,-2.5405,-2.4889,-2.456,-2.4537,-2.3283,-2.2351,-2.1748,-2.1077,-2.0409,-1.9901,-1.9798,-1.9798,-1.9798,-1.9798,-1.9798,-1.9798,-1.9798,-1.9798,-1.9798,-1.9798,-1.9798,-1.9798,-1.9798,-1.9798,-1.9798,-1.9798,-1.9798,-1.9798,-1.9798,-1.9798,-1.9798,-1.9798,-1.9798,-1.9748,-1.9371,-1.9083,-1.9008,-1.8519,-1.8543,-1.8707,-1.8907,-1.8644,-1.8003,-1.8281,-1.803,-1.7165,-1.6961,-1.7137,-1.6651,-1.6513,-1.6513,-1.6513,-1.6513,-1.6513,-1.6513,-1.6513,-1.6513,-1.6513,-1.6513,-1.6513,-1.6513,-1.6522,-1.6552,-1.6616,-1.6731,-1.6866,-1.6972,-1.668,-1.6964,-4.3305,-4.3305,-4.3305,-4.3305,-4.3215,-4.268,-4.2246,-4.1946,-4.0861,-4.0277,-3.9993,-3.9619,-3.9388,-3.9388,-3.9388,-3.9388,-3.9349,-3.8691,-3.8033,-3.7389,-3.6776,-3.6133,-3.5549,-3.5489,-3.5145,-3.4563,-3.4264,-3.3455,-3.2228,-3.172,-3.1496,-3.1481,-3.1271,-3.0808,-3.0178,-2.9549,-2.8933,-2.8289,-2.7839,-2.7585,-2.7585,-2.7585,-2.7465,-2.724,-2.6587,-2.6033,-2.5615,-2.5375,-2.5232,-2.5255,-2.3645,-2.2598,-2.2252,-2.0942,-2.008,-1.9824,-1.9798,-1.9798,-1.9798,-1.9798,-1.9798,-1.9798,-1.9798,-1.9811,-1.9798,-1.9798,-1.9798,-1.9798,-1.9798,-1.9798,-1.9798,-1.9798,-1.9798,-1.9798,-1.9798,-1.9798,-1.9798,-1.9798,-1.9798,-1.9773,-1.961,-1.9396,-1.9133,-1.9108,-1.9171,-1.9058,-1.9284,-1.9108,-1.8593,-1.8619,-1.8581,-1.7978,-1.73,-1.6886,-1.7137,-1.6722,-1.6513,-1.6513,-1.6513,-1.6513,-1.6513,-1.6513,-1.6513,-1.6513,-1.6513,-1.6513,-1.6534,-1.6829,-1.6795,-1.6667,-1.6795,-1.7126,-1.7084,-1.7118,-1.7097,-4.3305,-4.3305,-4.3305,-4.3305,-4.3245,-4.2865,-4.259,-4.2291,-4.1205,-4.0606,-4.0307,-3.9672,-3.9388,-3.9388,-3.9388,-3.9388,-3.9343,-3.8916,-3.8362,-3.7704,-3.7075,-3.6447,-3.5878,-3.5609,-3.5265,-3.4863,-3.4593,-3.3799,-3.2572,-3.2049,-3.1735,-3.1525,-3.1496,-3.1167,-3.0537,-3.0073,-2.949,-2.8682,-2.8154,-2.7839,-2.7645,-2.7585,-2.7585,-2.754,-2.7151,-2.6731,-2.6258,-2.5923,-2.5668,-2.5336,-2.3674,-2.251,-2.2188,-2.1055,-2.0338,-2.0351,-2.0363,-2.0351,-2.0351,-2.0338,-2.0275,-2.01,-2.0075,-2.0024,-1.9849,-1.9798,-1.9798,-1.9798,-1.9798,-1.9798,-1.9798,-1.9798,-1.9798,-1.9798,-1.9798,-1.9798,-1.9798,-1.9798,-1.9798,-1.9798,-1.9786,-1.961,-1.9397,-1.9597,-1.9585,-1.9284,-1.9572,-1.9547,-1.9196,-1.9058,-1.9058,-1.8995,-1.8317,-1.7827,-1.7626,-1.7237,-1.6713,-1.6626,-1.6513,-1.6513,-1.6513,-1.6513,-1.6513,-1.6513,-1.6513,-1.6513,-1.6693,-1.7005,-1.7013,-1.6837,-1.725,-1.7686,-1.7727,-1.7787,-1.7686,-4.3305,-4.3305,-4.3305,-4.3305,-4.329,-4.323,-4.294,-4.241,-4.1722,-4.107,-4.0502,-3.9768,-3.9463,-3.9388,-3.9388,-3.9388,-3.9373,-3.9298,-3.8945,-3.8272,-3.7629,-3.7,-3.6402,-3.5774,-3.5489,-3.5355,-3.4771,-3.3814,-3.2662,-3.2437,-3.2108,-3.16,-3.1496,-3.1212,-3.0537,-3.0432,-2.9864,-2.8996,-2.8682,-2.8319,-2.7705,-2.7675,-2.766,-2.76,-2.754,-2.747,-2.743,-2.6576,-2.5945,-2.5389,-2.359,-2.2172,-2.171,-2.1383,-2.1418,-2.1343,-2.1418,-2.1443,-2.1405,-2.1395,-2.1106,-2.0805,-2.0691,-2.0503,-2.0125,-1.9999,-1.9962,-1.9911,-1.9899,-1.9861,-1.9886,-1.9886,-1.9861,-1.9798,-1.9798,-1.9798,-1.9798,-1.9798,-1.9798,-1.9798,-1.9798,-1.9798,-1.9786,-1.9773,-1.9748,-1.9736,-1.9761,-1.9773,-1.9648,-1.9623,-1.9736,-1.9736,-1.9334,-1.8869,-1.8317,-1.7752,-1.719,-1.6751,-1.66,-1.6513,-1.6513,-1.6513,-1.6513,-1.6513,-1.6513,-1.6513,-1.6586,-1.69,-1.7188,-1.7229,-1.7767,-1.8151,-1.823,-1.8263,-1.8165,-4.3305,-4.3305,-4.3305,-4.3305,-4.3305,-4.3305,-4.317,-4.297,-4.2366,-4.1722,-4.104,-4.0382,-3.9858,-3.9448,-3.9388,-3.9388,-3.9388,-3.9373,-3.905,-3.8392,-3.7734,-3.7105,-3.6477,-3.5818,-3.5489,-3.5385,-3.4801,-3.4069,-3.3275,-3.2751,-3.2153,-3.1615,-3.1511,-3.1406,-3.1152,-3.0746,-3.0238,-2.9939,-2.949,-2.8951,-2.8353,-2.8278,-2.8094,-2.766,-2.7585,-2.7397,-2.6852,-2.6549,-2.6316,-2.61,-2.4218,-2.2602,-2.1736,-2.1481,-2.1481,-2.1481,-2.1481,-2.1481,-2.1493,-2.1506,-2.1468,-2.1295,-2.1257,-2.1167,-2.1004,-2.0928,-2.0752,-2.049,-2.0415,-2.0415,-2.0415,-2.0427,-2.0264,-1.9849,-1.9798,-1.9823,-1.9798,-1.9798,-1.9798,-1.9798,-1.9798,-1.9798,-1.9811,-1.9811,-1.9798,-1.9798,-1.9798,-1.9798,-1.9798,-1.9798,-1.9798,-1.9798,-1.9723,-1.9623,-1.8957,-1.8343,-1.7867,-1.7403,-1.7114,-1.6626,-1.6563,-1.6513,-1.6513,-1.6513,-1.6513,-1.6543,-1.6629,-1.6858,-1.7167,-1.7605,-1.8033,-1.8361,-1.8612,-1.8688,-1.8684,-4.3305,-4.3305,-4.3305,-4.3305,-4.3305,-4.3305,-4.3305,-4.32,-4.2641,-4.2021,-4.1324,-4.0681,-4.0001,-3.9478,-3.9388,-3.9388,-3.9388,-3.9388,-3.9185,-3.8721,-3.8078,-3.7434,-3.6761,-3.5908,-3.5489,-3.5429,-3.507,-3.4517,-3.3858,-3.32,-3.2542,-3.1959,-3.163,-3.1496,-3.1481,-3.1092,-3.0791,-3.0492,-3.0103,-2.9609,-2.9116,-2.8981,-2.8663,-2.8068,-2.7702,-2.719,-2.6539,-2.6014,-2.5687,-2.5453,-2.4123,-2.2901,-2.215,-2.2092,-2.2096,-2.2096,-2.2121,-2.2121,-2.2108,-2.213,-2.1995,-2.1857,-2.1794,-2.1669,-2.1556,-2.1481,-2.1292,-2.1081,-2.0993,-2.1006,-2.1006,-2.1006,-2.0767,-2.0288,-2.0175,-2.0024,-1.9886,-1.9798,-1.9962,-2.0038,-1.9962,-1.9936,-2.0075,-1.9886,-1.9823,-1.9798,-1.9798,-1.9798,-1.9798,-1.9798,-1.9798,-1.9798,-1.9786,-1.9623,-1.9346,-1.8945,-1.8544,-1.8143,-1.7802,-1.7137,-1.6676,-1.6563,-1.6513,-1.6513,-1.6513,-1.6513,-1.6586,-1.6972,-1.7353,-1.7827,-1.8243,-1.8722,-1.9058,-1.9299,-1.9262,-4.3305,-4.3305,-4.3305,-4.3305,-4.3305,-4.3305,-4.3305,-4.32,-4.2731,-4.2117,-4.1482,-4.0831,-4.0142,-3.9604,-3.9448,-3.9388,-3.9388,-3.9388,-3.9373,-3.9185,-3.8691,-3.8033,-3.709,-3.6013,-3.5519,-3.5489,-3.5459,-3.507,-3.4384,-3.3694,-3.3155,-3.2437,-3.1809,-3.1496,-3.1481,-3.1481,-3.1152,-3.0731,-3.0582,-3.0253,-2.9696,-2.9666,-2.9325,-2.8655,-2.7893,-2.7198,-2.643,-2.5146,-2.4292,-2.4176,-2.3551,-2.3072,-2.3045,-2.3095,-2.2982,-2.2945,-2.307,-2.2995,-2.3045,-2.292,-2.2782,-2.238,-2.2334,-2.2159,-2.1832,-2.1807,-2.1719,-2.1556,-2.1531,-2.1543,-2.1543,-2.1543,-2.1368,-2.1039,-2.079,-2.0439,-2.0012,-1.9987,-2.0289,-2.0553,-2.0314,-2.01,-2.0666,-2.03,-2.0075,-1.9924,-1.9936,-1.9949,-1.9798,-1.9798,-1.9798,-1.9798,-1.9798,-1.9736,-1.9535,-1.9384,-1.9033,-1.8932,-1.8543,-1.7928,-1.7027,-1.6763,-1.6513,-1.6513,-1.66,-1.6575,-1.6607,-1.6921,-1.7312,-1.7706,-1.8283,-1.9001,-1.924,-1.9273,-1.9435,-4.3305,-4.3305,-4.3305,-4.3305,-4.3305,-4.3305,-4.3305,-4.3275,-4.3125,-4.2671,-4.2081,-4.1414,-4.0741,-4.0127,-3.9634,-3.9388,-3.9388,-3.9388,-3.9388,-3.9358,-3.9275,-3.8182,-3.6866,-3.5923,-3.5519,-3.5504,-3.5474,-3.5145,-3.4488,-3.3796,-3.3139,-3.2482,-3.1811,-3.1497,-3.1496,-3.1511,-3.1421,-3.1271,-3.1227,-3.0883,-3.0345,-3.0212,-2.9939,-2.9301,-2.8134,-2.7155,-2.6302,-2.449,-2.3424,-2.3424,-2.3245,-2.3095,-2.3095,-2.3095,-2.3095,-2.3095,-2.3095,-2.3095,-2.3095,-2.3095,-2.302,-2.292,-2.2832,-2.2819,-2.2706,-2.2669,-2.2468,-2.2234,-2.2096,-2.2096,-2.2096,-2.2096,-2.1992,-2.1866,-2.1377,-2.0951,-2.0966,-2.1054,-2.1117,-2.1257,-2.1104,-2.1091,-2.1154,-2.1079,-2.0842,-2.0553,-2.0415,-2.0251,-1.9949,-1.9798,-1.9798,-1.9798,-1.9798,-1.9798,-1.9748,-1.9673,-1.9597,-1.9597,-1.9309,-1.8932,-1.7929,-1.7114,-1.6776,-1.6513,-1.6801,-1.6864,-1.6651,-1.6684,-1.711,-1.7791,-1.795,-1.847,-1.8487,-1.8533,-1.904,-4.3305,-4.3305,-4.3305,-4.3305,-4.3305,-4.3305,-4.3305,-4.3305,-4.329,-4.297,-4.241,-4.2021,-4.1265,-4.0397,-4.0008,-3.9627,-3.9418,-3.9388,-3.9388,-3.9241,-3.8582,-3.7715,-3.685,-3.6222,-3.5789,-3.5504,-3.5457,-3.5038,-3.4286,-3.3618,-3.3149,-3.266,-3.1793,-3.1545,-3.1914,-3.1615,-3.1496,-3.1423,-3.1204,-3.0778,-3.0439,-3.0032,-2.9508,-2.8857,-2.778,-2.6756,-2.5399,-2.3897,-2.3095,-2.3108,-2.3095,-2.3095,-2.3095,-2.3095,-2.3095,-2.3095,-2.3095,-2.3095,-2.3095,-2.3095,-2.3095,-2.3095,-2.3095,-2.3095,-2.307,-2.3095,-2.292,-2.2694,-2.2631,-2.2631,-2.2644,-2.2631,-2.2631,-2.2556,-2.2155,-2.1729,-2.1584,-2.1443,-2.1606,-2.1694,-2.1644,-2.1606,-2.1769,-2.1656,-2.1395,-2.1106,-2.084,-2.0426,-1.9974,-1.9874,-1.9798,-1.9798,-1.9798,-1.9798,-1.9798,-1.9748,-1.9723,-1.9761,-1.971,-1.9422,-1.877,-1.7716,-1.7315,-1.7089,-1.714,-1.7152,-1.7064,-1.7131,-1.7692,-1.8079,-1.7948,-1.8126,-1.8424,-1.8351,-1.8803,-4.3305,-4.3305,-4.3305,-4.3305,-4.3305,-4.3305,-4.3305,-4.3305,-4.3305,-4.303,-4.2605,-4.244,-4.1662,-4.0516,-4.0382,-3.9986,-3.9403,-3.9388,-3.9228,-3.8759,-3.7908,-3.7048,-3.6599,-3.5938,-3.5398,-3.496,-3.5133,-3.4595,-3.3768,-3.3169,-3.2906,-3.2491,-3.1572,-3.1447,-3.1598,-3.1456,-3.1367,-3.1131,-3.048,-3.027,-3.0109,-2.9593,-2.894,-2.841,-2.7488,-2.6112,-2.4699,-2.3584,-2.3283,-2.3308,-2.3183,-2.3108,-2.3095,-2.3095,-2.3095,-2.3095,-2.3095,-2.3095,-2.3095,-2.3095,-2.3095,-2.3095,-2.3095,-2.3095,-2.3095,-2.3095,-2.307,-2.3007,-2.3095,-2.3032,-2.3032,-2.307,-2.3032,-2.2995,-2.2995,-2.2581,-2.1958,-2.1656,-2.1857,-2.2284,-2.1945,-2.1983,-2.2083,-2.1995,-2.1685,-2.1606,-2.1368,-2.0991,-2.0413,-2.0037,-1.9911,-1.9798,-1.9798,-1.9798,-1.9798,-1.9798,-1.9786,-1.9786,-1.9786,-1.961,-1.9397,-1.8643,-1.8141,-1.7928,-1.8216,-1.8154,-1.7842,-1.8082,-1.8369,-1.8372,-1.8229,-1.8745,-1.9262,-1.8813,-1.8914,-4.3305,-4.3305,-4.3305,-4.3305,-4.3305,-4.3305,-4.3305,-4.3305,-4.3305,-4.3185,-4.3015,-4.2635,-4.1961,-4.113,-4.0651,-4.0053,-3.9448,-3.9301,-3.898,-3.8078,-3.7878,-3.6461,-3.5331,-3.4458,-3.3825,-3.3452,-3.3255,-3.3101,-3.2772,-3.2326,-3.193,-3.1819,-3.1215,-3.0615,-3.0502,-3.0528,-3.0299,-3.0369,-2.9735,-2.9628,-2.9919,-2.9317,-2.8743,-2.8461,-2.7461,-2.618,-2.4887,-2.4117,-2.4042,-2.4111,-2.3659,-2.3233,-2.3183,-2.3158,-2.3133,-2.3095,-2.3095,-2.3095,-2.3095,-2.3095,-2.3095,-2.3095,-2.3095,-2.3095,-2.3095,-2.3095,-2.3095,-2.3095,-2.3095,-2.3095,-2.3095,-2.3095,-2.3095,-2.3095,-2.3095,-2.3007,-2.2782,-2.2706,-2.2732,-2.2794,-2.2769,-2.2782,-2.2882,-2.2782,-2.2498,-2.2196,-2.1895,-2.1606,-2.1104,-2.0514,-2.0162,-2.0062,-1.9798,-1.9798,-1.9798,-1.9798,-1.9798,-1.9798,-1.9798,-1.9786,-1.956,-1.9472,-1.8945,-1.902,-1.9397,-1.9145,-1.8618,-1.838,-1.8535,-1.8507,-1.8541,-1.8855,-1.9084,-1.8898,-1.8944,-4.3305,-4.3305,-4.3305,-4.3305,-4.3305,-4.3305,-4.3305,-4.3305,-4.3305,-4.3305,-4.323,-4.294,-4.2297,-4.1437,-4.0995,-4.0367,-3.9429,-3.8819,-3.8345,-3.7639,-3.6877,-3.5466,-3.4182,-3.307,-3.2404,-3.2494,-3.2629,-3.2415,-3.196,-3.1591,-3.1456,-3.1375,-3.0729,-3.065,-3.0464,-3.0086,-2.9956,-2.9795,-2.8967,-2.8652,-2.8876,-2.8279,-2.7835,-2.7683,-2.6837,-2.585,-2.5204,-2.4669,-2.4582,-2.4575,-2.4224,-2.376,-2.3534,-2.3527,-2.3396,-2.3145,-2.3095,-2.3095,-2.3095,-2.3095,-2.3095,-2.312,-2.3108,-2.3095,-2.3095,-2.3095,-2.3095,-2.3095,-2.3095,-2.3095,-2.3095,-2.3095,-2.3095,-2.3095,-2.3095,-2.3095,-2.3095,-2.3095,-2.3095,-2.3095,-2.3045,-2.3045,-2.3095,-2.3095,-2.3045,-2.2606,-2.2606,-2.2355,-2.2406,-2.1782,-2.079,-2.0401,-1.9987,-1.9798,-1.9798,-1.9798,-1.9798,-1.9798,-1.9798,-1.9798,-1.971,-1.9723,-1.971,-1.9761,-1.9736,-1.966,-1.9221,-1.8995,-1.8869,-1.9107,-1.9182,-1.9007,-1.9044,-1.9291,-1.938,-4.3305,-4.3305,-4.3305,-4.3305,-4.3305,-4.3305,-4.3305,-4.3305,-4.3305,-4.3305,-4.3305,-4.3305,-4.2551,-4.1594,-4.1407,-4.0569,-3.9151,-3.8017,-3.7381,-3.6855,-3.5655,-3.4498,-3.3378,-3.2441,-3.1863,-3.2277,-3.2015,-3.1586,-3.1143,-3.0957,-3.0865,-3.0852,-3.0451,-3.0299,-3.067,-3.0242,-2.9557,-2.9391,-2.8352,-2.7808,-2.7762,-2.7129,-2.6748,-2.6591,-2.6278,-2.5946,-2.5636,-2.5272,-2.4996,-2.5013,-2.4983,-2.4695,-2.4381,-2.4104,-2.3879,-2.3308,-2.3308,-2.3233,-2.317,-2.3208,-2.3296,-2.3233,-2.3384,-2.3409,-2.3446,-2.3384,-2.3333,-2.3246,-2.3208,-2.3095,-2.3095,-2.3095,-2.3095,-2.3095,-2.3095,-2.3095,-2.3095,-2.3095,-2.3095,-2.3095,-2.3095,-2.3095,-2.3095,-2.3095,-2.3095,-2.3095,-2.3095,-2.3095,-2.3095,-2.2907,-2.1882,-2.1167,-2.084,-2.0514,-2.0464,-2.015,-2.0112,-2.0087,-2.0024,-1.9911,-1.9874,-1.9798,-1.9798,-1.9798,-1.9761,-1.9698,-1.9673,-1.9497,-1.9522,-1.9786,-1.971,-1.9447,-1.9535,-1.9761,-1.9736,-4.3305,-4.3305,-4.3305,-4.3305,-4.3305,-4.3305,-4.3305,-4.3305,-4.3305,-4.3305,-4.3305,-4.3275,-4.2611,-4.1654,-4.1422,-4.018,-3.8376,-3.706,-3.6107,-3.5534,-3.4678,-3.3949,-3.2788,-3.2288,-3.1709,-3.0926,-3.0701,-3.042,-3.0177,-3.0037,-3.0203,-3.005,-2.9948,-2.9909,-2.9612,-2.9105,-2.9028,-2.8858,-2.7933,-2.7511,-2.7465,-2.6964,-2.6487,-2.6487,-2.6311,-2.6285,-2.6185,-2.5799,-2.5686,-2.6122,-2.5711,-2.546,-2.5234,-2.4921,-2.4469,-2.396,-2.3822,-2.3715,-2.3396,-2.3609,-2.3803,-2.3954,-2.4148,-2.4412,-2.4349,-2.4104,-2.3853,-2.3678,-2.3384,-2.3133,-2.3108,-2.3158,-2.3133,-2.312,-2.3183,-2.3208,-2.3195,-2.3283,-2.3296,-2.3358,-2.3258,-2.3095,-2.3095,-2.3095,-2.3095,-2.3095,-2.3095,-2.3095,-2.3095,-2.3095,-2.2769,-2.2259,-2.187,-2.1543,-2.1307,-2.0855,-2.0603,-2.0616,-2.0503,-2.0175,-2.0075,-1.9861,-1.9811,-2.01,-1.9987,-1.9761,-1.9773,-1.9798,-1.9798,-1.9798,-1.9798,-1.9824,-1.985,-1.9875,-1.9875,-4.3305,-4.3305,-4.3305,-4.3305,-4.3305,-4.3305,-4.3305,-4.3305,-4.3305,-4.3305,-4.3305,-4.3245,-4.2572,-4.1654,-4.1422,-4.0081,-3.7935,-3.6081,-3.521,-3.4664,-3.4124,-3.3555,-3.2621,-3.2378,-3.1763,-3.11,-3.0495,-3.0043,-2.9804,-2.983,-2.9779,-2.9779,-2.9779,-2.9628,-2.9352,-2.9101,-2.8872,-2.8541,-2.7855,-2.7366,-2.7439,-2.6835,-2.6533,-2.6487,-2.6487,-2.6487,-2.6436,-2.6285,-2.6197,-2.6373,-2.6223,-2.6109,-2.5984,-2.5737,-2.5285,-2.4619,-2.4431,-2.4299,-2.4023,-2.4274,-2.4406,-2.4443,-2.4675,-2.4763,-2.4782,-2.4556,-2.4318,-2.4004,-2.3828,-2.3421,-2.3158,-2.3384,-2.3521,-2.3559,-2.3622,-2.376,-2.3923,-2.4098,-2.4073,-2.386,-2.3459,-2.3258,-2.3095,-2.3095,-2.3095,-2.3095,-2.3095,-2.3095,-2.3095,-2.3095,-2.3095,-2.2757,-2.2284,-2.1907,-2.1656,-2.1433,-2.1131,-2.1119,-2.1031,-2.0702,-2.0401,-2.025,-2.0464,-2.0803,-2.0514,-2.0238,-1.9811,-1.9811,-1.9811,-1.9875,-2.0093,-2.022,-2.0016,-1.994,-1.9991,-4.3305,-4.3305,-4.3305,-4.3305,-4.3305,-4.3305,-4.3305,-4.3305,-4.3305,-4.3305,-4.3305,-4.323,-4.2611,-4.1435,-4.0429,-3.9135,-3.7281,-3.5346,-3.44,-3.415,-3.3598,-3.3111,-3.2973,-3.2616,-3.2114,-3.1574,-3.1009,-3.0432,-2.988,-2.9779,-2.9779,-2.9779,-2.9779,-2.9779,-2.9654,-2.9365,-2.9126,-2.8599,-2.8009,-2.7467,-2.709,-2.6738,-2.6487,-2.6487,-2.6487,-2.6487,-2.6487,-2.6436,-2.6424,-2.6474,-2.6461,-2.6461,-2.6474,-2.6487,-2.6072,-2.5322,-2.5071,-2.4913,-2.4788,-2.4901,-2.4971,-2.4971,-2.5109,-2.5172,-2.5146,-2.5109,-2.4757,-2.4305,-2.4142,-2.4029,-2.3747,-2.3916,-2.4104,-2.4205,-2.4299,-2.4499,-2.4662,-2.4883,-2.5129,-2.4682,-2.3904,-2.3496,-2.3434,-2.3095,-2.3095,-2.3095,-2.3095,-2.3095,-2.3095,-2.3095,-2.3045,-2.2844,-2.2481,-2.2108,-2.1907,-2.1895,-2.1694,-2.1656,-2.1568,-2.1355,-2.1004,-2.0675,-2.1091,-2.1543,-2.1468,-2.1139,-2.0514,-1.9861,-1.9811,-1.9978,-2.0446,-2.0459,-2.0067,-2.0118,-2.0308,-4.3305,-4.3305,-4.3305,-4.3305,-4.3305,-4.3305,-4.3305,-4.3305,-4.325,-4.3305,-4.3305,-4.3111,-4.2401,-4.0858,-3.8157,-3.6892,-3.5855,-3.4511,-3.3484,-3.3428,-3.324,-3.3124,-3.3124,-3.3043,-3.2541,-3.1989,-3.1486,-3.0733,-3.0068,-2.9842,-2.9779,-2.9779,-2.9779,-2.9779,-2.9767,-2.9641,-2.9428,-2.8888,-2.8323,-2.7582,-2.6876,-2.665,-2.6612,-2.6587,-2.6549,-2.6562,-2.6575,-2.6549,-2.6487,-2.6487,-2.6487,-2.6487,-2.6487,-2.6487,-2.6474,-2.6185,-2.5812,-2.5322,-2.5051,-2.5297,-2.5511,-2.5632,-2.5908,-2.6223,-2.6059,-2.5686,-2.5285,-2.4763,-2.472,-2.4619,-2.4437,-2.4632,-2.4675,-2.4833,-2.5008,-2.5021,-2.5109,-2.5435,-2.5707,-2.5544,-2.4757,-2.423,-2.3941,-2.3459,-2.3095,-2.3095,-2.3095,-2.3095,-2.3095,-2.3095,-2.3095,-2.2932,-2.2807,-2.2431,-2.2318,-2.2309,-2.2246,-2.2209,-2.2121,-2.2008,-2.1782,-2.1566,-2.1917,-2.2272,-2.2192,-2.1841,-2.1104,-2.0489,-2.0024,-2.0067,-2.05,-2.0334,-1.9927,-2.0182,-2.0535,-4.3305,-4.3305,-4.3305,-4.3305,-4.3305,-4.3305,-4.3305,-4.3155,-4.2629,-4.2725,-4.29,-4.1823,-4.0664,-3.931,-3.7044,-3.5908,-3.5116,-3.3797,-3.3124,-3.3124,-3.3124,-3.3124,-3.3124,-3.3086,-3.2767,-3.2252,-3.165,-3.1035,-3.0382,-2.9967,-2.9779,-2.9792,-2.9779,-2.9779,-2.9779,-2.9779,-2.9654,-2.9327,-2.8837,-2.8185,-2.7607,-2.7394,-2.7381,-2.7344,-2.7102,-2.6964,-2.6876,-2.6625,-2.6512,-2.6487,-2.6487,-2.6487,-2.6487,-2.6487,-2.6487,-2.6461,-2.6273,-2.6021,-2.585,-2.5996,-2.6047,-2.6122,-2.6336,-2.6424,-2.6436,-2.6248,-2.5824,-2.531,-2.5272,-2.5159,-2.4976,-2.5109,-2.5159,-2.531,-2.5644,-2.5757,-2.5757,-2.5908,-2.6097,-2.5896,-2.5644,-2.4996,-2.433,-2.3659,-2.3233,-2.3095,-2.3095,-2.3095,-2.3095,-2.3095,-2.3095,-2.307,-2.2982,-2.2832,-2.2819,-2.2807,-2.2732,-2.2694,-2.2706,-2.2606,-2.2598,-2.2594,-2.2706,-2.2782,-2.2732,-2.2284,-2.1619,-2.1031,-2.0426,-2.0449,-2.0553,-2.0335,-2.0143,-2.0321,-2.0535,-4.3305,-4.3305,-4.3305,-4.3305,-4.3305,-4.3305,-4.3305,-4.317,-4.2467,-4.2563,-4.2486,-4.1049,-3.941,-3.8186,-3.678,-3.5359,-3.4705,-3.3598,-3.321,-3.3124,-3.3124,-3.3124,-3.3124,-3.3074,-3.2855,-3.2403,-3.1938,-3.1474,-3.1047,-3.0545,-3.0168,-2.9829,-2.9779,-2.9779,-2.9779,-2.9767,-2.9679,-2.939,-2.9026,-2.8537,-2.8122,-2.8034,-2.8047,-2.7908,-2.7632,-2.7329,-2.7241,-2.6788,-2.6499,-2.6487,-2.6487,-2.6487,-2.6487,-2.6487,-2.6487,-2.6487,-2.6399,-2.6399,-2.6348,-2.6399,-2.6487,-2.6487,-2.6487,-2.6487,-2.6487,-2.6474,-2.6373,-2.5837,-2.5824,-2.5598,-2.5423,-2.5649,-2.5711,-2.5908,-2.6122,-2.6336,-2.6474,-2.6373,-2.6298,-2.616,-2.5883,-2.5473,-2.477,-2.3898,-2.3421,-2.317,-2.3095,-2.3095,-2.3095,-2.3095,-2.3095,-2.3095,-2.307,-2.3007,-2.3032,-2.3083,-2.3095,-2.3095,-2.3095,-2.3058,-2.2907,-2.2907,-2.2957,-2.3058,-2.3095,-2.2844,-2.2309,-2.1556,-2.088,-2.0956,-2.0937,-2.063,-2.0515,-2.0601,-2.0446,-4.3305,-4.3305,-4.3305,-4.3305,-4.3305,-4.3305,-4.3305,-4.3305,-4.3155,-4.2996,-4.2617,-4.0964,-3.9762,-3.8736,-3.643,-3.4922,-3.4581,-3.3543,-3.3197,-3.3124,-3.3124,-3.3124,-3.3124,-3.3111,-3.3061,-3.2867,-3.2315,-3.2039,-3.1901,-3.126,-3.062,-2.9955,-2.998,-2.9854,-2.9779,-2.9779,-2.9578,-2.9327,-2.9051,-2.8812,-2.8423,-2.8273,-2.826,-2.8109,-2.767,-2.7316,-2.7316,-2.6939,-2.6625,-2.6625,-2.6612,-2.6512,-2.6512,-2.6487,-2.6487,-2.6487,-2.6487,-2.6487,-2.6487,-2.6487,-2.6487,-2.6487,-2.6487,-2.6487,-2.6487,-2.6487,-2.6424,-2.6348,-2.626,-2.6285,-2.6273,-2.6399,-2.626,-2.6285,-2.6336,-2.6399,-2.6487,-2.6487,-2.6411,-2.6348,-2.6122,-2.5737,-2.536,-2.4569,-2.3797,-2.3509,-2.312,-2.3095,-2.3095,-2.3095,-2.3095,-2.3095,-2.3095,-2.3083,-2.3083,-2.3095,-2.3095,-2.3095,-2.3095,-2.3095,-2.3058,-2.3095,-2.3095,-2.3095,-2.3095,-2.3058,-2.2945,-2.2205,-2.1672,-2.1521,-2.1339,-2.0971,-2.0538,-2.0348,-2.0182,-4.3305,-4.3305,-4.3305,-4.3305,-4.3305,-4.3305,-4.3305,-4.317,-4.2563,-4.1823,-4.1266,-4.049,-3.9359,-3.7648,-3.6286,-3.4575,-3.3793,-3.3356,-3.3167,-3.3124,-3.3124,-3.3124,-3.3124,-3.3124,-3.3111,-3.2955,-3.2516,-3.2202,-3.2114,-3.1763,-3.1323,-3.0796,-3.0482,-3.0068,-2.993,-2.9804,-2.9628,-2.9541,-2.9428,-2.9302,-2.9239,-2.9151,-2.9151,-2.9101,-2.8586,-2.8323,-2.8247,-2.7758,-2.7392,-2.709,-2.7014,-2.6851,-2.6625,-2.6575,-2.6537,-2.6524,-2.6524,-2.6487,-2.6487,-2.6487,-2.6487,-2.6487,-2.6487,-2.6487,-2.6487,-2.6487,-2.6487,-2.6474,-2.6487,-2.6487,-2.6474,-2.6474,-2.6449,-2.6474,-2.6487,-2.6487,-2.6487,-2.6487,-2.6474,-2.6411,-2.6285,-2.6038,-2.5661,-2.5247,-2.4519,-2.3879,-2.3434,-2.3095,-2.3095,-2.3095,-2.3095,-2.3095,-2.3095,-2.3095,-2.3095,-2.3095,-2.3095,-2.3095,-2.3095,-2.3095,-2.3095,-2.3095,-2.3095,-2.3095,-2.3095,-2.307,-2.2957,-2.2719,-2.2426,-2.2106,-2.1683,-2.123,-2.0772,-2.0251,-2.0012,-4.3305,-4.325,-4.2941,-4.2996,-4.329,-4.3305,-4.3305,-4.3155,-4.2508,-4.1462,-4.0405,-4.0194,-3.8825,-3.677,-3.537,-3.4384,-3.3427,-3.3124,-3.3124,-3.3124,-3.3124,-3.3124,-3.3124,-3.3124,-3.3111,-3.2968,-3.2754,-3.2503,-3.2516,-3.2089,-3.1813,-3.1574,-3.1273,-3.0796,-3.0143,-2.9854,-2.9792,-2.9779,-2.9779,-2.9779,-2.9754,-2.9741,-2.9729,-2.9616,-2.9114,-2.88,-2.8612,-2.8247,-2.7858,-2.7632,-2.7494,-2.7331,-2.709,-2.6864,-2.6763,-2.67,-2.66,-2.6512,-2.6499,-2.6487,-2.6487,-2.6487,-2.6487,-2.6487,-2.6487,-2.6499,-2.6487,-2.6487,-2.6487,-2.6512,-2.6524,-2.6487,-2.6487,-2.6487,-2.6487,-2.6487,-2.6487,-2.6487,-2.6487,-2.6461,-2.6361,-2.6273,-2.6034,-2.5598,-2.4858,-2.4117,-2.3434,-2.3145,-2.3095,-2.3095,-2.3095,-2.3095,-2.3095,-2.3095,-2.3095,-2.3095,-2.3095,-2.3095,-2.3095,-2.3095,-2.3095,-2.3095,-2.3095,-2.3095,-2.3095,-2.3095,-2.302,-2.2869,-2.2744,-2.2581,-2.2137,-2.1665,-2.0909,-2.0402,-2.01,-4.3305,-4.317,-4.2152,-4.229,-4.313,-4.3305,-4.3195,-4.3101,-4.2981,-4.2386,-4.1181,-3.9887,-3.8176,-3.6435,-3.4984,-3.3889,-3.3298,-3.3124,-3.3124,-3.3124,-3.3124,-3.3124,-3.3124,-3.3124,-3.3124,-3.3124,-3.2998,-3.2948,-3.298,-3.2847,-3.2566,-3.2277,-3.1951,-3.1449,-3.062,-3.0055,-2.9817,-2.9779,-2.9779,-2.9779,-2.9779,-2.9779,-2.9779,-2.9666,-2.9352,-2.9063,-2.8988,-2.8699,-2.836,-2.8147,-2.8097,-2.7971,-2.7808,-2.7444,-2.7329,-2.7291,-2.6864,-2.6637,-2.6562,-2.6537,-2.6587,-2.6562,-2.6562,-2.665,-2.6575,-2.6575,-2.6713,-2.6901,-2.6763,-2.6675,-2.6587,-2.6549,-2.66,-2.6675,-2.6725,-2.6487,-2.6487,-2.6487,-2.6487,-2.6487,-2.6487,-2.6449,-2.6273,-2.59,-2.5159,-2.4381,-2.3559,-2.3246,-2.3271,-2.3396,-2.3509,-2.3384,-2.3384,-2.3183,-2.3183,-2.312,-2.3095,-2.3095,-2.3095,-2.3095,-2.3095,-2.3095,-2.3095,-2.3095,-2.3095,-2.3095,-2.3095,-2.307,-2.2945,-2.2807,-2.2569,-2.2099,-2.127,-2.0704,-2.0526,-4.3305,-4.321,-4.207,-4.1809,-4.2152,-4.2152,-4.2152,-4.2167,-4.2152,-4.1932,-4.121,-3.9392,-3.7765,-3.6345,-3.5129,-3.3985,-3.3219,-3.3124,-3.3124,-3.3124,-3.3124,-3.3124,-3.3124,-3.3124,-3.3124,-3.3124,-3.3124,-3.3124,-3.3099,-3.3124,-3.3074,-3.2767,-3.2353,-3.1612,-3.0859,-3.0357,-3.0206,-2.9854,-2.9779,-2.9779,-2.9779,-2.9779,-2.9779,-2.9779,-2.9553,-2.9453,-2.9428,-2.9139,-2.8963,-2.8712,-2.8662,-2.8524,-2.8285,-2.7896,-2.7846,-2.7821,-2.7544,-2.757,-2.7557,-2.7507,-2.719,-2.6914,-2.6851,-2.7027,-2.7052,-2.7381,-2.7494,-2.7494,-2.7394,-2.7419,-2.7582,-2.7228,-2.7178,-2.7331,-2.7231,-2.6675,-2.6487,-2.6487,-2.6487,-2.6487,-2.6487,-2.6487,-2.6386,-2.6285,-2.5669,-2.5222,-2.4556,-2.401,-2.391,-2.4136,-2.4318,-2.3985,-2.3797,-2.3484,-2.3296,-2.3296,-2.317,-2.3095,-2.3095,-2.3095,-2.3095,-2.3095,-2.3095,-2.3095,-2.3095,-2.3095,-2.3095,-2.3095,-2.3095,-2.2982,-2.2769,-2.2535,-2.1882,-2.1455,-2.129,-4.2345,-4.2508,-4.1028,-4.0632,-4.0958,-4.0986,-4.1211,-4.1601,-4.1947,-4.1823,-4.0774,-3.9319,-3.7709,-3.6358,-3.5295,-3.4354,-3.3432,-3.337,-3.3187,-3.3174,-3.3124,-3.3124,-3.3124,-3.3124,-3.3124,-3.3124,-3.3124,-3.3124,-3.3124,-3.3124,-3.3099,-3.2943,-3.2679,-3.2102,-3.1373,-3.0884,-3.0444,-3.0118,-2.9993,-2.9779,-2.9779,-2.9779,-2.9779,-2.9779,-2.9754,-2.9754,-2.9767,-2.9729,-2.9628,-2.9315,-2.9151,-2.9051,-2.8737,-2.8499,-2.8436,-2.8386,-2.8172,-2.8122,-2.8034,-2.8034,-2.762,-2.7243,-2.7419,-2.7544,-2.7607,-2.7821,-2.7959,-2.8034,-2.816,-2.8147,-2.8072,-2.7657,-2.772,-2.7896,-2.7532,-2.6989,-2.665,-2.6663,-2.6537,-2.6524,-2.6499,-2.6499,-2.6487,-2.6436,-2.6197,-2.5908,-2.5619,-2.5084,-2.455,-2.4695,-2.4833,-2.4582,-2.4236,-2.3923,-2.3684,-2.3559,-2.3396,-2.3145,-2.3133,-2.3183,-2.3095,-2.3095,-2.3095,-2.3095,-2.3095,-2.3095,-2.3095,-2.3095,-2.3095,-2.3095,-2.3032,-2.2732,-2.241,-2.2117,-2.1866,-4.0575,-4.1112,-3.9054,-3.8872,-3.9724,-3.9842,-4.0447,-4.1545,-4.2508,-4.1699,-3.9798,-3.9579,-3.7917,-3.5889,-3.5458,-3.4856,-3.4098,-3.3947,-3.3608,-3.335,-3.3257,-3.3224,-3.3149,-3.3124,-3.3124,-3.3124,-3.3124,-3.3124,-3.3124,-3.3124,-3.3124,-3.3124,-3.3023,-3.2566,-3.2001,-3.1399,-3.0884,-3.0595,-3.0206,-3.003,-2.9993,-2.9842,-2.9804,-2.9779,-2.9779,-2.9779,-2.9779,-2.9754,-2.9754,-2.9691,-2.9704,-2.9729,-2.9566,-2.9201,-2.9026,-2.88,-2.8486,-2.8411,-2.8386,-2.8423,-2.8373,-2.8172,-2.821,-2.8197,-2.8197,-2.8323,-2.8511,-2.8511,-2.8524,-2.8398,-2.8247,-2.8222,-2.8197,-2.8059,-2.7832,-2.7404,-2.7027,-2.6839,-2.6663,-2.6575,-2.6524,-2.6512,-2.6487,-2.6461,-2.6436,-2.6323,-2.6047,-2.5808,-2.531,-2.4971,-2.5071,-2.5008,-2.4695,-2.4393,-2.4192,-2.4042,-2.3753,-2.354,-2.3346,-2.3333,-2.3221,-2.3095,-2.3095,-2.3095,-2.3095,-2.3095,-2.3095,-2.3095,-2.3095,-2.3095,-2.3095,-2.297,-2.2619,-2.2443,-2.2155,-4.0059,-4.0189,-3.8725,-3.8289,-3.8604,-3.8604,-3.9302,-4.0275,-3.9944,-3.9067,-3.8604,-3.7723,-3.6913,-3.552,-3.5483,-3.5044,-3.468,-3.4412,-3.411,-3.3822,-3.3508,-3.3357,-3.325,-3.3124,-3.3124,-3.3124,-3.3124,-3.3124,-3.3124,-3.3124,-3.3124,-3.3124,-3.3124,-3.296,-3.2604,-3.2102,-3.1625,-3.1148,-3.0683,-3.0444,-3.0244,-3.0055,-2.9942,-2.9867,-2.9804,-2.9792,-2.9779,-2.9779,-2.9779,-2.9779,-2.9779,-2.9779,-2.9741,-2.9616,-2.9541,-2.9541,-2.939,-2.934,-2.9302,-2.9289,-2.9227,-2.9164,-2.9202,-2.9013,-2.8925,-2.8963,-2.9164,-2.9076,-2.9051,-2.9001,-2.8913,-2.8863,-2.8888,-2.8775,-2.8473,-2.8096,-2.7706,-2.7366,-2.7165,-2.6901,-2.6839,-2.6499,-2.6487,-2.6487,-2.6461,-2.6487,-2.6399,-2.621,-2.6021,-2.5669,-2.5448,-2.541,-2.5372,-2.5146,-2.4782,-2.4582,-2.423,-2.3929,-2.3728,-2.3434,-2.3208,-2.3095,-2.3095,-2.3095,-2.3095,-2.3095,-2.3095,-2.3095,-2.3095,-2.3095,-2.3095,-2.3007,-2.2895,-2.2719,-2.2631,-3.9197,-3.9006,-3.7893,-3.7402,-3.7415,-3.7415,-3.7906,-3.8437,-3.8693,-3.8604,-3.8017,-3.7448,-3.6612,-3.599,-3.5868,-3.5579,-3.5019,-3.4693,-3.4374,-3.3909,-3.3759,-3.337,-3.3187,-3.3124,-3.3124,-3.3124,-3.3124,-3.3124,-3.3124,-3.3124,-3.3124,-3.3124,-3.3124,-3.3124,-3.2973,-3.2667,-3.2428,-3.1913,-3.1436,-3.1035,-3.0721,-3.0419,-3.0206,-3.008,-2.9967,-2.9817,-2.9804,-2.9804,-2.9779,-2.9779,-2.9779,-2.9779,-2.9779,-2.9779,-2.9767,-2.9741,-2.9716,-2.9679,-2.9654,-2.9691,-2.9754,-2.9779,-2.9779,-2.9591,-2.949,-2.9478,-2.9591,-2.9628,-2.9691,-2.9716,-2.9616,-2.9553,-2.9628,-2.9691,-2.9264,-2.8825,-2.8448,-2.8033,-2.7706,-2.7392,-2.704,-2.6637,-2.6487,-2.6499,-2.6487,-2.6487,-2.6487,-2.6424,-2.6336,-2.621,-2.6059,-2.6009,-2.6059,-2.6009,-2.5561,-2.5059,-2.4695,-2.4305,-2.3941,-2.3665,-2.3283,-2.3095,-2.3095,-2.3095,-2.3095,-2.3095,-2.3095,-2.3095,-2.3095,-2.3095,-2.3095,-2.3058,-2.3032,-2.2982,-2.2957,-3.8062,-3.7893,-3.6849,-3.6499,-3.6417,-3.6499,-3.6487,-3.664,-3.8496,-3.8975,-3.7971,-3.7893,-3.7171,-3.6373,-3.6267,-3.6006,-3.5617,-3.5253,-3.4738,-3.3985,-3.3771,-3.3445,-3.3199,-3.3124,-3.3124,-3.3124,-3.3124,-3.3124,-3.3124,-3.3124,-3.3124,-3.3124,-3.3124,-3.3124,-3.3086,-3.3048,-3.2885,-3.2654,-3.2102,-3.1625,-3.1336,-3.1009,-3.0658,-3.0583,-3.0256,-2.9892,-2.988,-2.9842,-2.9779,-2.9779,-2.9779,-2.9779,-2.9779,-2.9779,-2.9779,-2.9779,-2.9779,-2.9779,-2.9779,-2.9779,-2.9779,-2.9779,-2.9779,-2.9741,-2.9716,-2.9704,-2.9767,-2.9779,-2.9779,-2.9779,-2.9704,-2.9666,-2.9741,-2.9767,-2.9528,-2.9252,-2.9013,-2.8549,-2.8059,-2.7706,-2.7165,-2.6801,-2.6713,-2.6725,-2.6487,-2.6487,-2.6487,-2.6487,-2.6487,-2.6487,-2.6449,-2.6386,-2.6373,-2.6311,-2.6059,-2.5548,-2.5134,-2.4732,-2.4318,-2.3891,-2.3577,-2.3308,-2.3095,-2.3095,-2.3095,-2.3095,-2.3095,-2.3095,-2.3095,-2.3095,-2.3095,-2.3095,-2.3095,-2.3095,-2.3412,-3.7586,-3.6803,-3.6487,-3.6417,-3.6417,-3.6417,-3.6417,-3.6465,-3.693,-3.7163,-3.6849,-3.6803,-3.6709,-3.6452,-3.6417,-3.6267,-3.6094,-3.573,-3.5328,-3.47,-3.4198,-3.3558,-3.3194,-3.3124,-3.3124,-3.3124,-3.3124,-3.3124,-3.3124,-3.3124,-3.3124,-3.3124,-3.3124,-3.3124,-3.3124,-3.3124,-3.3111,-3.3086,-3.2822,-3.2277,-3.1976,-3.1549,-3.1185,-3.1047,-3.0733,-3.0444,-3.0319,-3.0043,-2.9892,-2.9779,-2.9779,-2.9779,-2.9779,-2.9792,-2.9779,-2.9779,-2.9779,-2.9779,-2.9779,-2.9779,-2.9779,-2.9779,-2.9779,-2.9779,-2.9779,-2.9779,-2.9779,-2.9779,-2.9779,-2.9779,-2.9779,-2.9779,-2.9779,-2.9779,-2.9779,-2.9666,-2.9541,-2.9013,-2.8448,-2.7921,-2.7379,-2.714,-2.704,-2.6839,-2.6575,-2.6487,-2.6487,-2.6487,-2.6487,-2.6487,-2.6487,-2.6449,-2.6449,-2.6386,-2.6223,-2.6047,-2.5632,-2.5197,-2.4795,-2.433,-2.3816,-2.3421,-2.3095,-2.3095,-2.3095,-2.3095,-2.3095,-2.3095,-2.3095,-2.3095,-2.3095,-2.3095,-2.3095,-2.3095,-2.3623,-3.8211,-3.7163,-3.6568,-3.6417,-3.6417,-3.6417,-3.6417,-3.6417,-3.6417,-3.6417,-3.6417,-3.6417,-3.6417,-3.6417,-3.6417,-3.6417,-3.6367,-3.6069,-3.5403,-3.4864,-3.4424,-3.3771,-3.3426,-3.3124,-3.3124,-3.3124,-3.3124,-3.3124,-3.3124,-3.3124,-3.3124,-3.3124,-3.3124,-3.3124,-3.3124,-3.3124,-3.3124,-3.3124,-3.3124,-3.288,-3.2516,-3.2102,-3.1775,-3.1612,-3.1311,-3.1035,-3.0884,-3.0633,-3.0583,-3.0394,-3.0331,-3.0206,-3.0118,-2.9942,-2.9804,-2.9779,-2.9779,-2.9779,-2.9792,-2.9779,-2.9779,-2.9779,-2.9779,-2.9779,-2.9779,-2.9779,-2.9779,-2.9779,-2.9779,-2.9779,-2.9779,-2.9779,-2.9779,-2.9779,-2.9779,-2.9729,-2.9528,-2.9176,-2.88,-2.8499,-2.7946,-2.7482,-2.7379,-2.7153,-2.6864,-2.6499,-2.6499,-2.6487,-2.6487,-2.6487,-2.6487,-2.6487,-2.6487,-2.6487,-2.6399,-2.6273,-2.6084,-2.5661,-2.5209,-2.4349,-2.3634,-2.3333,-2.3095,-2.3095,-2.3095,-2.3095,-2.3095,-2.3095,-2.3095,-2.3095,-2.3095,-2.3095,-2.3095,-2.3095,-2.3412,-3.905,-3.7802,-3.6803,-3.6417,-3.6417,-3.6417,-3.6417,-3.6417,-3.6417,-3.6417,-3.6417,-3.6417,-3.6417,-3.6417,-3.6417,-3.6417,-3.6329,-3.6081,-3.5429,-3.4763,-3.4324,-3.3759,-3.3357,-3.3124,-3.3124,-3.3124,-3.3124,-3.3124,-3.3124,-3.3124,-3.3124,-3.3124,-3.3124,-3.3124,-3.3124,-3.3124,-3.3124,-3.3124,-3.3124,-3.3124,-3.2855,-3.2616,-3.2403,-3.2139,-3.1825,-3.1537,-3.1486,-3.1399,-3.1399,-3.1198,-3.0896,-3.0783,-3.0633,-3.0419,-3.0143,-3.008,-3.003,-2.9942,-2.9817,-2.9779,-2.9779,-2.9779,-2.9792,-2.9804,-2.9804,-2.9792,-2.9792,-2.9779,-2.9779,-2.9779,-2.9779,-2.9779,-2.9779,-2.9779,-2.9779,-2.9779,-2.9553,-2.9365,-2.9176,-2.8938,-2.8536,-2.8021,-2.777,-2.7519,-2.7115,-2.6738,-2.6524,-2.6499,-2.6487,-2.6487,-2.6487,-2.6487,-2.6487,-2.6487,-2.6487,-2.6424,-2.6298,-2.5887,-2.5335,-2.4311,-2.3521,-2.3258,-2.3095,-2.3095,-2.3095,-2.3095,-2.3095,-2.3095,-2.3095,-2.3095,-2.3095,-2.3095,-2.3095,-2.3095,-2.3095,-3.8662,-3.6722,-3.6499,-3.6417,-3.6417,-3.6417,-3.6417,-3.6417,-3.6417,-3.6417,-3.6417,-3.6417,-3.6417,-3.6417,-3.6417,-3.6417,-3.638,-3.6132,-3.5516,-3.4776,-3.465,-3.396,-3.3357,-3.3174,-3.3136,-3.3124,-3.3124,-3.3124,-3.3124,-3.3124,-3.3124,-3.3124,-3.3124,-3.3124,-3.3124,-3.3124,-3.3124,-3.3124,-3.3124,-3.3124,-3.3124,-3.2943,-3.2955,-3.2692,-3.2365,-3.2152,-3.1964,-3.1612,-3.1449,-3.1336,-3.1323,-3.126,-3.116,-3.1009,-3.0758,-3.0507,-3.0457,-3.0294,-3.0168,-3.0068,-3.008,-3.003,-3.0018,-2.9905,-2.988,-2.9817,-2.9817,-2.9792,-2.9779,-2.9779,-2.9779,-2.9779,-2.9779,-2.9779,-2.9779,-2.9779,-2.9679,-2.9628,-2.9566,-2.9352,-2.9051,-2.8737,-2.8511,-2.8072,-2.7406,-2.7077,-2.6751,-2.6688,-2.6499,-2.6487,-2.6487,-2.6487,-2.6487,-2.6487,-2.6487,-2.6487,-2.6348,-2.6009,-2.5448,-2.4437,-2.3684,-2.3233,-2.3095,-2.3095,-2.3095,-2.3095,-2.3095,-2.3095,-2.3095,-2.3095,-2.3095,-2.3095,-2.3095,-2.3095,-2.3095]},{"header":{"parameterUnit":"m.s-1","parameterCategory":1,"la1":31.0,"la2":29.5877,"lo1":-88.7671,"lo2":-86.6584,"dy":0.0162,"dx":0.0185,"nx":115,"ny":88,"refTime":"2026-05-16T00:00:00:Z","depth":0,"parameterNumber":3,"parameterNumberName":"V-component_of_WINDS"},"data":[0.0,0.0,0.0,0.0,0.0,0.0,0.0,0.0,0.0,0.0,0.0,0.0,0.0,0.0,0.0,0.0,0.0,0.0,0.0,0.0,0.0,0.0,0.0,0.0,0.0,0.0,0.0,0.0,0.0,0.0,0.0,0.0,0.0,0.0,0.0,0.0,0.0,0.0,0.0,0.0,0.0,0.0,0.0,0.0,0.0,0.0,0.0,0.0,0.0,0.0,0.0,0.0,0.0,0.0,0.0,0.0,0.0,0.0,0.0,0.0,0.0,0.0,0.0,0.0,0.0,0.0,0.0,0.0,0.0,0.0,0.0,0.0,0.0,0.0,0.0,0.0,0.0,0.0,0.0,0.0,0.0,0.0,0.0,0.0,0.0,0.0,0.0,0.0,0.0,0.0,0.0,0.0,0.0,0.0,0.0,0.0,0.0,0.0,0.0,0.0,0.0,0.0,0.0,0.0,0.0,0.0,0.0,0.0,0.0,0.0,0.0,0.0,0.0,0.0,0.0,0.0,0.0,0.0,0.0,0.0,0.0,0.0,0.0,0.0,0.0,0.0,0.0,0.0,0.0,0.0,0.0,0.0,0.0,0.0,0.0,0.0,0.0,0.0,0.0,0.0,0.0,0.0,0.0,0.0,0.0,0.0,0.0,0.0,0.0,0.0,0.0,0.0,0.0,0.0,0.0,0.0,0.0,0.0,0.0,0.0,0.0,0.0,0.0,0.0,0.0,0.0,0.0,0.0,0.0,0.0,0.0,0.0,0.0,0.0,0.0,0.0,0.0,0.0,0.0,0.0,0.0,0.0,0.0,0.0,0.0,0.0,0.0,0.0,0.0,0.0,0.0,0.0,0.0,0.0,0.0,0.0,0.0,0.0,0.0,0.0,0.0,0.0,0.0,0.0,0.0,0.0,0.0,0.0,0.0,0.0,0.0,0.0,0.0,0.0,0.0,0.0,0.0,0.0,0.0,0.0,0.0,0.0,0.0,0.0,0.0,0.0,0.0,0.0,0.0,0.0,0.0,0.0,0.0,0.0,0.0,0.0,0.0,0.0,0.0,0.0,0.0,0.0,0.0,0.0,0.0,0.0,0.0,0.0,0.0,0.0,0.0,0.0,0.0,0.0,0.0,0.0,0.0,0.0,0.0,0.0,0.0,0.0,0.0,0.0,0.0,0.0,0.0,0.0,0.0,0.0,0.0,0.0,0.0,0.0,0.0,0.0,0.0,0.0,0.0,0.0,0.0,0.0,0.0,0.0,0.0,0.0,0.0,0.0,0.0,0.0,0.0,0.0,0.0,0.0,0.0,0.0,0.0,0.0,0.0,0.0,0.0,0.0,0.0,0.0,0.0,0.0,0.0,0.0,0.0,0.0,0.0,0.0,0.0,0.0,0.0,0.0,0.0,0.0,0.0,0.0,0.0,0.0,0.0,0.0,0.0,0.0,0.0,0.0,0.0,0.0,0.0,0.0,0.0,0.0,0.0,0.0,0.0,0.0,0.0,0.0,0.0,0.0,0.0,0.0,0.0,0.0,0.0,0.0,0.0,0.0,0.0,0.0,0.0,0.0,0.0,0.0,0.0,0.0,0.0,0.0,0.0,0.0,0.0,0.0,0.0,0.0,0.0,0.0,0.0,0.0,0.0,0.0,0.0,0.0,0.0,0.0,0.0,0.0,0.0,0.0,0.0,0.0,0.0,0.0,0.0,0.0,0.0,0.0,0.0,0.0,0.0,0.0,0.0,0.0,0.0,0.0,0.0,0.0,0.0,0.0,0.0,0.0,0.0,0.0,0.0,0.0,0.0,0.0,0.0,0.0,0.0,0.0,0.0,0.0,0.0,0.0,0.0,0.0,0.0,0.0,0.0,0.0,0.0,0.0,0.0,0.0,0.0,0.0,0.0,0.0,0.0,0.0,0.0,0.0,0.0,0.0,0.0,0.0,0.0,0.0,0.0,0.0,0.0,0.0,0.0,0.0,0.0,0.0,0.0,0.0,0.0,0.0,0.0,0.0,0.0,0.0,0.0,0.0,0.0,0.0,0.0,0.0,0.0,0.0,0.0,0.0,0.0,0.0,0.0,0.0,0.0,0.0,0.0,0.0,0.0,0.0,0.0,0.0,0.0,0.0,0.0,0.0,0.0,0.0,0.0,0.0,0.0,0.0,0.0,0.0,0.0,0.0,0.0,0.0,0.0,0.0,0.0,0.0,0.0,0.0,0.0,0.0,0.0,0.0,0.0,0.0,0.0,0.0,0.0,0.0,0.0,0.0,0.0,0.0,0.0,0.0,0.0,0.0,0.0,0.0,0.0,0.0,0.0,0.0,0.0,0.0,0.0,0.0,0.0,0.0,0.0,0.0,0.0,0.0,0.0,0.0,0.0,0.0,0.0,0.0,0.0,0.0,0.0,0.0,0.0,0.0,0.0,0.0,0.0,0.0,0.0,0.0,0.0,0.0,0.0,0.0,0.0,0.0,0.0,0.0,0.0,0.0,0.0,0.0,0.0,0.0,0.0,0.0,0.0,0.0,0.0,0.0,0.0,0.0,0.0,0.0,0.0,0.0,0.0,0.0,0.0,0.0,0.0,0.0,0.0,0.0,0.0,0.0,0.0,0.0,0.0,0.0,0.0,0.0,0.0,0.0,0.0,0.0,0.0,0.0,0.0,0.0,0.0,0.0,0.0,0.0,0.0,0.0,0.0,0.0,0.0,0.0,0.0,0.0,0.0,0.0,0.0,0.0,0.0,0.0,0.0,0.0,0.0,0.0,0.0,0.0,0.0,0.0,0.0,0.0,0.0,0.0,0.0,0.0,0.0,0.0,0.0,0.0,0.0,0.0,0.0,0.0,0.0,0.0,0.0,0.0,0.0,0.0,0.0,0.0,0.0,0.0,0.0,0.0,0.0,0.0,0.0,0.0,0.0,0.0,0.0,0.0,0.0,0.0,0.0,0.0,0.0,0.0,0.0,0.0,0.0,0.0,0.0,0.0,0.0,0.0,0.0,0.0,0.0,0.0,0.0,0.0,0.0,0.0,0.0,0.0,0.0,0.0,0.0,0.0,0.0,0.0,0.0,0.0,0.0,0.0,0.0,0.0,0.0,0.0,0.0,0.0,0.0,0.0,0.0,0.0,0.0,0.0,0.0,0.0,0.0,0.0,0.0,0.0,0.0,0.0,0.0,0.0,0.0,0.0,0.0,0.0,0.0,0.0,0.0,0.0,0.0,0.0,0.0,0.0,0.0,0.0,0.0,0.0,0.0,0.0,0.0,0.0,0.0,0.0,0.0,0.0,0.0,0.0,0.0,0.0,0.0,0.0,0.0,0.0,0.0,0.0,0.0,0.0,0.0,0.0,0.0,0.0,0.0,0.0,0.0,0.0,0.0,0.0,0.0,0.0,0.0,0.0,0.0,0.0,0.0,0.0,0.0,0.0,0.0,0.0,0.0,0.0,0.0,0.0,0.0,0.0,0.0,0.0,0.0,0.0,0.0,0.0,0.0,0.0,0.0,0.0,0.0,0.0,0.0,0.0,0.0,0.0,0.0,0.0,0.0,0.0,0.0,0.0,0.0,0.0,0.0,0.0,0.0,0.0,0.0,0.0,0.0,0.0,0.0,0.0,0.0,0.0,0.0,0.0,0.0,0.0,0.0,0.0,0.0,0.0,0.0,0.0,0.0,0.0,0.0,0.0,0.0,0.0,0.0,0.0,0.0,0.0,0.0,0.0,0.0,0.0,0.0,0.0,0.0,0.0,0.0,0.0,0.0,0.0,0.0,0.0,0.0,0.0,0.0,0.0,0.0,0.0,0.0,0.0,0.0,0.0,0.0,0.0,0.0,0.0,0.0,0.0,0.0,0.0,0.0,0.0,0.0,0.0,0.0,0.0,0.0,0.0,0.0,0.0,0.0,0.0,0.0,0.0,0.0,0.0,0.0,0.0,0.0,0.0,0.0,0.0,0.0,0.0,0.0,0.0,0.0,0.0,0.0,0.0,0.0,0.0,0.0,0.0,0.0,0.0,0.0,0.0,0.0,0.0,0.0,0.0,0.0,0.0,0.0,0.0,0.0,0.0,0.0,0.0,0.0,0.0,0.0,0.0,0.0,0.0,0.0,0.0,0.0,0.0,0.0,0.0,0.0,0.0,0.0,0.0,0.0,0.0,0.0,0.0,0.0,0.0,0.0,0.0,0.0,0.0,0.0,0.0,0.0,0.0,0.0,0.0,0.0,0.0,0.0,0.0,0.0,0.0,0.0,0.0,0.0,0.0,0.0,0.0,0.0,0.0,1.2028,0.0,0.0,0.0,0.0,0.0,0.0,0.0,0.0,0.0,0.0,0.0,0.0,0.0,0.0,0.0,0.0,0.0,0.0,0.0,0.0,0.0,0.0,0.0,0.0,0.0,0.0,0.0,0.0,0.0,0.0,0.0,0.0,0.0,0.0,0.0,0.0,0.0,0.0,0.0,0.0,0.0,0.0,0.0,0.0,0.0,0.0,0.0,0.0,0.0,0.0,0.0,0.0,0.0,0.0,0.0,0.0,0.0,0.0,0.0,0.0,0.0,0.0,0.0,0.0,0.0,0.0,0.0,0.0,0.0,0.0,0.0,0.0,0.0,0.0,0.0,0.0,0.0,0.0,0.0,0.0,0.0,0.0,0.0,0.0,0.0,0.0,0.0,0.0,0.0,0.0,0.0,0.0,0.0,0.0,0.0,0.0,0.0,0.0,0.0,0.0,0.0,0.0,0.0,0.0,0.0,0.0,0.0,0.0,0.0,0.0,1.1948,1.1379,1.174,1.2048,1.2262,0.0,0.0,0.0,0.0,0.0,0.0,0.0,0.0,0.0,0.0,0.0,0.0,0.0,0.0,0.0,0.0,0.0,0.0,0.0,0.0,0.0,0.0,0.0,0.0,0.0,0.0,0.0,0.0,0.0,0.0,0.0,0.0,0.0,0.0,0.0,0.0,0.0,0.0,0.0,0.0,0.0,0.0,0.0,0.0,0.0,0.0,0.0,0.0,0.0,0.0,0.0,0.0,0.0,0.0,0.0,0.0,0.0,0.0,0.0,0.0,0.0,0.0,0.0,0.0,0.0,0.0,0.0,0.0,0.0,0.0,0.0,0.0,0.0,0.0,0.0,0.0,0.0,0.0,0.0,0.0,0.0,0.0,0.0,0.0,0.0,0.0,0.0,0.0,0.0,0.0,0.0,0.0,0.0,0.0,0.0,0.0,0.0,0.0,0.0,0.0,0.0,0.0,0.0,0.0,0.0,0.0,0.0,0.0,0.0,0.0,0.0,0.0,1.2736,1.2936,1.2771,0.0,0.0,0.0,0.0,0.0,0.0,0.0,0.0,0.0,0.0,0.0,0.0,0.0,0.0,0.0,0.0,0.0,0.0,0.0,0.0,0.0,0.0,0.0,0.0,0.0,0.0,0.0,0.0,0.0,0.0,0.0,0.0,0.0,0.0,0.0,0.0,0.0,0.0,0.0,0.0,0.0,0.0,0.0,0.0,0.0,0.0,0.0,0.0,0.0,0.0,0.0,0.0,0.0,0.0,0.0,0.0,0.0,0.0,0.0,0.0,0.0,0.0,0.0,0.0,0.0,0.0,0.0,0.0,0.0,0.0,0.0,0.0,0.0,0.0,0.0,0.0,0.0,0.0,0.0,0.0,0.0,0.0,0.0,0.0,0.0,0.0,0.0,0.0,0.0,0.0,0.0,0.0,0.0,0.0,0.0,0.0,0.0,0.0,0.0,0.0,0.0,0.0,0.0,0.0,0.0,0.0,0.0,0.0,0.0,0.0,1.3356,1.471,1.4697,0.0,1.4368,0.0,0.0,0.0,0.0,0.0,0.0,0.0,0.0,0.0,0.0,0.0,0.0,0.0,0.0,0.0,0.0,0.0,0.0,0.0,0.0,0.0,0.0,0.0,0.0,0.0,0.0,0.0,0.0,0.0,0.0,0.0,0.0,0.0,0.0,0.0,0.0,0.0,0.0,0.0,0.0,0.0,0.0,0.0,0.0,0.0,0.0,0.0,0.0,0.0,0.0,0.0,0.0,0.0,0.0,0.0,0.0,0.0,0.0,0.0,0.0,0.0,0.0,0.0,0.0,0.0,0.0,0.0,0.0,0.0,0.0,0.0,0.0,0.0,0.0,0.0,0.0,0.0,0.0,0.0,0.0,0.0,0.0,0.0,0.0,0.0,0.0,0.0,0.0,0.0,0.0,0.0,0.0,0.0,0.0,0.0,0.0,0.0,0.0,0.0,0.0,0.0,0.0,0.0,0.0,0.0,0.0,0.0,0.0,0.0,0.0,1.3713,1.4207,1.4973,1.5097,0.0,0.0,0.0,0.0,0.0,0.0,0.0,0.0,0.0,0.0,0.0,0.0,0.0,0.0,0.0,0.0,0.0,0.0,0.0,0.0,0.0,0.0,0.0,0.0,0.0,0.0,0.0,0.0,0.0,0.0,0.0,0.0,0.0,0.0,0.0,0.0,0.0,0.0,0.0,0.0,0.0,0.0,0.0,0.0,0.0,0.0,0.0,0.0,0.0,0.0,0.0,0.0,0.0,0.0,0.0,0.0,0.0,0.0,0.0,0.0,0.0,0.0,0.0,0.0,0.0,0.0,0.0,0.0,0.0,0.0,0.0,0.0,0.0,0.0,0.0,0.0,0.0,0.0,0.0,0.0,0.0,0.0,0.0,0.0,0.0,0.0,0.0,0.0,0.0,0.0,0.0,0.0,0.0,0.0,0.0,0.0,0.0,0.0,0.0,0.0,0.0,0.0,0.0,0.0,0.0,0.0,0.0,0.0,0.0,0.0,1.315,1.4132,1.4576,1.5299,1.5325,1.4524,0.0,0.0,0.0,0.0,0.0,0.0,0.0,0.0,0.0,0.0,0.0,0.0,0.0,0.0,0.0,0.0,0.0,0.0,0.0,0.0,0.0,0.0,0.0,0.0,0.0,0.0,0.0,0.0,0.0,0.0,0.0,0.0,0.0,0.0,0.0,0.0,0.0,0.0,0.0,0.0,0.0,0.0,0.0,0.0,0.0,0.0,0.0,0.0,0.0,0.0,0.0,0.0,0.0,0.0,0.0,0.0,0.0,0.0,0.0,0.0,0.0,0.0,0.0,0.0,0.0,0.0,0.0,0.0,0.0,0.0,0.0,0.0,0.0,0.0,0.0,0.0,0.0,0.0,0.0,0.0,0.0,0.0,0.0,0.0,0.0,0.0,0.0,0.0,0.0,0.0,0.0,0.0,0.0,0.0,0.0,0.0,0.0,0.0,0.0,0.0,0.0,0.0,0.0,0.0,0.0,0.0,0.0,0.0,0.0,1.4235,1.4802,1.6783,1.6128,1.5313,0.0,0.0,0.0,0.0,0.0,0.0,0.0,0.0,0.0,0.0,0.0,0.0,0.0,0.0,0.0,0.0,0.0,0.0,0.0,0.0,0.0,0.0,0.0,0.0,0.0,0.0,0.0,0.0,0.0,0.0,0.0,0.0,0.0,0.0,0.0,0.0,0.0,0.0,0.0,0.0,0.0,0.0,0.0,0.0,0.0,0.0,0.0,0.0,0.0,0.0,0.0,0.0,0.0,0.0,0.0,0.0,0.0,0.0,0.0,0.0,0.0,0.0,0.0,0.0,0.0,0.0,0.0,0.0,0.0,0.0,0.0,0.0,0.0,0.0,0.0,0.0,0.0,0.0,0.0,0.0,0.0,0.0,0.0,0.0,0.0,0.0,0.0,0.0,0.0,0.0,0.0,0.0,0.0,0.0,0.0,0.0,0.0,0.0,0.0,0.0,0.0,0.0,0.0,0.0,0.0,0.0,0.0,0.0,0.0,1.1953,1.2497,1.4198,1.6944,1.5228,1.4505,0.0,0.0,0.0,0.0,0.0,0.0,0.0,0.0,0.0,0.0,0.0,0.0,0.0,0.0,0.0,0.0,0.0,0.0,0.0,0.0,0.0,0.0,0.0,0.0,0.0,0.0,0.0,0.0,0.0,0.0,0.0,0.0,0.0,0.0,0.0,0.0,0.0,0.0,0.0,0.0,0.0,0.0,0.0,0.0,0.0,0.0,0.0,0.0,0.0,0.0,0.0,0.0,0.0,0.0,0.0,0.0,0.0,0.0,0.0,0.0,0.0,0.0,0.0,0.0,0.0,0.0,0.0,0.0,0.0,0.0,0.0,0.0,0.0,0.0,0.0,0.0,0.0,0.0,0.0,0.0,0.0,0.0,0.0,0.0,0.0,0.0,0.0,0.0,0.0,0.0,0.0,0.0,0.0,0.0,0.0,0.0,0.0,0.0,0.0,0.0,0.0,0.0,0.0,0.0,0.0,0.0,0.0,0.0,0.0,1.1614,0.0,1.4746,0.0,1.4757,1.3844,0.0,0.0,0.0,0.0,0.0,0.0,0.0,0.0,0.0,0.0,0.0,0.0,0.0,0.0,0.0,0.0,0.0,0.0,0.0,0.0,0.0,0.0,0.0,0.0,0.0,0.0,0.0,0.0,0.0,0.0,0.0,0.0,0.0,0.0,0.0,0.0,0.0,0.0,0.0,0.0,0.0,0.0,0.0,0.0,0.0,0.0,0.0,0.0,0.0,0.0,0.0,0.0,0.0,0.0,0.0,0.0,0.0,0.0,0.0,0.0,0.0,0.0,0.0,0.0,0.0,0.0,0.0,0.0,0.0,0.0,0.0,0.0,0.0,0.0,0.0,0.0,0.0,0.0,0.0,0.0,0.0,0.0,0.0,0.0,0.0,0.0,0.0,0.0,0.0,0.0,0.0,0.0,0.0,0.0,0.0,0.0,0.0,0.0,0.0,0.0,0.0,0.0,0.0,0.0,0.0,0.0,0.0,0.0,1.171,1.4583,1.617,1.6508,1.5741,1.4897,1.3393,0.0,0.0,0.0,0.0,0.0,0.0,0.0,0.0,0.0,0.0,0.0,0.0,0.0,0.0,0.0,0.0,0.0,0.0,0.0,0.0,0.0,0.0,0.0,0.0,0.0,0.0,0.0,0.0,0.0,0.0,0.0,0.0,0.0,0.0,0.0,0.0,0.0,0.0,0.0,0.0,0.0,0.0,0.0,0.0,0.0,0.0,0.0,0.0,0.0,0.0,0.0,0.0,0.0,0.0,0.0,0.0,0.0,0.0,0.0,0.0,0.0,0.0,0.0,0.0,0.0,0.0,0.0,0.0,0.0,0.0,0.0,0.0,0.0,0.0,0.0,0.0,0.0,0.0,0.0,0.0,0.0,0.0,0.0,0.0,0.0,0.0,0.0,0.0,0.0,0.0,0.0,0.0,0.0,0.0,0.0,0.0,0.0,0.0,0.0,0.0,0.0,0.0,0.0,0.0,0.0,0.0,0.0,0.0,0.0,1.2744,1.4264,1.544,1.6153,1.4593,1.3838,0.0,0.0,0.0,0.0,0.0,0.0,0.0,0.0,0.0,0.0,0.0,0.0,0.0,0.0,0.0,0.0,0.0,0.0,0.0,0.0,0.0,0.0,0.0,0.0,0.0,0.0,0.0,0.0,0.0,0.0,0.0,0.0,0.0,0.0,0.0,0.0,0.0,0.0,0.0,0.0,0.0,0.0,0.0,0.0,0.0,0.0,0.0,0.0,0.0,0.0,0.0,0.0,0.0,0.0,0.0,0.0,0.0,0.0,0.0,0.0,0.0,0.0,0.0,0.0,0.0,0.0,0.0,0.0,0.0,0.0,0.0,0.0,0.0,0.0,0.0,0.0,0.0,0.0,0.0,0.0,0.0,0.0,0.0,0.0,0.0,0.0,0.0,0.0,0.0,0.0,0.0,0.0,0.0,0.0,0.0,0.0,0.0,0.0,0.0,0.0,0.0,0.0,0.0,0.0,0.0,0.0,0.0,0.0,0.0,1.3411,1.4919,1.6135,1.692,1.5062,1.4283,1.4744,0.0,0.0,0.0,0.0,0.0,0.0,0.0,0.0,0.0,0.0,0.0,0.0,0.0,0.0,0.0,0.0,0.0,0.0,0.0,0.0,0.0,0.0,0.0,0.0,0.0,0.0,0.0,0.0,0.0,0.0,0.0,0.0,0.0,0.0,0.0,0.0,0.0,0.0,0.0,0.0,0.0,0.0,0.0,0.0,0.0,0.0,0.0,0.0,0.0,0.0,0.0,0.0,0.0,0.0,0.0,0.0,0.0,0.0,0.0,0.0,0.0,0.0,0.0,0.0,0.0,0.0,0.0,0.0,0.0,0.0,0.0,0.0,0.0,0.0,0.0,0.0,0.0,0.0,0.0,0.0,0.0,0.0,0.0,0.0,0.0,0.0,0.0,0.0,0.0,0.0,0.0,0.0,0.0,0.0,0.0,0.0,0.0,0.0,0.0,0.0,0.0,0.0,0.0,0.0,0.0,0.0,0.0,0.0,1.5969,1.7751,1.8384,1.7839,1.6289,1.4831,0.0,0.0,0.0,0.0,0.0,0.0,0.0,0.0,0.0,0.0,0.0,0.0,0.0,0.0,0.0,0.0,0.0,0.0,0.0,0.0,0.0,0.0,0.0,0.0,0.0,0.0,0.0,0.0,0.0,0.0,0.0,0.0,0.0,0.0,0.0,0.0,0.0,0.0,0.0,0.0,0.0,0.0,0.0,0.0,0.0,0.0,0.0,0.0,0.0,0.0,0.0,0.0,0.0,0.0,0.0,0.0,0.0,0.0,0.0,0.0,0.0,0.0,0.0,0.0,0.0,0.0,0.0,0.0,0.0,0.0,0.0,0.0,0.0,0.0,0.0,0.0,0.0,0.0,0.0,0.0,0.0,0.0,0.0,0.0,0.0,0.0,0.0,0.0,0.0,0.0,0.0,0.0,0.0,0.0,0.0,0.0,0.0,0.0,0.0,0.0,0.0,0.0,0.0,0.0,0.0,0.0,0.0,0.0,0.0,1.8048,1.9109,1.9485,1.9155,1.7997,1.6941,0.0,0.0,0.0,0.0,0.0,0.0,0.0,0.0,0.0,0.0,0.0,0.0,0.0,0.0,0.0,0.0,0.0,0.0,0.0,0.0,0.0,0.0,0.0,0.0,0.0,0.0,0.0,0.0,0.0,0.0,0.0,0.0,0.0,0.0,0.0,0.0,0.0,0.0,0.0,0.0,0.0,0.0,0.0,0.0,0.0,0.0,0.0,0.0,0.0,0.0,0.0,0.0,0.0,0.0,0.0,0.0,0.0,0.0,0.0,0.0,0.0,0.0,0.0,0.0,0.0,0.0,0.0,0.0,0.0,0.0,0.0,0.0,0.0,0.0,0.0,0.0,0.0,0.0,0.0,0.0,0.0,0.0,0.0,0.0,0.0,0.0,0.0,0.0,0.0,0.0,0.0,0.0,0.0,0.0,0.0,0.0,0.0,0.0,0.0,0.0,0.0,0.0,0.0,0.0,0.0,0.0,0.0,0.0,1.7287,1.8888,2.0511,2.1115,2.0675,1.9434,1.833,0.0,0.0,0.0,0.0,0.0,0.0,0.0,0.0,0.0,0.0,0.0,0.0,0.0,0.0,0.0,0.0,0.0,0.0,0.0,0.0,0.0,0.0,0.0,0.0,0.0,0.0,0.0,0.0,0.0,0.0,0.0,0.0,0.0,0.0,0.0,0.0,0.0,0.0,0.0,0.0,0.0,0.0,0.0,0.0,0.0,0.0,0.0,0.0,0.0,0.0,0.0,0.0,0.0,0.0,0.0,0.0,0.0,0.0,0.0,0.0,0.0,0.0,0.0,0.0,0.0,0.0,0.0,0.0,0.0,0.0,0.0,0.0,0.0,0.0,0.0,0.0,0.0,0.0,0.0,0.0,0.0,0.0,0.0,0.0,0.0,0.0,0.0,0.0,0.0,0.0,0.0,0.0,0.0,0.0,0.0,0.0,0.0,0.0,0.0,0.0,0.0,0.0,0.0,0.0,0.0,0.0,0.0,0.0,1.8302,1.9142,2.1749,2.2806,2.2134,2.0597,1.9291,0.0,0.0,0.0,0.0,0.0,0.0,0.0,0.0,0.0,0.0,0.0,0.0,0.0,0.0,0.0,0.0,0.0,0.0,0.0,0.0,0.0,0.0,0.0,0.0,0.0,0.0,0.0,0.0,0.0,0.0,0.0,0.0,0.0,0.0,0.0,0.0,0.0,0.0,0.0,0.0,0.0,0.0,0.0,0.0,0.0,0.0,0.0,0.0,0.0,0.0,0.0,0.0,0.0,0.0,0.0,0.0,0.0,0.0,0.0,0.0,0.0,0.0,0.0,0.0,0.0,0.0,0.0,0.0,0.0,0.0,0.0,0.0,0.0,0.0,0.0,0.0,0.0,0.0,0.0,0.0,0.0,0.0,0.0,0.0,0.0,0.0,0.0,0.0,0.0,0.0,0.0,0.0,0.0,0.0,0.0,0.0,0.0,0.0,0.0,0.0,0.0,0.0,0.0,0.0,0.0,0.0,0.0,0.0,1.9333,2.0696,2.2086,2.2865,2.2929,2.1245,1.9918,0.0,0.0,0.0,0.0,0.0,0.0,0.0,0.0,0.0,0.0,0.0,0.0,0.0,0.0,0.0,0.0,0.0,0.0,0.0,0.0,0.0,0.0,0.0,0.0,0.0,0.0,0.0,0.0,0.0,0.0,0.0,0.0,0.0,0.0,0.0,0.0,0.0,0.0,0.0,0.0,0.0,0.0,0.0,0.0,0.0,0.0,0.0,0.0,1.0184,0.0,0.0,0.0,0.0,0.0,0.0,0.0,0.0,0.0,0.0,0.0,0.0,0.0,0.0,0.0,0.0,0.0,0.0,0.0,0.0,0.0,0.0,0.0,0.0,0.0,0.0,0.0,0.0,0.0,0.0,0.0,0.0,0.0,0.0,0.0,0.0,0.0,0.0,0.0,0.0,0.0,0.0,0.0,0.0,0.0,0.0,0.0,0.0,0.0,0.0,0.0,0.0,0.0,0.0,0.0,0.0,0.0,0.0,0.0,1.965,2.1153,2.2331,2.3021,2.3147,2.2211,2.1098,0.0,0.0,0.0,0.0,0.0,0.0,0.0,0.0,0.0,0.0,0.0,0.0,0.0,0.0,0.0,0.0,0.0,0.0,0.0,0.0,0.0,0.0,0.0,0.0,0.0,0.0,0.0,0.0,0.0,0.0,0.0,0.0,0.0,0.0,0.0,0.0,0.0,0.0,0.0,0.0,0.0,0.0,0.0,0.0,0.0,0.0,0.0,0.0,0.0,0.0,0.0,0.0,0.0,0.0,0.0,0.0,0.0,0.0,0.0,0.0,0.0,0.0,0.0,0.0,0.0,0.0,0.0,0.0,0.0,0.0,0.0,0.0,0.0,0.0,0.0,0.0,0.0,0.0,0.0,0.0,0.0,0.0,0.0,0.0,0.0,0.0,0.0,0.0,0.0,0.0,0.0,0.0,0.0,0.0,0.0,0.0,0.0,0.0,0.0,0.0,0.0,0.0,0.0,0.0,0.0,0.0,0.0,1.7901,1.9651,2.1336,2.2576,2.3189,2.3183,2.3083,2.2272,2.0749,0.0,0.0,0.0,0.0,0.0,0.0,0.0,0.0,0.0,0.0,0.0,0.0,0.0,0.0,0.0,0.0,0.0,0.0,0.0,0.0,0.0,0.0,0.0,0.0,0.0,0.0,0.0,0.0,0.0,0.0,0.0,0.0,0.0,0.0,0.0,0.0,0.0,0.0,0.9166,1.0868,0.0,0.0,0.0,0.0,0.0,0.0,0.0,0.0,1.1533,0.0,0.0,0.0,0.0,0.0,0.0,0.0,0.0,0.0,0.0,0.0,0.0,0.0,0.0,0.0,0.0,0.0,0.0,0.0,0.0,0.0,0.0,0.0,0.0,0.0,0.0,0.0,0.0,0.0,0.0,0.0,0.0,0.0,0.0,0.0,0.0,0.0,0.0,0.0,0.0,0.0,0.0,0.0,0.0,0.0,0.0,0.0,0.0,0.0,0.0,0.0,0.0,0.0,0.0,0.0,0.0,1.7961,1.8373,1.9721,2.2057,2.2825,2.3189,2.3194,2.3065,2.2556,2.1564,0.0,0.0,0.0,0.0,0.0,0.0,0.0,0.0,0.0,0.0,0.0,0.0,0.0,0.0,0.0,0.0,0.0,0.0,0.0,0.0,0.0,0.0,0.0,0.0,0.0,0.0,0.0,0.0,0.0,0.0,0.0,0.0,0.0,0.0,0.0,0.0,0.0,0.0,0.0,1.1943,1.3238,0.0,0.0,0.0,0.0,0.0,0.0,0.0,0.0,1.1737,0.0,0.0,0.0,0.0,0.0,0.0,0.0,0.0,0.0,0.0,0.0,0.0,0.0,0.0,0.0,0.0,0.0,0.0,0.0,0.0,0.0,0.0,0.0,0.0,0.0,0.0,0.0,0.0,0.0,0.0,0.0,0.0,0.0,0.0,0.0,0.0,0.0,0.0,0.0,0.0,0.0,0.0,0.0,0.0,0.0,0.0,0.0,0.0,0.0,0.0,0.0,0.0,0.0,0.0,0.0,1.7456,1.8548,1.9966,2.1874,2.2759,2.3189,2.3177,2.2666,2.1969,0.0,0.0,0.0,0.0,0.0,0.0,0.0,0.0,0.0,0.0,0.0,0.0,0.0,0.0,0.0,0.0,0.0,0.0,0.0,0.0,0.0,0.0,0.0,0.0,0.0,0.0,0.0,0.0,0.0,0.0,0.0,0.0,0.0,0.0,0.0,0.0,0.0,0.0,0.0,0.0,1.2783,1.3725,1.5103,0.0,0.0,0.0,0.0,0.0,0.0,1.2356,1.1802,0.0,0.0,0.0,0.0,0.0,0.0,0.0,0.0,0.0,0.0,0.0,0.0,0.0,0.0,0.0,0.0,0.0,0.0,0.0,0.0,0.0,0.0,0.0,0.0,0.0,0.0,0.0,0.0,0.0,0.0,0.0,0.0,0.0,0.0,0.0,0.0,0.0,0.0,0.0,0.0,0.0,0.0,0.0,0.0,0.0,0.0,0.0,0.0,0.0,0.0,0.0,0.0,0.0,0.0,0.0,1.6658,1.8488,2.0118,2.1559,2.2635,2.3189,2.3183,2.2448,2.1564,0.0,0.0,0.0,0.0,0.0,0.0,0.0,0.0,0.0,0.0,0.0,0.0,0.0,0.0,0.0,0.0,0.0,0.0,0.0,0.0,0.0,0.0,0.0,0.0,0.0,0.0,0.0,0.0,0.0,0.0,0.0,0.0,0.0,0.0,0.0,0.0,0.0,0.0,0.0,0.0,0.0,1.4373,1.5186,1.3472,0.0,0.0,0.0,0.0,1.3862,1.2922,0.0,0.0,0.0,0.0,0.0,0.0,0.0,0.0,0.0,0.0,0.0,0.0,0.0,0.0,0.0,0.0,0.0,0.0,0.0,0.0,0.0,0.0,0.0,0.0,0.0,0.0,0.0,0.0,0.0,0.0,0.0,0.0,0.0,0.0,0.0,0.0,0.0,0.0,0.0,0.0,0.0,0.0,0.0,0.0,0.0,0.0,0.0,0.0,0.0,0.0,0.0,0.0,0.0,0.0,0.0,0.0,1.638,1.8173,1.9874,2.1543,2.2647,2.3189,2.32,2.2974,2.2168,0.0,0.0,0.0,0.0,0.0,0.0,0.0,0.0,0.0,0.0,0.0,0.0,0.0,0.0,0.0,0.0,0.0,0.0,0.0,0.0,0.0,0.0,0.0,0.0,0.0,0.0,0.0,0.0,0.0,0.0,0.0,0.0,0.0,0.0,0.0,0.0,0.0,0.0,0.0,0.0,0.0,1.5234,1.537,1.3835,1.2721,0.0,0.0,1.3496,1.3945,1.3882,0.0,0.0,0.0,0.0,0.0,0.0,0.0,0.0,0.0,0.0,0.0,0.0,0.0,0.0,0.0,0.0,0.0,0.0,0.0,0.0,0.0,0.0,0.0,0.0,0.0,0.0,0.0,0.0,0.0,0.0,0.0,0.0,0.0,0.0,0.0,0.0,0.0,0.0,0.0,0.0,0.0,0.0,0.0,0.0,0.0,0.0,0.0,0.0,0.0,0.0,0.0,0.0,0.0,0.0,0.0,1.3676,1.605,1.8358,2.0134,2.1258,2.2526,2.3189,2.32,2.2167,2.1099,0.0,0.0,0.0,0.0,0.0,0.0,0.0,0.0,0.0,0.0,0.0,0.0,0.0,0.0,0.0,0.0,0.0,0.0,0.0,0.0,0.0,0.0,0.0,0.0,0.0,0.0,0.0,0.0,0.0,0.0,0.0,0.0,0.0,0.0,0.0,0.0,0.0,0.0,0.0,0.0,0.0,0.0,1.5332,1.4213,0.0,0.0,0.0,1.3861,1.4628,0.0,0.0,0.0,0.0,0.0,0.0,0.0,0.0,0.0,0.0,0.0,0.0,0.0,0.0,0.0,0.0,0.0,0.0,0.0,0.0,0.0,0.0,0.0,0.0,0.0,0.0,0.0,0.0,0.0,0.0,0.0,0.0,0.0,0.0,0.0,0.0,0.0,0.0,0.0,0.0,0.0,0.0,0.0,0.0,0.0,0.0,0.0,0.0,0.0,0.0,0.0,0.0,0.0,0.0,0.0,0.0,0.0,1.5813,1.8623,2.0368,2.1007,2.2259,2.3003,2.3165,2.1583,0.0,0.0,0.0,0.0,0.0,0.0,0.0,0.0,0.0,0.0,0.0,0.0,0.0,0.0,0.0,0.0,0.0,0.0,0.0,0.0,0.0,0.0,0.0,0.0,0.0,0.0,0.0,0.5092,0.0,0.0,0.0,0.0,0.0,0.0,0.0,0.0,0.0,0.0,0.0,0.0,0.0,0.0,1.4901,1.5332,1.4666,1.4394,0.0,0.0,1.4299,1.5169,1.4751,1.3977,0.0,0.0,0.0,0.0,0.0,0.0,0.0,0.0,0.0,0.0,0.0,0.0,0.0,0.0,0.0,0.0,0.0,0.0,0.0,0.0,0.0,0.0,0.0,0.0,0.0,0.0,0.0,0.0,0.0,0.0,0.0,0.0,0.0,0.0,0.0,0.0,0.0,0.0,0.0,0.0,0.0,0.0,0.0,0.0,0.0,0.0,0.0,0.0,0.0,0.0,0.0,0.0,0.0,0.0,0.0,1.5843,1.8745,2.0504,2.0991,2.1768,2.25,2.3159,2.1916,2.0739,0.0,0.0,0.0,0.0,0.0,0.0,0.0,0.0,0.0,0.0,0.0,0.0,0.0,0.0,0.0,0.0,0.0,0.0,0.0,0.0,0.0,0.0,0.0,0.0,0.0,0.0,0.0,0.0,0.0,0.0,0.0,0.0,0.0,0.0,0.0,0.0,0.0,0.0,0.0,0.0,0.0,1.6179,1.5508,1.5332,1.529,0.0,1.5201,1.5141,1.5276,1.5246,1.4641,1.299,0.0,0.0,0.0,0.0,0.0,0.0,0.0,0.0,0.0,0.0,0.0,0.0,0.0,0.0,0.0,0.0,0.0,0.0,0.0,0.0,0.0,0.0,0.0,0.0,0.0,0.0,0.0,0.0,0.0,0.0,0.0,0.0,0.0,0.0,0.0,0.0,0.0,0.0,0.0,0.0,0.0,0.0,0.0,0.0,0.0,0.0,0.0,0.0,0.0,0.0,0.0,0.0,0.0,1.4453,1.5814,1.8759,2.0533,2.0991,2.174,2.2357,2.2868,2.1872,2.0671,0.0,0.0,0.0,0.0,0.0,0.0,0.0,0.0,0.0,0.0,0.0,0.0,0.0,0.0,0.0,0.0,0.0,0.0,0.0,0.0,0.0,0.0,0.0,0.0,0.0,0.0,0.0,0.0,0.6676,0.6639,0.6639,0.0,0.0,0.0,0.0,0.0,0.0,0.0,0.0,0.0,0.0,1.6651,1.6856,1.6878,0.0,0.0,1.6601,1.6362,1.5971,1.5878,1.5306,1.3632,1.3458,0.0,0.0,0.0,0.0,0.0,0.0,0.0,0.0,0.0,0.0,0.0,0.0,0.0,0.0,0.0,0.0,0.0,0.0,0.0,0.0,0.0,0.0,0.0,0.0,0.0,0.0,0.0,0.0,0.0,0.0,0.0,0.0,0.0,0.0,0.0,0.0,0.0,0.0,0.0,0.0,0.0,0.0,0.0,0.0,0.0,0.0,0.0,0.0,0.0,0.0,0.0,0.0,1.4842,1.6353,1.8857,2.044,2.1081,2.1525,2.2012,2.2474,2.1852,2.083,0.0,0.0,0.0,0.0,0.0,0.0,0.0,0.0,0.0,0.0,0.0,0.0,0.0,0.0,0.0,0.0,0.0,0.0,0.0,0.0,0.0,0.0,0.0,0.0,0.0,0.0,0.0,0.0,0.7636,0.7593,0.7634,0.0,0.0,0.0,0.0,0.0,0.0,0.0,0.0,0.0,0.0,1.7331,1.7754,1.8217,1.8534,1.8483,1.7888,1.7183,1.6468,1.628,1.567,1.4058,0.0,0.0,0.0,0.0,0.0,0.0,0.0,0.0,0.0,0.0,0.0,0.0,0.0,0.0,0.0,0.0,0.0,0.0,0.0,0.0,0.0,0.0,0.0,0.0,0.0,0.0,0.0,1.1555,0.0,0.0,1.0673,0.0,0.0,0.0,0.0,0.0,0.0,0.0,0.0,0.0,0.0,0.0,0.0,0.0,0.0,0.0,0.0,0.0,0.0,0.0,0.0,0.0,0.0,1.5695,1.7639,1.9019,2.0246,2.1259,2.1112,2.1398,2.2093,2.2014,2.139,2.0151,0.0,0.0,0.0,0.0,0.0,0.0,0.0,0.0,0.0,0.0,0.0,0.0,0.0,0.0,0.0,0.0,0.0,0.0,0.0,0.0,0.0,0.0,0.0,0.0,0.0,0.0,0.7764,0.7645,0.765,0.0,0.0,0.0,0.0,0.0,0.0,0.0,0.0,0.0,1.516,1.7103,1.8358,1.7905,1.9207,2.0177,2.0188,1.8781,1.7416,1.6663,1.6357,1.5654,0.0,0.0,0.0,0.0,0.0,0.0,0.0,0.0,0.0,0.0,0.0,0.0,0.0,0.0,0.0,0.0,0.0,0.0,0.0,0.0,0.0,0.0,0.0,0.0,0.0,0.0,0.0,1.5173,1.3815,0.0,0.0,0.0,0.0,0.0,0.0,0.0,0.0,0.0,0.0,0.0,1.6181,1.6718,0.0,0.0,0.0,0.0,0.0,0.0,0.0,0.0,0.0,0.0,0.0,0.0,1.5536,1.7667,1.948,2.0661,2.1286,2.1227,2.1373,2.1742,2.1441,2.0413,1.8579,0.0,0.0,0.0,0.0,0.0,0.0,0.0,0.0,0.0,0.0,0.0,0.0,0.0,0.0,0.0,0.0,0.0,0.0,0.0,0.0,0.0,0.0,0.0,0.0,0.0,0.9361,0.0,0.0,0.0,0.0,0.0,0.0,0.0,0.0,0.0,0.0,0.0,1.5512,1.714,1.7966,1.8584,1.9044,1.979,2.022,0.0,0.0,0.0,0.0,0.0,0.0,0.0,0.0,0.0,0.0,0.0,0.0,0.0,0.0,1.952,1.695,1.5807,1.5355,1.5635,0.0,0.0,0.0,0.0,0.0,0.0,0.0,0.0,0.0,0.0,0.0,0.0,0.0,0.0,1.7614,1.6606,1.6216,0.0,0.0,0.0,0.0,0.0,0.0,0.0,0.0,1.7652,1.8242,1.8254,1.8807,1.8793,0.0,1.7112,1.5771,0.0,0.0,0.0,0.0,0.0,0.0,0.0,0.0,1.6321,1.8425,2.018,2.1189,2.1415,2.1337,2.1257,2.115,2.0981,2.0115,1.844,1.7415,1.6252,0.0,0.0,0.0,0.0,0.0,0.0,0.0,0.0,0.0,0.0,0.0,0.0,0.0,0.0,0.0,0.0,0.0,0.0,0.0,0.0,0.0,0.0,0.0,1.041,0.0,0.0,0.0,0.0,0.0,0.0,0.0,0.0,0.0,1.4004,1.4963,1.6311,1.8183,1.8543,1.8875,1.9538,0.0,0.0,0.0,0.0,0.0,0.0,0.0,1.8217,1.7969,1.8236,1.8546,1.8746,1.7645,1.7474,1.9692,0.0,0.0,1.9288,1.8253,1.7976,1.8288,1.844,1.8418,1.8091,1.8433,1.8849,0.0,0.0,0.0,0.0,0.0,0.0,0.0,0.0,2.03,2.0037,0.0,1.8869,0.0,0.0,0.0,0.0,1.5982,1.7992,0.0,0.0,2.074,2.0953,1.9999,2.0515,2.0465,1.9899,1.9798,1.8982,1.7408,1.5068,0.0,0.0,0.0,0.0,0.0,0.0,1.8003,1.9814,2.1054,2.1705,2.1675,2.1457,2.0992,2.0364,2.0705,2.0521,1.9766,1.9189,1.7851,1.5612,1.4938,0.0,0.0,0.0,0.0,0.0,0.0,0.0,0.0,0.0,0.0,0.0,0.0,0.0,0.0,0.0,0.0,0.0,0.0,0.0,0.0,1.1133,0.0,0.0,0.0,0.0,0.0,0.0,0.0,0.0,0.0,0.0,1.4998,1.6206,1.7424,1.8234,0.0,0.0,0.0,0.0,1.9315,1.9366,2.0161,2.0546,1.9841,1.9955,1.9998,1.9597,0.0,0.0,1.9609,1.9653,2.0466,2.2712,2.2656,2.2143,2.1575,2.0305,1.9658,2.0404,2.0762,2.0847,2.0554,2.1207,2.2285,2.4836,0.0,0.0,0.0,0.0,2.3452,2.4155,2.538,2.4815,2.3879,2.2774,2.2472,0.0,0.0,0.0,0.0,0.0,0.0,2.0627,2.1377,2.2272,2.2468,2.2155,2.2318,2.2146,2.1568,2.083,2.0201,1.9698,1.821,1.6005,1.3179,0.0,0.0,0.0,0.0,1.7707,1.9746,2.1062,2.1691,2.1691,2.1615,2.1154,2.0328,2.0688,2.0792,2.0559,1.986,1.89,1.764,1.6045,0.0,0.0,0.0,0.0,0.0,0.0,0.0,0.0,0.0,0.0,0.0,0.0,0.0,0.0,0.0,0.0,0.0,0.0,0.0,1.1909,1.0897,1.0785,0.0,0.0,0.0,0.0,0.0,0.0,0.0,0.0,0.0,1.8056,1.7816,1.7842,0.0,0.0,1.9279,1.9279,1.9279,1.9555,2.0274,2.0618,0.0,2.053,2.0153,2.0044,2.0365,2.1077,2.1816,2.2667,2.2451,2.2282,2.2552,2.2415,2.23,2.2363,2.2223,2.2117,2.2378,2.2292,2.2031,2.1713,2.1745,2.1776,2.7608,2.5505,2.5914,2.6217,2.6405,2.6418,2.703,2.7908,2.7344,2.6553,2.5624,2.5385,2.3929,2.1566,2.0914,0.0,0.0,0.0,2.246,2.3314,2.3622,2.3772,2.3772,2.3772,2.3484,2.2949,2.2071,2.1559,2.1305,2.0426,1.8581,1.5873,0.0,0.0,1.5815,1.6927,1.8297,1.9872,2.1063,2.1575,2.1348,2.1061,2.0842,2.0698,2.0686,2.0624,2.0504,1.9994,1.9386,1.8603,1.7046,1.5742,0.0,0.0,0.0,0.0,0.0,0.0,0.0,0.0,0.0,0.0,0.0,0.7484,0.6654,0.0,0.0,0.0,1.1161,1.253,1.3015,1.2784,0.0,0.0,0.0,0.0,0.0,0.0,0.0,1.9251,1.8663,1.8428,1.9433,1.9112,1.9024,1.9627,1.9318,1.925,1.9812,0.0,2.0703,2.13,2.139,2.1365,2.1291,2.109,2.1126,2.1646,2.2146,2.2731,2.3573,2.3466,2.2989,2.2484,2.2313,2.2349,2.2514,2.2721,2.2815,2.278,2.2456,2.2032,2.1498,2.1053,2.0701,2.9697,2.8177,2.8417,2.8662,2.8962,2.905,2.9076,2.9051,2.8536,2.8285,2.8197,2.7657,2.6791,2.5636,2.4123,0.0,2.3446,2.4054,2.4582,2.4976,2.4988,2.4958,2.4883,2.4883,2.4575,2.4042,2.3446,2.2907,2.2435,2.1845,2.1029,1.9974,1.8492,1.7662,1.7584,1.8562,1.9374,1.9967,2.1057,2.135,2.0809,2.0196,2.0289,2.1126,2.0665,2.0233,1.9876,1.9756,1.9395,1.8648,1.7776,1.6736,1.5522,0.0,0.0,0.0,0.0,0.0,0.0,0.0,0.0,0.0,0.0,0.0,0.0,0.0,0.0,0.0,1.2798,0.0,1.4482,1.5898,0.0,0.0,0.0,1.5505,1.3056,1.5378,1.85,2.1904,0.0,0.0,1.979,2.0252,2.0639,2.088,1.9668,1.9248,2.0536,2.1558,2.2313,2.2237,2.2293,2.2207,2.2012,2.224,2.2581,2.2928,2.3141,2.3088,2.32,2.3135,2.2883,2.2405,2.2313,2.2282,2.2254,2.2265,2.2189,2.1984,2.1757,2.1306,2.0485,1.9924,1.9603,3.2827,3.2399,3.2067,3.0956,2.9542,3.0422,3.0809,3.0758,3.0244,2.9779,2.9352,2.88,2.7921,2.6889,2.6465,2.6289,2.6327,2.6879,2.6967,2.6703,2.6703,2.6239,2.5435,2.541,2.5134,2.4607,2.4054,2.3728,2.3552,2.2585,2.1983,2.1681,2.0916,1.9886,1.8681,1.8865,1.9292,1.9851,2.0617,2.0965,2.0822,2.1073,2.0878,2.0118,2.0734,2.0565,1.9561,1.9263,1.8808,1.8104,1.6981,1.6286,1.6231,1.4386,0.0,0.0,0.0,0.0,0.0,0.0,0.0,0.0,0.0,0.9915,0.7705,0.0,1.1713,0.0,1.3548,1.5522,1.6733,1.6474,0.0,0.0,1.7806,1.7478,1.8589,1.9177,2.0221,2.207,2.1874,2.1619,2.1642,2.1755,2.1874,2.1907,2.0977,2.026,2.0282,2.1406,2.2313,2.2313,2.2313,2.2284,2.2245,2.232,2.2487,2.2759,2.2669,2.2673,2.3105,2.2811,2.2457,2.2338,2.2313,2.2166,2.1823,2.1763,2.1475,2.0927,2.0927,2.0878,1.9956,1.9401,1.8972,3.2986,3.2313,3.3107,3.2247,3.041,3.161,3.2001,3.1738,3.1449,3.1009,3.0482,2.9917,2.9202,2.8435,2.8134,2.7883,2.7682,2.7959,2.7934,2.7645,2.7406,2.6954,2.6339,2.6101,2.5699,2.5159,2.4845,2.4456,2.3979,2.3364,2.2937,2.2644,2.2121,2.1405,2.0501,1.9999,1.9899,2.0201,2.031,2.0476,2.0786,2.0616,2.037,2.0159,2.0207,1.9887,1.9137,1.8765,1.83,1.7648,1.6821,1.6331,1.6243,1.4861,1.392,0.0,0.0,0.0,0.0,0.0,0.0,0.0,0.0,0.0,0.0,0.0,1.3567,1.3277,1.5234,1.7114,1.8545,1.8497,1.9164,2.1002,2.0263,2.0241,2.1723,2.147,2.1483,2.2209,2.2313,2.2313,2.2313,2.2313,2.2313,2.2296,2.1806,2.1366,2.1147,2.1775,2.2313,2.2313,2.2313,2.2313,2.2313,2.2313,2.2363,2.2477,2.2385,2.2415,2.2738,2.2535,2.2197,2.1811,2.1721,2.1645,2.1384,2.1337,2.1086,2.0551,2.05,2.0399,1.9776,1.9051,1.8438,3.2265,3.0985,3.304,3.2963,3.1545,3.2655,3.2792,3.2315,3.224,3.1901,3.1361,3.0909,3.0419,2.988,2.9339,2.8813,2.8335,2.831,2.8285,2.8172,2.772,2.7419,2.7291,2.6826,2.6298,2.5724,2.5636,2.5121,2.4217,2.4067,2.371,2.3208,2.2686,2.238,2.2359,2.1421,2.083,2.0691,2.01,2.008,2.0633,1.9724,1.9629,2.0401,1.9541,1.8894,1.8597,1.8318,1.79,1.739,1.7084,1.6732,1.6293,1.5521,1.511,0.0,1.4357,0.0,0.0,0.0,0.0,0.0,0.0,0.0,0.0,1.4847,1.5687,1.5689,1.7263,1.8757,1.9853,2.0785,2.1798,2.2842,2.2729,2.2695,2.2996,2.2624,2.2313,2.2313,2.2313,2.2313,2.2313,2.2313,2.2296,2.2178,2.213,2.2048,2.213,2.2206,2.2313,2.2313,2.2313,2.2313,2.2313,2.2313,2.231,2.231,2.2223,2.2254,2.2307,2.2194,2.184,2.1071,2.0829,2.0845,2.0894,2.0846,2.0682,2.0263,2.0058,1.9831,1.9464,1.8779,1.8092,3.4536,3.3855,3.3895,3.3439,3.2754,3.2982,3.3061,3.288,3.2416,3.1901,3.1386,3.1286,3.0959,3.047,3.0357,3.0005,2.9478,2.9465,2.9214,2.8737,2.8624,2.8147,2.7293,2.7216,2.6876,2.6323,2.5824,2.5498,2.5272,2.4418,2.3941,2.3816,2.3233,2.2957,2.292,0.0,0.0,0.0,2.01,1.9875,1.9991,2.0326,2.0088,1.9378,1.9586,0.0,1.8112,1.7972,1.7861,1.7629,1.7543,0.0,0.0,0.0,0.0,0.0,0.0,0.0,0.0,0.0,0.0,0.0,1.6758,1.6138,1.4857,1.6273,1.7271,1.7316,1.884,1.9953,2.0208,2.0733,2.1311,2.1813,2.1774,2.1863,2.2385,2.2363,2.2313,2.2313,2.2313,2.2296,2.2268,2.2313,2.2152,2.1794,2.1718,2.1673,2.1583,2.1959,2.2268,2.2313,2.224,2.2282,2.2313,2.2268,2.2225,2.2268,2.1974,2.1899,2.212,2.1675,2.0959,2.0154,1.996,2.0085,2.0381,2.0129,1.9884,1.9821,1.914,1.8487,1.8405,1.8263,1.7847,3.5629,3.5031,3.4537,3.3985,0.0,3.3194,3.3124,3.3086,3.2767,3.2478,3.2244,3.1926,3.1637,3.1373,3.0846,3.047,3.0193,2.9917,2.9628,2.9352,2.9026,2.8499,2.7682,2.7406,2.7027,2.6499,2.6197,2.5908,2.5561,2.4795,2.4268,2.3991,2.3427,2.3095,2.3083,2.2585,2.1769,2.0704,2.0087,1.9798,1.9811,1.9876,1.9631,1.9028,1.9043,0.0,0.0,0.0,0.0,0.0,0.0,0.0,0.0,0.0,0.0,1.7578,1.7241,1.7166,1.7486,1.741,1.7635,1.8332,1.8577,1.8302,1.7377,1.8153,1.8687,1.8702,1.9513,2.0104,2.028,2.0516,2.0845,2.1244,2.1353,2.1628,2.2149,2.2032,2.1811,2.1676,2.1661,2.1661,2.1661,2.1661,2.1584,2.1369,2.1306,2.1228,2.1086,2.1369,2.1661,2.1676,2.1661,2.1661,2.1661,2.1645,2.1676,2.1615,2.1461,2.1415,2.1615,2.1291,2.0715,1.9925,1.9723,1.9782,1.9894,1.9597,1.927,1.921,1.865,1.8027,1.7787,1.772,1.7605,3.6031,3.5458,3.5006,3.4487,3.3872,3.342,3.3212,3.3124,3.3124,0.0,0.0,3.2579,3.2303,3.2152,3.1286,3.0756,3.0583,3.0143,2.9892,2.9767,2.9302,2.8687,2.8097,2.7645,2.7115,2.6499,2.6487,2.6248,2.5737,2.5209,2.465,2.4142,2.3547,2.3195,2.3083,2.2556,2.187,2.1006,2.0327,1.9962,1.9936,1.9447,1.9077,1.9011,1.8552,1.8054,1.746,1.785,1.7865,1.7434,1.7819,1.8062,1.8057,1.8057,1.8341,1.9001,1.9046,1.9363,2.0007,2.0052,2.0067,2.0067,1.9962,1.9828,1.9723,1.9723,1.9723,1.9723,1.9723,1.9839,2.0158,2.0316,2.0551,2.102,2.1215,2.1533,2.1982,2.1914,2.1649,2.1226,2.1213,2.1183,2.1231,2.1119,2.0975,2.091,2.0862,2.0764,2.0548,2.0747,2.1023,2.1055,2.1118,2.1055,2.1023,2.1055,2.1007,2.1071,2.0959,2.0894,2.0959,2.0862,2.0482,1.9854,1.9708,1.9708,1.9675,1.9299,1.8912,1.8893,1.84,1.7827,1.7401,1.7209,1.7188,3.6031,3.5495,3.542,3.4839,3.3909,3.3822,3.352,3.3136,3.3124,3.3124,3.3111,3.2993,3.2679,3.2202,3.2051,3.1486,3.0593,3.0532,3.0244,2.9792,2.9704,2.9114,2.8122,2.8021,2.7457,2.6549,2.6487,2.6449,2.6323,2.5762,2.5222,2.4695,2.4142,2.3584,2.3095,2.2569,2.2205,2.2058,2.1094,2.0566,2.0553,1.9987,1.9472,1.903,1.8917,1.8838,1.875,1.8782,1.9004,1.9278,1.9387,1.9405,1.9432,1.942,1.972,2.0344,2.0404,2.0722,2.135,2.1425,2.1425,2.138,2.0887,2.0333,1.9768,1.9723,1.9723,1.9723,1.9783,1.9726,1.9812,2.0339,2.0825,2.1195,2.1148,2.1106,2.1295,2.2209,2.2515,2.1717,2.1764,2.1787,2.1674,2.1293,2.078,2.05,2.0399,2.0278,2.0067,2.0309,2.0714,2.0942,2.1007,2.1007,2.0894,2.0975,2.0926,2.1007,2.0633,2.0516,2.0829,2.0398,1.9945,1.9744,1.9723,1.9723,1.969,1.9277,1.8949,1.8855,1.8185,1.7483,1.7333,1.6985,1.6667,3.6254,3.5943,3.5621,3.5219,3.4705,3.4161,3.3596,3.3136,3.3124,3.3124,3.3124,3.3124,3.293,3.2667,3.2353,3.1951,3.1461,3.0884,3.0442,3.0231,2.993,2.9352,2.8537,2.8247,2.7682,2.6952,2.6637,2.6487,2.6436,2.5875,2.5335,2.4763,2.3935,2.3371,2.3095,2.2857,2.2761,2.2706,2.1669,2.0993,2.0704,2.0427,1.9874,1.9045,1.9008,1.8854,1.858,1.8842,1.9105,1.9314,1.9901,2.0243,2.0255,2.0565,2.0936,2.1231,2.1246,2.138,2.168,2.1695,2.1695,2.168,2.1425,2.1126,2.0797,2.0453,2.0378,2.0722,2.0801,2.0801,2.0801,2.1066,2.1308,2.1493,2.1622,2.1711,2.175,2.2256,2.251,2.2064,2.1584,2.1309,2.1293,2.0709,2.0258,2.0,1.998,1.9892,1.9744,1.9942,2.0154,2.0275,2.0311,2.0294,2.0311,2.0294,2.0294,2.0311,2.0137,2.007,2.026,1.9907,1.9762,1.9723,1.9723,1.9723,1.9723,1.9262,1.8968,1.8836,1.8322,1.7727,1.7374,1.6866,1.6543,3.6417,3.6367,3.5906,3.5608,3.5395,3.4361,3.3658,3.3269,3.3187,3.3124,3.3124,3.3124,3.3124,3.3074,3.2604,3.2328,3.2089,3.1223,3.0721,3.057,3.0043,2.9478,2.89,2.8436,2.7946,2.7306,2.6876,2.6625,2.6449,2.6034,2.5523,2.4901,2.3847,2.3283,2.3296,2.317,2.3095,2.3045,2.2309,2.1594,2.1081,2.083,2.0277,1.9484,1.9246,1.8983,1.8605,1.896,1.9178,1.9222,2.0026,2.0564,2.0717,2.1193,2.16,2.1869,2.1919,2.1979,2.2099,2.2113,2.2113,2.2113,2.2014,2.1999,2.2054,2.153,2.1291,2.1635,2.1635,2.165,2.1665,2.1829,2.1919,2.1954,2.2323,2.2583,2.2598,2.2592,2.2592,2.2508,2.1635,2.0946,2.0808,2.0348,1.9995,1.9995,1.9914,1.9884,1.9768,1.9798,1.9902,1.9738,1.9723,1.9762,1.9723,1.9744,1.9762,1.9723,1.9726,1.9762,1.978,1.9744,1.9723,1.9723,1.9723,1.9723,1.9672,1.9406,1.908,1.893,1.8554,1.8145,1.7626,1.6972,1.6543,3.6417,3.6405,3.6329,3.5994,3.5395,3.4374,3.3872,3.3734,3.3294,3.3124,3.3124,3.3124,3.3124,3.3124,3.3061,3.2704,3.2202,3.1587,3.106,3.0595,3.0055,2.949,2.895,2.8825,2.8298,2.7406,2.7218,2.6904,2.6499,2.6399,2.6097,2.546,2.4456,2.3916,2.3866,2.3371,2.3108,2.3095,2.3007,2.2681,2.2133,2.1207,2.0654,2.0541,1.9999,1.971,1.9585,1.9699,1.971,1.9734,1.9859,2.0157,2.0649,2.0779,2.1359,2.2497,2.2613,2.2853,2.334,2.3415,2.337,2.337,2.2897,2.2823,2.3266,2.2832,2.2254,2.1919,2.1739,2.1784,2.1739,2.2254,2.2598,2.2628,2.3056,2.349,2.3415,2.3475,2.349,2.3475,2.2323,2.1625,2.153,2.1021,2.0617,2.0494,2.0587,2.0393,1.9929,2.0109,2.0213,1.9824,1.9723,1.9723,1.9723,1.9723,1.9723,1.9723,1.9723,1.9723,1.9723,1.9723,1.9723,1.9723,1.9723,1.9723,1.9723,1.9636,1.9442,1.9099,1.8874,1.8645,1.8066,1.7291,1.6723,3.6417,3.6417,3.6417,3.6044,3.5408,3.4668,3.4198,3.3847,3.335,3.3124,3.3124,3.3124,3.3124,3.3124,3.3124,3.2943,3.2667,3.1788,3.1286,3.0997,3.0193,2.9654,2.944,2.9038,2.8474,2.7783,2.748,2.704,2.6524,2.6147,2.5824,2.5548,2.4845,2.433,2.4017,2.3766,2.3489,2.3108,2.3095,2.2995,2.2719,2.2046,2.1345,2.0769,2.0465,2.0137,1.9849,1.9798,1.9813,1.9849,2.051,2.1018,2.1274,2.1997,2.2638,2.3206,2.3221,2.3325,2.358,2.3595,2.3595,2.3595,2.3385,2.334,2.355,2.3355,2.3086,2.2892,2.2832,2.2817,2.2832,2.3071,2.3221,2.3272,2.346,2.3595,2.3595,2.3595,2.3595,2.3535,2.2853,2.2298,2.2209,2.171,2.1171,2.0882,2.1002,2.1006,2.0423,2.0213,1.9974,1.9798,1.9723,1.9723,1.9723,1.9723,1.9723,1.9723,1.9723,1.9723,1.9723,1.9723,1.9723,1.9723,1.9723,1.9723,1.9723,1.9708,1.9584,1.9317,1.9024,1.8817,1.8593,1.7953,1.7524,3.6417,3.6417,3.6417,3.6132,3.573,3.5132,3.4638,3.4085,3.3545,3.3219,3.3124,3.3124,3.3124,3.3124,3.3124,3.3124,3.2998,3.2064,3.1524,3.1311,3.0432,2.993,2.9767,2.9339,2.8863,2.8323,2.7783,2.719,2.6524,2.6097,2.5837,2.5762,2.5297,2.4757,2.4255,2.4104,2.3715,2.3158,2.3095,2.3095,2.3045,2.2719,2.2083,2.1232,2.0981,2.0717,2.0288,2.0125,2.0037,2.0063,2.0947,2.1544,2.1744,2.2741,2.3421,2.3573,2.3595,2.3595,2.3595,2.3595,2.3595,2.3595,2.3595,2.3595,2.3595,2.3595,2.3595,2.3565,2.3595,2.355,2.3595,2.3595,2.3595,2.3595,2.3595,2.3595,2.3595,2.3595,2.3595,2.355,2.3047,2.2703,2.2613,2.2099,2.153,2.1425,2.168,2.1635,2.1036,2.0636,2.0456,1.9857,1.9839,1.9917,1.9768,1.9723,1.9723,1.9723,1.9723,1.9723,1.9723,1.9723,1.9723,1.9723,1.9723,1.9723,1.9723,1.9708,1.9657,1.9621,1.935,1.9043,1.9099,1.8727,1.8419,3.6417,3.6417,3.6417,3.6392,3.6317,3.5671,3.5144,3.465,3.4073,3.3571,3.3156,3.3124,3.3124,3.3124,3.3124,3.3124,3.3036,3.2416,3.1851,3.1373,3.0809,3.0294,2.9804,2.9754,2.9428,2.8775,2.831,2.7532,2.6587,2.6461,2.6449,2.6399,2.5871,2.531,2.4795,2.4293,2.3728,2.3233,2.312,2.3095,2.3095,2.307,2.2757,2.2209,2.1719,2.1446,2.1317,2.093,2.0654,2.068,2.0873,2.1164,2.17,2.2406,2.3068,2.3508,2.3595,2.3595,2.3595,2.3595,2.3595,2.3595,2.3595,2.3595,2.3595,2.3595,2.3595,2.3595,2.3595,2.3595,2.3595,2.3595,2.3595,2.3595,2.3595,2.3595,2.3595,2.3595,2.3595,2.3535,2.3137,2.2793,2.2703,2.2119,2.2099,2.2343,2.2583,2.2269,2.1455,2.1834,2.1535,2.0501,2.0213,2.0423,1.9887,1.9723,1.9723,1.9723,1.9723,1.9723,1.9723,1.9723,1.9723,1.9723,1.9723,1.9723,1.9723,1.969,1.9639,1.9584,1.946,1.9317,1.9225,1.953,1.9258,3.6417,3.6417,3.6417,3.6417,3.6342,3.5734,3.537,3.5119,3.4286,3.3796,3.3558,3.3244,3.3124,3.3124,3.3124,3.3124,3.3018,3.2466,3.1913,3.1373,3.0859,3.0319,2.9829,2.9779,2.949,2.8938,2.8687,2.8072,2.7042,2.6675,2.6487,2.6474,2.6298,2.5908,2.5322,2.4795,2.4224,2.3684,2.3308,2.3095,2.3095,2.3095,2.2995,2.2807,2.2309,2.1845,2.1493,2.1292,2.1219,2.1192,2.1666,2.2062,2.2301,2.2904,2.3355,2.3573,2.3595,2.3595,2.3595,2.3595,2.3595,2.3595,2.3595,2.361,2.3595,2.3595,2.3595,2.3595,2.3595,2.3595,2.3595,2.3595,2.3595,2.3595,2.3595,2.3595,2.3595,2.3595,2.3595,2.3565,2.337,2.3167,2.2853,2.2823,2.2847,2.2763,2.3032,2.2772,2.2158,2.2239,2.2143,2.1425,2.0617,2.0124,2.0423,1.9929,1.9723,1.9723,1.9723,1.9723,1.9723,1.9723,1.9723,1.9723,1.9723,1.9723,1.9705,1.9402,1.9406,1.9515,1.9406,1.9062,1.9099,1.9095,1.9114,3.6417,3.6417,3.6417,3.6417,3.6367,3.5968,3.5658,3.5408,3.4575,3.4073,3.3822,3.3363,3.3124,3.3124,3.3124,3.3124,3.3086,3.2654,3.219,3.1637,3.111,3.0583,3.0105,2.988,2.9591,2.9189,2.8963,2.836,2.7392,2.6952,2.6688,2.6512,2.6487,2.621,2.5624,2.5234,2.4745,2.4067,2.3572,2.3308,2.3145,2.3095,2.3095,2.3058,2.2732,2.238,2.2033,2.2337,2.2362,2.2268,2.2861,2.3361,2.3587,2.4009,2.4238,2.4253,2.4268,2.4253,2.4253,2.4238,2.4163,2.3954,2.3924,2.3864,2.3655,2.3595,2.3595,2.3595,2.3595,2.3595,2.3595,2.3595,2.3595,2.3595,2.3595,2.3595,2.3595,2.3595,2.3595,2.3595,2.358,2.337,2.3116,2.3355,2.334,2.3032,2.3377,2.3295,2.2877,2.2712,2.2712,2.2637,2.1829,2.1246,2.1006,2.0543,1.9962,1.9857,1.9723,1.9723,1.9723,1.9723,1.9723,1.9723,1.9723,1.9723,1.9545,1.9221,1.9188,1.9369,1.8949,1.8516,1.8477,1.8419,1.8516,3.6417,3.6417,3.6417,3.6417,3.6405,3.6355,3.6031,3.5508,3.4931,3.4462,3.3985,3.337,3.3187,3.3124,3.3124,3.3124,3.3111,3.3048,3.2679,3.2114,3.1574,3.1047,3.0545,3.0018,2.9779,2.9666,2.9176,2.8373,2.7406,2.7278,2.7002,2.6575,2.6487,2.6248,2.5624,2.5536,2.5059,2.433,2.4067,2.371,2.3195,2.317,2.3158,2.3108,2.3058,2.305,2.3067,2.3929,2.3983,2.3521,2.4163,2.4951,2.5251,2.5427,2.5525,2.5435,2.5525,2.5555,2.551,2.5442,2.5098,2.4739,2.4605,2.438,2.3984,2.3834,2.3789,2.3729,2.3714,2.367,2.3699,2.3699,2.367,2.3595,2.3595,2.3595,2.3595,2.3595,2.3595,2.3595,2.3595,2.3595,2.358,2.3565,2.3535,2.352,2.355,2.3565,2.3415,2.3385,2.352,2.352,2.3041,2.2488,2.1829,2.1156,2.0531,2.0007,1.9828,1.9723,1.9723,1.9723,1.9723,1.9723,1.9723,1.9723,1.9636,1.9314,1.9006,1.8968,1.8438,1.8033,1.7953,1.7947,1.8046,3.6417,3.6417,3.6417,3.6417,3.6417,3.6417,3.6304,3.6056,3.547,3.4931,3.4437,3.3884,3.3445,3.3174,3.3124,3.3124,3.3124,3.3111,3.2767,3.2215,3.1662,3.1135,3.0608,3.0055,2.9779,2.9691,2.9202,2.8524,2.7921,2.7482,2.704,2.6587,2.6499,2.6411,2.6197,2.5799,2.5372,2.5121,2.4745,2.4293,2.3791,2.3728,2.3521,2.3158,2.3095,2.3348,2.3914,2.4221,2.4273,2.4074,2.4806,2.5379,2.5563,2.56,2.56,2.56,2.56,2.56,2.5615,2.563,2.5585,2.5322,2.5277,2.5226,2.5031,2.4941,2.4732,2.4365,2.4276,2.4276,2.4276,2.4291,2.4096,2.3655,2.3595,2.3625,2.3595,2.3595,2.3595,2.3595,2.3595,2.3595,2.361,2.361,2.3595,2.3595,2.3595,2.3595,2.3595,2.3595,2.3595,2.3595,2.3505,2.3385,2.2592,2.1909,2.134,2.0786,2.0441,1.9857,1.9783,1.9723,1.9723,1.9723,1.9723,1.9672,1.9599,1.935,1.9024,1.8593,1.8151,1.7847,1.7585,1.7504,1.7537,3.6417,3.6417,3.6417,3.6417,3.6417,3.6417,3.6417,3.6329,3.578,3.5182,3.4675,3.4135,3.3639,3.3199,3.3124,3.3124,3.3124,3.3124,3.288,3.2491,3.1951,3.1411,3.0846,3.0131,2.9779,2.9729,2.9428,2.8963,2.8411,2.7858,2.7306,2.6876,2.66,2.6487,2.6474,2.6147,2.5837,2.5586,2.5259,2.4845,2.4431,2.4318,2.3998,2.3552,2.3712,2.4003,2.4319,2.4794,2.5133,2.5232,2.5869,2.6287,2.6338,2.6387,2.6333,2.6333,2.6363,2.6363,2.6348,2.6432,2.6213,2.6048,2.5974,2.5824,2.5689,2.56,2.5375,2.5068,2.4963,2.4978,2.4978,2.4978,2.4694,2.4178,2.4044,2.3864,2.3699,2.3595,2.3738,2.3827,2.3789,2.3759,2.3872,2.3699,2.3625,2.3595,2.3595,2.3595,2.3595,2.3595,2.3595,2.3595,2.358,2.3385,2.3107,2.2628,2.2149,2.1669,2.1216,2.0423,1.9917,1.9783,1.9723,1.9723,1.9723,1.9723,1.9636,1.9225,1.8855,1.838,1.7967,1.7497,1.716,1.6888,1.693,3.6417,3.6417,3.6417,3.6417,3.6417,3.6417,3.6417,3.6329,3.5855,3.5341,3.4731,3.4261,3.3684,3.3232,3.3174,3.3124,3.3124,3.3124,3.3111,3.288,3.2466,3.1913,3.1122,3.0218,2.9804,2.9779,2.9754,2.9428,2.8787,2.8273,2.7821,2.7218,2.6751,2.6487,2.6474,2.6474,2.6197,2.5787,2.5661,2.5385,2.4863,2.4838,2.4607,2.4098,2.4624,2.4813,2.4809,2.5757,2.651,2.6616,2.7093,2.7375,2.7525,2.7585,2.745,2.7405,2.7555,2.7465,2.7525,2.7375,2.721,2.6731,2.6617,2.6408,2.6019,2.5989,2.5884,2.5689,2.5659,2.5674,2.5674,2.5674,2.5465,2.5129,2.4777,2.4358,2.3849,2.3819,2.4126,2.444,2.4156,2.3954,2.4575,2.4193,2.3924,2.3744,2.3759,2.3774,2.3595,2.3595,2.3595,2.3595,2.3595,2.352,2.3281,2.3152,2.2733,2.2562,2.2099,2.1365,2.0337,2.0022,1.9723,1.9723,1.9828,1.9798,1.9617,1.9295,1.8893,1.8496,1.7927,1.7222,1.6985,1.6976,1.682,3.6417,3.6417,3.6417,3.6417,3.6417,3.6417,3.6417,3.6392,3.6267,3.5805,3.5232,3.4751,3.4186,3.3671,3.3257,3.3124,3.3124,3.3124,3.3124,3.3099,3.2955,3.2039,3.0934,3.0143,2.9804,2.9792,2.9767,2.949,2.8875,2.8484,2.7931,2.7316,2.693,2.6546,2.6487,2.6499,2.6424,2.6298,2.626,2.5971,2.5519,2.5464,2.5121,2.4696,2.5,2.5378,2.5734,2.6726,2.7306,2.7306,2.7458,2.7585,2.7585,2.7585,2.7585,2.7585,2.7585,2.7585,2.7585,2.7585,2.7495,2.7375,2.727,2.7255,2.7121,2.7076,2.6836,2.6497,2.6333,2.6333,2.6333,2.6333,2.6267,2.6117,2.5533,2.5024,2.4986,2.5091,2.5166,2.5277,2.5151,2.5136,2.5211,2.5121,2.4784,2.444,2.4276,2.4081,2.3774,2.3595,2.3595,2.3595,2.3595,2.3595,2.3535,2.3445,2.3355,2.3355,2.3011,2.2562,2.1415,2.0441,2.0037,1.9723,2.0067,2.0142,1.9887,1.9578,1.9128,1.8954,1.8669,1.8349,1.797,1.7781,1.7295,3.6417,3.6417,3.6417,3.6417,3.6417,3.6417,3.6417,3.6417,3.6405,3.6056,3.5508,3.5182,3.4625,3.3897,3.3571,3.3325,3.3149,3.3124,3.3124,3.3147,3.3317,3.2498,3.1196,3.0394,3.003,2.9792,2.9818,2.9859,2.9804,2.9353,2.888,2.8579,2.782,2.7241,2.6839,2.6587,2.6487,2.6543,2.6769,2.6814,2.6519,2.6863,2.6744,2.6443,2.6593,2.7049,2.7296,2.7491,2.7585,2.76,2.7585,2.7585,2.7585,2.7585,2.7585,2.7585,2.7585,2.7585,2.7585,2.7585,2.7585,2.7585,2.7585,2.7585,2.7555,2.7585,2.7375,2.7106,2.7031,2.7031,2.7046,2.7031,2.7031,2.6941,2.6462,2.5952,2.5666,2.5555,2.5749,2.5854,2.5794,2.5749,2.5944,2.5809,2.5442,2.5098,2.4837,2.4343,2.3804,2.3684,2.3595,2.3595,2.3595,2.3595,2.3595,2.3535,2.3505,2.355,2.349,2.3146,2.2418,2.116,2.0681,2.0412,2.0471,2.0486,2.0382,2.0326,2.0308,2.0122,1.9846,1.9523,1.9162,1.8879,1.8317,3.6417,3.6417,3.6417,3.6417,3.6417,3.6417,3.6417,3.6417,3.6417,3.6107,3.5671,3.5533,3.4881,3.3997,3.3884,3.3627,3.3136,3.3124,3.3283,3.3471,3.3612,3.3139,3.2026,3.1447,3.0907,3.0458,3.0139,3.0607,3.0942,3.0728,3.0552,3.0166,2.9377,2.8502,2.7894,2.7284,2.6849,2.6884,2.7504,2.7677,2.765,2.8145,2.8315,2.8102,2.8464,2.8684,2.8476,2.8169,2.7809,2.7839,2.769,2.76,2.7585,2.7585,2.7585,2.7585,2.7585,2.7585,2.7585,2.7585,2.7585,2.7585,2.7585,2.7585,2.7585,2.7585,2.7555,2.748,2.7585,2.751,2.751,2.7555,2.751,2.7465,2.7465,2.6971,2.6168,2.5809,2.6048,2.6557,2.6153,2.6198,2.6318,2.6213,2.5785,2.5749,2.5465,2.5016,2.4328,2.3879,2.3729,2.3595,2.3595,2.3595,2.3595,2.3595,2.358,2.358,2.358,2.337,2.3116,2.2218,2.162,2.1365,2.171,2.1635,2.131,2.1312,2.1272,2.1088,2.0695,2.0546,2.0387,2.0218,1.9801,3.6417,3.6417,3.6417,3.6417,3.6417,3.6417,3.6417,3.6417,3.6417,3.6317,3.6094,3.5696,3.5132,3.4512,3.411,3.3608,3.3174,3.3197,3.3513,3.4361,3.4406,3.4299,3.3675,3.3203,3.2593,3.2023,3.1974,3.2105,3.2135,3.1836,3.1515,3.1405,3.0877,3.0151,2.9455,2.9033,2.8564,2.7828,2.8279,2.8363,2.8084,2.8684,2.9122,2.8962,2.9192,2.9332,2.9268,2.8742,2.8652,2.8798,2.8259,2.775,2.769,2.766,2.763,2.7585,2.7585,2.7585,2.7585,2.7585,2.7585,2.7585,2.7585,2.7585,2.7585,2.7585,2.7585,2.7585,2.7585,2.7585,2.7585,2.7585,2.7585,2.7585,2.7585,2.748,2.721,2.7121,2.7151,2.7225,2.7195,2.721,2.733,2.721,2.6811,2.6452,2.6093,2.5749,2.5151,2.4448,2.4029,2.3909,2.3595,2.3595,2.3595,2.3595,2.3595,2.3595,2.3595,2.358,2.331,2.3206,2.2577,2.2667,2.3116,2.2817,2.2188,2.1904,2.1798,2.1669,2.1613,2.1548,2.1476,2.1407,2.1365,3.6417,3.6417,3.6417,3.6417,3.6417,3.6417,3.6417,3.6417,3.6417,3.6417,3.6355,3.6031,3.5491,3.4693,3.4399,3.3872,3.3379,3.367,3.415,3.4869,3.5534,3.5933,3.5629,3.5231,3.4597,3.2994,3.2558,3.277,3.3024,3.3,3.2859,3.2774,3.2311,3.1601,3.0799,3.0349,2.9567,2.9089,2.9285,2.9348,2.9129,2.9735,3.0178,3.0079,3.0002,2.9934,2.9971,2.94,2.9295,2.9352,2.8933,2.8378,2.8109,2.8038,2.7944,2.7645,2.7585,2.7585,2.7585,2.7585,2.7585,2.7615,2.76,2.7585,2.7585,2.7585,2.7585,2.7585,2.7585,2.7585,2.7585,2.7585,2.7585,2.7585,2.7585,2.7585,2.7585,2.7585,2.7585,2.7585,2.7525,2.7525,2.7585,2.7585,2.7525,2.7001,2.7001,2.6701,2.6761,2.5959,2.4777,2.4313,2.3819,2.3595,2.3595,2.3595,2.3595,2.3595,2.3595,2.3595,2.349,2.3505,2.349,2.355,2.352,2.343,2.2906,2.2637,2.2488,2.262,2.2658,2.2601,2.2545,2.2488,2.2541,3.6417,3.6417,3.6417,3.6417,3.6417,3.6417,3.6417,3.6417,3.6417,3.6417,3.6417,3.6417,3.5705,3.4901,3.4668,3.4117,3.3884,3.4457,3.5088,3.5669,3.6841,3.7157,3.707,3.691,3.6014,3.3424,3.3297,3.365,3.4061,3.423,3.4129,3.4114,3.3819,3.3138,3.2178,3.1316,3.0674,3.0237,3.0471,3.0414,3.0297,3.0866,3.1248,3.1203,3.0904,3.0648,3.0552,3.0118,2.9789,2.9876,2.9774,2.943,2.9056,2.8727,2.8457,2.7839,2.7839,2.775,2.7675,2.772,2.7824,2.775,2.7929,2.7959,2.8004,2.7929,2.7869,2.7764,2.772,2.7585,2.7585,2.7585,2.7585,2.7585,2.7585,2.7585,2.7585,2.7585,2.7585,2.7585,2.7585,2.7585,2.7585,2.7585,2.7585,2.7585,2.7585,2.7585,2.7585,2.736,2.6078,2.5226,2.4837,2.4448,2.4388,2.4014,2.3969,2.3939,2.3864,2.3729,2.3684,2.3595,2.3595,2.3595,2.355,2.3475,2.3445,2.3236,2.3266,2.358,2.349,2.3176,2.3281,2.355,2.3468,3.6417,3.6417,3.6417,3.6417,3.6417,3.6417,3.6417,3.6417,3.6417,3.6417,3.6417,3.6392,3.5755,3.4951,3.468,3.4545,3.4554,3.54,3.6344,3.6958,3.7762,3.787,3.8136,3.7972,3.7208,3.613,3.524,3.4994,3.51,3.5246,3.5052,3.5184,3.5065,3.4558,3.4065,3.3704,3.2523,3.1493,3.1642,3.144,3.0908,3.1087,3.1496,3.1496,3.1286,3.1256,3.1137,3.0746,3.0612,3.1062,3.0642,3.0342,3.0073,2.9699,2.916,2.8618,2.8453,2.8263,2.7944,2.8199,2.8368,2.8547,2.8843,2.9157,2.9082,2.8727,2.8427,2.8218,2.7929,2.763,2.76,2.766,2.763,2.7615,2.769,2.772,2.7705,2.7809,2.7824,2.7899,2.7779,2.7585,2.7585,2.7585,2.7585,2.7585,2.7585,2.7585,2.7585,2.7585,2.7195,2.6527,2.6063,2.5674,2.5337,2.4799,2.45,2.4515,2.438,2.4044,2.3924,2.367,2.361,2.3954,2.3819,2.355,2.3565,2.3595,2.3595,2.3595,2.3595,2.3573,2.3551,2.353,2.353,3.6417,3.6417,3.6417,3.6417,3.6417,3.6417,3.6417,3.6417,3.6417,3.6417,3.6417,3.6367,3.5801,3.4951,3.468,3.4689,3.5067,3.6397,3.7266,3.7829,3.8316,3.8686,3.879,3.8586,3.7853,3.6982,3.6342,3.5804,3.5519,3.5472,3.5489,3.5489,3.5489,3.531,3.4981,3.4528,3.3955,3.2978,3.2614,3.2184,3.1426,3.1559,3.1482,3.1496,3.1496,3.1496,3.1436,3.1256,3.1152,3.1361,3.1182,3.1047,3.0898,3.0672,3.0133,2.934,2.9116,2.9022,2.8693,2.8992,2.9086,2.9131,2.9472,2.9577,2.9535,2.9265,2.8981,2.8607,2.8397,2.7974,2.766,2.7929,2.8094,2.8139,2.8214,2.8378,2.8573,2.8783,2.8753,2.8498,2.8019,2.7779,2.7585,2.7585,2.7585,2.7585,2.7585,2.7585,2.7585,2.7585,2.7585,2.718,2.6557,2.6108,2.5809,2.5486,2.5128,2.5113,2.5008,2.4672,2.4313,2.4133,2.4388,2.4792,2.4448,2.4118,2.361,2.361,2.361,2.353,2.3319,2.3209,2.3384,2.345,2.3406,3.6417,3.6417,3.6417,3.6417,3.6417,3.6417,3.6417,3.6417,3.6417,3.6417,3.6417,3.6355,3.5755,3.4999,3.4913,3.5083,3.5224,3.7165,3.8121,3.8345,3.8907,3.9373,3.9209,3.8871,3.8272,3.7629,3.6956,3.6267,3.5609,3.5489,3.5489,3.5489,3.5489,3.5489,3.534,3.4996,3.4711,3.4159,3.338,3.2662,3.2213,3.1795,3.1496,3.1496,3.1496,3.1496,3.1496,3.1436,3.1421,3.1481,3.1466,3.1466,3.1481,3.1496,3.1002,3.0178,2.9879,2.9756,2.9606,2.9741,2.9759,2.9759,2.9924,2.9998,2.9968,2.9924,2.9505,2.8966,2.8771,2.8637,2.8364,2.8502,2.8727,2.8846,2.9022,2.9262,2.9457,2.9654,2.9881,2.9415,2.8487,2.8064,2.7989,2.7585,2.7585,2.7585,2.7585,2.7585,2.7585,2.7585,2.7525,2.7285,2.6851,2.6348,2.6108,2.6093,2.5854,2.5809,2.5704,2.545,2.5031,2.4695,2.5136,2.5674,2.5585,2.5249,2.4448,2.367,2.361,2.3443,2.3009,2.2972,2.3341,2.3297,2.3157,3.6417,3.6417,3.6417,3.6417,3.6417,3.6417,3.6417,3.6417,3.6452,3.6417,3.6417,3.6496,3.5974,3.5283,3.566,3.5939,3.6646,3.7994,3.9031,3.9053,3.9265,3.9388,3.9388,3.9379,3.8781,3.8123,3.7524,3.6626,3.5833,3.5564,3.5489,3.5489,3.5489,3.5489,3.5474,3.5325,3.507,3.4503,3.3754,3.2871,3.1959,3.169,3.1645,3.1615,3.157,3.1585,3.16,3.157,3.1496,3.1496,3.1496,3.1496,3.1496,3.1496,3.1481,3.1137,3.0761,3.0178,2.9921,3.0148,3.0402,3.0479,3.0808,3.1182,3.0987,3.0612,3.0133,2.9577,2.946,2.934,2.9187,2.9355,2.9472,2.9594,2.9804,2.9819,2.9924,3.0313,3.0569,3.0374,2.9505,2.8876,2.8532,2.8019,2.7585,2.7585,2.7585,2.7585,2.7585,2.7585,2.7585,2.739,2.724,2.6791,2.6656,2.6587,2.6512,2.6467,2.6363,2.6228,2.5959,2.5758,2.6177,2.6542,2.6507,2.6087,2.5151,2.4418,2.3864,2.3444,2.3171,2.3238,2.3486,2.3268,2.2957,3.6417,3.6417,3.6417,3.6417,3.6417,3.6417,3.6417,3.6534,3.7057,3.6977,3.6803,3.7906,3.7754,3.6657,3.6482,3.654,3.7329,3.8708,3.9388,3.9388,3.9388,3.9388,3.9388,3.9343,3.905,3.8437,3.7719,3.6985,3.6207,3.5714,3.5489,3.5504,3.5489,3.5489,3.5489,3.5489,3.534,3.4951,3.4367,3.3589,3.2901,3.2647,3.2632,3.2587,3.2228,3.2064,3.1959,3.166,3.1525,3.1496,3.1496,3.1496,3.1496,3.1496,3.1496,3.1466,3.1241,3.0943,3.0806,3.0913,3.0972,3.1062,3.1316,3.1421,3.1436,3.1212,3.0776,3.0163,3.0118,2.9983,2.9831,2.9924,2.9983,3.0163,3.0494,3.0629,3.0629,3.0808,3.1032,3.0793,3.0494,2.9789,2.8996,2.8259,2.775,2.7585,2.7585,2.7585,2.7585,2.7585,2.7585,2.7555,2.745,2.727,2.7255,2.724,2.7151,2.7106,2.7121,2.7001,2.6931,2.6986,2.7121,2.721,2.7151,2.6557,2.5764,2.5008,2.4343,2.3837,2.3384,2.3496,2.3533,2.312,2.2957,3.6417,3.6417,3.6417,3.6417,3.6417,3.6417,3.6417,3.6546,3.7243,3.7163,3.7014,3.8028,3.8308,3.7772,3.6941,3.7098,3.7791,3.8907,3.9316,3.9388,3.9388,3.9388,3.9388,3.9328,3.9155,3.8616,3.8063,3.7509,3.7,3.6402,3.5953,3.5549,3.5489,3.5489,3.5489,3.5474,3.537,3.5026,3.4668,3.4084,3.3514,3.341,3.3425,3.326,3.2931,3.2497,3.2392,3.1854,3.1511,3.1496,3.1496,3.1496,3.1496,3.1496,3.1496,3.1496,3.1391,3.1391,3.1331,3.1391,3.1496,3.1496,3.1496,3.1496,3.1496,3.1481,3.1361,3.0791,3.0776,3.0507,3.0298,3.0567,3.0642,3.0808,3.1062,3.1316,3.1481,3.1361,3.1271,3.1107,3.0778,3.0357,2.952,2.8543,2.7974,2.7675,2.7585,2.7585,2.7585,2.7585,2.7585,2.7585,2.7555,2.748,2.751,2.757,2.7585,2.7585,2.7585,2.754,2.736,2.736,2.742,2.754,2.7585,2.7285,2.6587,2.5689,2.4829,2.4482,2.4138,2.3732,2.3496,2.3133,2.3009,3.6417,3.6417,3.6417,3.6417,3.6417,3.6417,3.6417,3.6417,3.6534,3.6722,3.6802,3.6642,3.6917,3.684,3.7478,3.7696,3.7904,3.8929,3.9301,3.9388,3.9388,3.9388,3.9388,3.9373,3.9313,3.917,3.8512,3.8182,3.8018,3.7255,3.6492,3.5699,3.5729,3.5579,3.5489,3.5489,3.525,3.4951,3.4698,3.4337,3.3873,3.3694,3.3679,3.3499,3.2976,3.2482,3.2482,3.2034,3.166,3.166,3.1645,3.1525,3.1525,3.1496,3.1496,3.1496,3.1496,3.1496,3.1496,3.1496,3.1496,3.1496,3.1496,3.1496,3.1496,3.1496,3.1421,3.1331,3.1227,3.1256,3.1241,3.1391,3.1227,3.1256,3.1316,3.1391,3.1496,3.1496,3.1406,3.1331,3.1062,3.0672,3.0223,2.928,2.8423,2.8079,2.7615,2.7585,2.7585,2.7585,2.7585,2.7585,2.7585,2.757,2.757,2.7585,2.7585,2.7585,2.7585,2.7585,2.754,2.7585,2.7585,2.7585,2.7585,2.754,2.7405,2.6522,2.577,2.531,2.4875,2.4392,2.3941,2.3615,2.3474,3.6417,3.6417,3.6417,3.6417,3.6417,3.6417,3.6417,3.6546,3.7163,3.7906,3.8397,3.7511,3.7432,3.8144,3.8238,3.8568,3.8789,3.9141,3.9352,3.9388,3.9388,3.9388,3.9388,3.9388,3.9373,3.9275,3.8751,3.8377,3.8272,3.7853,3.733,3.6701,3.6327,3.5833,3.5669,3.5519,3.531,3.5205,3.507,3.4921,3.4846,3.4741,3.4741,3.4681,3.4068,3.3754,3.3664,3.308,3.2572,3.2213,3.2123,3.1929,3.166,3.16,3.1555,3.154,3.154,3.1496,3.1496,3.1496,3.1496,3.1496,3.1496,3.1496,3.1496,3.1496,3.1496,3.1481,3.1496,3.1496,3.1481,3.1481,3.1451,3.1481,3.1496,3.1496,3.1496,3.1496,3.1481,3.1406,3.1256,3.1031,3.0582,3.0088,2.922,2.8457,2.7989,2.7585,2.7585,2.7585,2.7585,2.7585,2.7585,2.7585,2.7585,2.7585,2.7585,2.7585,2.7585,2.7585,2.7585,2.7585,2.7585,2.7585,2.7585,2.7555,2.742,2.7136,2.6667,2.6171,2.5557,2.4967,2.4537,2.4081,2.3849,3.6417,3.6452,3.6756,3.6722,3.6405,3.6417,3.6417,3.6534,3.7196,3.8243,3.9275,3.8226,3.8403,3.9259,3.9455,3.9207,3.9311,3.9388,3.9388,3.9388,3.9388,3.9388,3.9388,3.9388,3.9373,3.929,3.9035,3.8736,3.8751,3.8242,3.7913,3.7629,3.727,3.6701,3.5923,3.5579,3.5504,3.5489,3.5489,3.5489,3.5459,3.5444,3.5429,3.5295,3.4696,3.4399,3.4174,3.3664,3.32,3.2931,3.2766,3.2572,3.2213,3.1944,3.1824,3.175,3.163,3.1525,3.1511,3.1496,3.1496,3.1496,3.1496,3.1496,3.1496,3.1511,3.1496,3.1496,3.1496,3.1525,3.154,3.1496,3.1496,3.1496,3.1496,3.1496,3.1496,3.1496,3.1496,3.1466,3.1346,3.1241,3.0957,3.0507,2.9624,2.8742,2.7989,2.7645,2.7585,2.7585,2.7585,2.7585,2.7585,2.7585,2.7585,2.7585,2.7585,2.7585,2.7585,2.7585,2.7585,2.7585,2.7585,2.7585,2.7585,2.7585,2.7495,2.7315,2.7165,2.6971,2.6324,2.5649,2.4753,2.4261,2.3954,3.6417,3.6546,3.754,3.7415,3.6593,3.6417,3.6487,3.6568,3.6709,3.7335,3.8402,3.8602,3.9103,3.9675,3.998,3.9943,3.942,3.9388,3.9388,3.9388,3.9388,3.9388,3.9388,3.9388,3.9388,3.9388,3.9239,3.9179,3.9305,3.9059,3.8811,3.8467,3.8078,3.7479,3.6492,3.5818,3.5534,3.5489,3.5489,3.5489,3.5489,3.5489,3.5489,3.5355,3.4981,3.4713,3.4547,3.4203,3.3799,3.3544,3.3484,3.3335,3.314,3.2706,3.2497,3.2452,3.1944,3.1675,3.1585,3.1555,3.1615,3.1585,3.1585,3.169,3.16,3.16,3.1765,3.1989,3.1824,3.172,3.1615,3.157,3.163,3.172,3.178,3.1496,3.1496,3.1496,3.1496,3.1496,3.1496,3.1451,3.1241,3.0866,2.9983,2.9056,2.8139,2.7764,2.7794,2.7944,2.8079,2.7929,2.7929,2.769,2.769,2.7615,2.7585,2.7585,2.7585,2.7585,2.7585,2.7585,2.7585,2.7585,2.7585,2.7585,2.7585,2.7555,2.7405,2.724,2.6956,2.6279,2.5292,2.4619,2.4462,3.6417,3.6499,3.7632,3.7893,3.754,3.754,3.754,3.7553,3.754,3.7756,3.8429,3.9824,4.0146,4.0101,4.0501,4.0502,3.9589,3.9388,3.9388,3.9388,3.9388,3.9388,3.9388,3.9388,3.9388,3.9388,3.9388,3.9388,3.9358,3.9388,3.9328,3.905,3.8556,3.7674,3.6776,3.6178,3.5998,3.5579,3.5489,3.5489,3.5489,3.5489,3.5489,3.5489,3.522,3.51,3.507,3.4726,3.4517,3.4218,3.4158,3.3993,3.3709,3.3245,3.3185,3.3155,3.2826,3.2856,3.2841,3.2781,3.2333,3.2004,3.1929,3.2138,3.2168,3.2632,3.2766,3.2766,3.2647,3.2677,3.2871,3.2378,3.2318,3.2572,3.2452,3.172,3.1496,3.1496,3.1496,3.1496,3.1496,3.1496,3.1376,3.1256,3.0524,3.0058,2.9265,2.8678,2.8558,2.8828,2.8981,2.8648,2.8423,2.8049,2.7824,2.7824,2.7675,2.7585,2.7585,2.7585,2.7585,2.7585,2.7585,2.7585,2.7585,2.7585,2.7585,2.7585,2.7585,2.745,2.7195,2.6856,2.6078,2.557,2.5428,3.7381,3.7196,3.868,3.9067,3.8783,3.8725,3.8514,3.8121,3.7769,3.7906,3.8948,4.0362,4.0972,4.0825,4.1234,4.1033,3.9843,3.9768,3.9463,3.9448,3.9388,3.9388,3.9388,3.9388,3.9388,3.9388,3.9388,3.9388,3.9388,3.9388,3.9358,3.926,3.8945,3.8257,3.7389,3.6806,3.6282,3.5893,3.5744,3.5489,3.5489,3.5489,3.5489,3.5489,3.5459,3.5459,3.5474,3.5429,3.531,3.4936,3.4741,3.4622,3.4247,3.3963,3.3888,3.3829,3.3574,3.3514,3.341,3.341,3.2916,3.2467,3.2677,3.2826,3.2901,3.3155,3.332,3.341,3.3559,3.3544,3.3455,3.2961,3.3036,3.3245,3.2811,3.2093,3.169,3.1705,3.1555,3.154,3.1511,3.1511,3.1496,3.1436,3.1152,3.0808,3.0464,2.9894,2.9322,2.943,2.9594,2.9295,2.8948,2.8573,2.8289,2.8139,2.7944,2.7645,2.763,2.769,2.7585,2.7585,2.7585,2.7585,2.7585,2.7585,2.7585,2.7585,2.7585,2.7585,2.751,2.7151,2.6707,2.6417,2.6117,3.9183,3.859,4.0618,4.0873,4.0073,3.9929,3.9316,3.8153,3.7196,3.8043,3.9972,4.0189,4.1019,4.2114,4.2351,4.1632,4.0636,4.0457,4.0053,3.9657,3.9634,3.9508,3.9418,3.9388,3.9388,3.9388,3.9388,3.9388,3.9388,3.9388,3.9388,3.9388,3.9269,3.8811,3.8138,3.7419,3.6806,3.6462,3.5998,3.5789,3.5744,3.5564,3.5519,3.5489,3.5489,3.5489,3.5489,3.5459,3.5459,3.5385,3.54,3.5429,3.5235,3.4878,3.4668,3.4399,3.3948,3.3858,3.3829,3.3873,3.3814,3.3574,3.3619,3.3604,3.3604,3.3754,3.3978,3.3978,3.3993,3.3844,3.3664,3.3634,3.3604,3.344,3.3095,3.2587,3.2138,3.1914,3.1705,3.16,3.154,3.1525,3.1496,3.1466,3.1436,3.1301,3.0972,3.0688,3.0163,2.9759,2.9879,2.9804,2.943,2.9071,2.8831,2.8652,2.8308,2.8053,2.7884,2.7869,2.7735,2.7585,2.7585,2.7585,2.7585,2.7585,2.7585,2.7585,2.7585,2.7585,2.7585,2.7435,2.7016,2.6806,2.6462,3.9711,3.9579,4.0986,4.142,4.1127,4.1127,4.0433,3.9492,3.977,4.0632,4.1127,4.1988,4.2184,4.2425,4.2381,4.1856,4.1422,4.101,4.0651,4.0307,3.9933,3.9753,3.9538,3.9388,3.9388,3.9388,3.9388,3.9388,3.9388,3.9388,3.9388,3.9388,3.9388,3.9194,3.8856,3.8257,3.7689,3.712,3.6567,3.6282,3.6043,3.5818,3.5684,3.5594,3.5519,3.5504,3.5489,3.5489,3.5489,3.5489,3.5489,3.5489,3.5444,3.5295,3.5205,3.5205,3.5026,3.4966,3.4921,3.4906,3.4831,3.4756,3.4801,3.4577,3.4548,3.4517,3.4756,3.4651,3.4622,3.4562,3.4457,3.4397,3.4427,3.4292,3.3933,3.3409,3.2946,3.2542,3.2303,3.1989,3.1914,3.1511,3.1496,3.1496,3.1466,3.1496,3.1391,3.1167,3.0943,3.0524,3.0328,3.0283,3.0238,2.9968,2.9535,2.9295,2.8876,2.8517,2.8278,2.7989,2.772,2.7585,2.7585,2.7585,2.7585,2.7585,2.7585,2.7585,2.7585,2.7585,2.7585,2.748,2.7345,2.7136,2.7031,4.0589,4.0746,4.1809,4.2275,4.229,4.229,4.1823,4.1309,4.1042,4.1127,4.167,4.2234,4.2678,4.2796,4.2746,4.2402,4.1826,4.1437,4.0965,4.0412,4.0232,3.9768,3.9463,3.9388,3.9388,3.9388,3.9388,3.9388,3.9388,3.9388,3.9388,3.9388,3.9388,3.9388,3.9209,3.8931,3.8646,3.8033,3.7464,3.6985,3.6611,3.6252,3.5998,3.5848,3.5714,3.5534,3.5519,3.5519,3.5489,3.5489,3.5489,3.5489,3.5489,3.5489,3.5474,3.5444,3.5415,3.537,3.534,3.5385,3.5459,3.5489,3.5489,3.5265,3.5145,3.513,3.5265,3.531,3.5385,3.5415,3.5295,3.522,3.531,3.5385,3.4876,3.4352,3.3827,3.3334,3.2946,3.2572,3.2153,3.1675,3.1496,3.1511,3.1496,3.1496,3.1496,3.1421,3.1316,3.1167,3.0987,3.0928,3.0987,3.0928,3.0462,2.9864,2.943,2.8966,2.8532,2.8203,2.7809,2.7585,2.7585,2.7585,2.7585,2.7585,2.7585,2.7585,2.7585,2.7585,2.7585,2.754,2.751,2.745,2.742,4.1629,4.1809,4.286,4.321,4.3305,4.321,4.3195,4.309,4.1281,4.0802,4.1711,4.1809,4.2478,4.3061,4.3125,4.291,4.2447,4.2013,4.1399,4.0502,4.0247,3.9858,3.9478,3.9388,3.9388,3.9388,3.9388,3.9388,3.9388,3.9388,3.9388,3.9388,3.9388,3.9388,3.9343,3.9298,3.9104,3.8916,3.8257,3.7689,3.7345,3.6956,3.6537,3.6447,3.6058,3.5624,3.5609,3.5564,3.5489,3.5489,3.5489,3.5489,3.5489,3.5489,3.5489,3.5489,3.5489,3.5489,3.5489,3.5489,3.5489,3.5489,3.5489,3.5444,3.5415,3.54,3.5474,3.5489,3.5489,3.5489,3.54,3.5355,3.5444,3.5474,3.519,3.4861,3.4577,3.4023,3.344,3.2946,3.2303,3.1869,3.1765,3.178,3.1496,3.1496,3.1496,3.1496,3.1496,3.1496,3.1451,3.1376,3.1361,3.1286,3.0987,3.0447,2.9953,2.9475,2.8981,2.8472,2.8098,2.7839,2.7585,2.7585,2.7585,2.7585,2.7585,2.7585,2.7585,2.7585,2.7585,2.7585,2.7585,2.7585,2.7291,4.2111,4.29,4.3195,4.3305,4.3305,4.3305,4.3305,4.3265,4.2765,4.2563,4.286,4.29,4.2981,4.325,4.3305,4.3125,4.3015,4.2581,4.2102,4.1354,4.0756,3.9993,3.9559,3.9388,3.9388,3.9388,3.9388,3.9388,3.9388,3.9388,3.9388,3.9388,3.9388,3.9388,3.9388,3.9388,3.9373,3.9343,3.9029,3.8467,3.8108,3.7599,3.7165,3.7,3.6626,3.6282,3.6133,3.5804,3.5624,3.5489,3.5489,3.5489,3.5489,3.5504,3.5489,3.5489,3.5489,3.5489,3.5489,3.5489,3.5489,3.5489,3.5489,3.5489,3.5489,3.5489,3.5489,3.5489,3.5489,3.5489,3.5489,3.5489,3.5489,3.5489,3.5489,3.5355,3.5205,3.4577,3.3903,3.3275,3.2557,3.2273,3.2153,3.1914,3.16,3.1496,3.1496,3.1496,3.1496,3.1496,3.1496,3.1451,3.1451,3.1376,3.1182,3.0972,3.0479,3.0028,2.9549,2.8996,2.8382,2.7974,2.7585,2.7585,2.7585,2.7585,2.7585,2.7585,2.7585,2.7585,2.7585,2.7585,2.7585,2.7585,2.7056,4.1518,4.2563,4.3101,4.3305,4.3305,4.3305,4.3305,4.3305,4.3305,4.3305,4.3305,4.3305,4.3305,4.3305,4.3305,4.3305,4.3245,4.2985,4.2192,4.1549,4.1025,4.0247,3.9747,3.9388,3.9388,3.9388,3.9388,3.9388,3.9388,3.9388,3.9388,3.9388,3.9388,3.9388,3.9388,3.9388,3.9388,3.9388,3.9388,3.9185,3.8751,3.8257,3.7868,3.7674,3.7315,3.6985,3.6806,3.6507,3.6447,3.6222,3.6148,3.5998,3.5893,3.5684,3.5519,3.5489,3.5489,3.5489,3.5504,3.5489,3.5489,3.5489,3.5489,3.5489,3.5489,3.5489,3.5489,3.5489,3.5489,3.5489,3.5489,3.5489,3.5489,3.5489,3.5489,3.5429,3.519,3.4771,3.4322,3.3963,3.3305,3.2751,3.2557,3.2288,3.1944,3.1511,3.1511,3.1496,3.1496,3.1496,3.1496,3.1496,3.1496,3.1496,3.1391,3.1241,3.1017,3.0582,3.0043,2.9082,2.8229,2.7869,2.7585,2.7585,2.7585,2.7585,2.7585,2.7585,2.7585,2.7585,2.7585,2.7585,2.7585,2.7585,2.7291,4.0703,4.1891,4.29,4.3305,4.3305,4.3305,4.3305,4.3305,4.3305,4.3305,4.3305,4.3305,4.3305,4.3305,4.3305,4.3305,4.32,4.3,4.2222,4.1429,4.0905,4.0232,3.9753,3.9388,3.9388,3.9388,3.9388,3.9388,3.9388,3.9388,3.9388,3.9388,3.9388,3.9388,3.9388,3.9388,3.9388,3.9388,3.9388,3.9388,3.9155,3.8871,3.8616,3.8302,3.7928,3.7584,3.7524,3.7419,3.7419,3.718,3.6821,3.6686,3.6507,3.6252,3.5923,3.5848,3.5789,3.5684,3.5534,3.5489,3.5489,3.5489,3.5504,3.5519,3.5519,3.5504,3.5504,3.5489,3.5489,3.5489,3.5489,3.5489,3.5489,3.5489,3.5489,3.5489,3.522,3.4996,3.4771,3.4563,3.4008,3.3395,3.3095,3.2796,3.2243,3.1795,3.154,3.1511,3.1496,3.1496,3.1496,3.1496,3.1496,3.1496,3.1496,3.1421,3.1271,3.0851,3.0193,2.9037,2.8094,2.7779,2.7585,2.7585,2.7585,2.7585,2.7585,2.7585,2.7585,2.7585,2.7585,2.7585,2.7585,2.7585,2.7585,4.1099,4.2996,4.321,4.3305,4.3305,4.3305,4.3305,4.3305,4.3305,4.3305,4.3305,4.3305,4.3305,4.3305,4.3305,4.3305,4.326,4.306,4.2327,4.1444,4.1294,4.0472,3.9753,3.9448,3.9403,3.9388,3.9388,3.9388,3.9388,3.9388,3.9388,3.9388,3.9388,3.9388,3.9388,3.9388,3.9388,3.9388,3.9388,3.9388,3.9388,3.926,3.9275,3.896,3.8571,3.8317,3.8093,3.7674,3.7479,3.7345,3.733,3.7255,3.7135,3.6956,3.6656,3.6357,3.6297,3.6103,3.5953,3.5833,3.5848,3.5789,3.5774,3.5639,3.5609,3.5534,3.5534,3.5504,3.5489,3.5489,3.5489,3.5489,3.5489,3.5489,3.5489,3.5489,3.537,3.531,3.5235,3.4981,3.4698,3.4247,3.3978,3.3455,3.2662,3.2198,3.1809,3.1735,3.1511,3.1496,3.1496,3.1496,3.1496,3.1496,3.1496,3.1496,3.1331,3.0928,3.0328,2.9187,2.8289,2.775,2.7585,2.7585,2.7585,2.7585,2.7585,2.7585,2.7585,2.7585,2.7585,2.7585,2.7585,2.7585,2.7585]}]]